GFSMA_700_spd_000.txt.gz
Wind_Speed
24 26 27 27 27 27 27 27 26 26 26 26 26 26 26 26 27 26 25 25 26 27 28 30 29 30 35 37 36 37 35 32 29 30 32 34 36 34 34 29 28 26 25
27 29 29 29 28 28 28 27 27 26 27 28 29 29 29 29 30 31 32 31 30 29 30 31 31 31 34 36 38 39 37 37 35 33 33 34 35 34 35 35 33 32 29
28 28 29 29 28 28 28 26 26 27 27 28 29 29 30 31 32 34 35 36 35 34 32 32 31 36 34 39 40 40 39 42 40 37 36 36 37 39 38 37 37 35 35
30 29 29 29 29 28 27 26 27 28 29 29 30 30 30 32 33 35 37 38 39 39 37 36 34 33 40 38 40 44 45 46 45 45 42 40 41 43 43 41 41 40 39
27 29 29 29 30 31 31 32 31 30 30 30 30 31 32 32 34 34 35 37 39 41 42 41 41 40 40 43 44 42 47 51 51 50 49 47 47 48 45 44 44 43 39
27 28 29 29 29 28 28 29 30 30 30 30 31 31 30 30 31 33 33 33 34 37 41 44 45 46 46 46 45 43 40 47 52 54 56 52 57 58 59 54 49 47 43
27 28 29 31 33 34 31 30 29 30 30 30 32 31 31 33 32 31 34 35 35 38 38 39 41 45 48 48 48 47 46 44 51 51 60 57 66 55 64 65 48 53 51
33 34 35 36 37 39 38 37 39 39 39 37 35 32 35 35 34 33 33 33 33 39 41 39 40 41 43 47 49 49 49 50 50 53 57 56 62 68 56 43 47 58 57
35 39 42 43 43 43 43 41 43 45 43 43 44 39 41 40 35 37 38 35 34 34 40 43 43 42 41 42 44 48 49 52 51 59 56 60 60 54 67 61 73 39 51
38 41 46 47 45 45 46 43 44 49 45 48 46 47 45 47 47 44 38 38 33 34 34 36 42 46 45 41 40 42 45 51 52 53 59 63 60 63 52 55 60 77 53
45 46 48 49 50 49 49 46 48 47 49 49 48 49 50 50 52 53 51 43 39 38 39 40 42 44 45 43 42 42 43 46 51 51 51 55 61 62 59 51 36 42 55
49 49 50 52 54 55 53 49 52 52 54 54 56 55 56 56 57 58 58 56 51 43 43 44 45 46 44 45 44 42 42 45 47 48 48 50 55 56 57 52 55 33 47
49 50 50 51 52 51 49 45 47 54 58 56 62 59 59 62 62 60 61 56 52 51 51 50 47 49 45 44 44 43 43 44 46 48 44 52 51 52 56 52 47 47 38
51 49 49 46 42 36 31 33 41 57 60 66 57 53 50 50 48 48 47 49 51 55 57 51 45 47 47 44 44 43 43 45 44 47 49 52 54 50 54 50 48 55 33
49 44 36 32 27 27 29 33 41 43 57 45 42 42 48 49 43 41 42 44 48 54 56 52 48 48 48 47 44 44 43 43 43 41 44 45 52 52 53 59 53 53 65
46 35 30 30 28 28 28 31 37 42 41 41 38 40 39 41 43 42 41 42 45 49 54 52 51 48 50 52 47 43 42 42 43 38 40 43 47 51 50 53 55 64 42
39 30 30 32 35 30 31 33 35 36 36 36 36 37 39 39 40 41 42 44 46 47 52 53 53 51 50 51 50 46 43 43 45 48 44 42 48 49 43 44 47 46 60
31 32 35 36 35 31 31 33 34 33 35 38 40 41 41 40 39 39 40 41 43 43 47 50 50 50 48 48 50 48 47 45 45 47 52 55 51 48 46 47 46 45 43
32 36 35 36 34 33 33 33 34 34 36 39 39 39 39 39 38 38 39 41 42 43 45 48 49 50 50 48 48 48 46 47 46 47 48 51 57 56 51 49 47 45 44
32 32 32 34 34 34 34 33 33 36 38 39 39 38 38 38 39 39 39 39 40 43 45 47 48 49 50 48 48 48 47 46 47 44 46 48 50 53 58 54 53 51 48
30 30 31 30 35 35 37 39 40 41 40 39 37 37 36 37 38 40 42 43 45 47 48 49 50 50 51 51 49 46 47 43 44 43 43 44 46 47 48 50 53 54 50
28 30 35 36 37 38 39 41 42 42 41 41 40 37 37 38 39 41 43 44 45 46 46 47 48 48 48 50 49 46 45 45 44 41 43 43 43 45 45 45 46 50 51
36 36 37 37 38 39 40 41 41 42 42 41 39 38 39 39 41 42 40 38 38 37 39 39 40 39 38 36 37 38 39 39 39 36 39 41 41 42 43 46 47 47 48
35 36 37 37 36 36 38 39 41 42 41 39 37 39 39 39 36 36 36 35 34 33 33 36 39 39 38 35 34 33 32 33 33 33 34 38 35 37 39 42 45 46 46
34 35 36 36 36 37 39 39 41 40 38 35 36 35 37 33 33 33 34 33 32 30 29 30 32 34 36 35 34 34 32 31 31 28 28 33 32 33 36 40 43 45 44
37 37 35 36 37 37 37 37 38 37 34 34 32 31 29 30 29 31 31 31 30 26 25 23 22 24 26 28 29 32 30 30 29 29 23 29 29 28 31 35 40 43 41

GFSMA_700_spd_003.txt.gz
Wind_Speed
23 24 26 27 28 30 31 31 31 30 29 28 28 29 30 29 29 29 30 30 30 28 25 23 25 31 32 32 31 34 35 34 33 28 28 27 27 28 28 27 26 25 23
22 24 25 27 27 29 29 29 29 29 29 29 30 30 31 33 33 34 35 35 35 34 31 28 26 27 31 33 34 36 38 37 36 36 31 28 28 30 32 30 30 29 27
26 26 25 25 26 27 28 28 28 27 27 28 29 30 32 33 35 37 38 39 39 39 37 34 31 29 29 33 35 38 41 42 36 40 41 37 32 31 32 33 32 32 31
25 25 25 25 26 26 27 28 28 28 29 31 31 31 32 34 36 38 40 41 42 42 40 39 37 35 33 30 37 41 44 41 42 38 36 40 37 36 35 36 36 36 36
27 25 24 24 25 26 27 29 30 31 31 31 31 31 32 33 35 37 38 40 41 42 42 44 43 40 39 38 35 42 45 46 47 44 46 36 50 45 41 37 39 40 40
31 30 29 29 30 32 32 32 33 33 33 33 33 32 32 32 34 34 35 35 36 37 39 40 41 43 43 41 41 42 41 44 44 47 51 52 49 48 63 57 47 44 43
36 36 33 32 32 36 36 38 39 39 39 36 37 36 35 35 36 36 36 37 35 35 36 38 40 40 39 42 42 41 44 47 48 44 47 51 57 58 56 49 55 60 37
39 39 39 39 40 42 42 42 42 45 44 41 41 43 46 43 41 36 37 38 36 33 34 36 38 38 38 38 39 41 41 41 46 48 48 50 51 55 59 60 60 55 47
37 39 39 42 44 47 49 48 47 46 48 47 43 44 48 51 45 41 43 41 40 36 32 34 38 38 38 36 37 39 39 41 41 43 48 52 52 54 55 57 60 59 65
43 43 43 43 44 46 49 50 51 51 49 51 53 49 54 52 53 48 46 48 43 41 37 34 37 37 35 34 35 37 38 41 42 43 43 47 52 54 58 56 57 57 53
44 42 45 48 51 50 50 53 56 56 54 52 56 56 58 57 56 52 52 50 47 45 42 40 43 43 38 37 38 40 41 42 42 43 45 45 47 52 55 57 61 57 55
46 49 51 51 51 52 52 50 53 55 55 54 53 56 59 58 57 61 53 56 55 54 50 47 47 49 45 40 41 44 46 46 44 43 43 45 47 47 50 54 52 49 54
53 52 51 52 52 53 53 48 45 44 42 42 44 46 53 60 52 63 61 62 59 60 59 56 55 53 50 47 44 47 50 50 47 44 43 44 47 48 46 47 49 47 45
50 51 53 53 50 45 39 35 32 33 32 33 38 44 53 49 50 53 49 48 45 47 52 54 49 48 49 51 49 47 49 50 47 46 44 43 45 49 51 48 45 44 46
49 49 49 46 39 35 31 33 28 31 30 36 34 40 42 38 39 42 40 39 39 42 42 43 45 46 50 52 52 50 49 50 47 46 46 44 45 48 51 52 47 45 44
50 43 38 34 32 33 32 35 37 32 31 36 38 38 38 37 33 34 42 40 40 41 45 42 43 45 45 47 48 49 47 45 46 46 46 47 45 46 50 51 52 48 45
40 32 29 28 32 33 41 29 30 34 32 36 36 35 33 32 33 34 35 37 39 41 44 44 46 47 46 46 47 48 50 48 46 48 48 48 47 44 46 47 49 50 49
34 29 29 29 34 35 39 35 34 33 32 32 32 33 33 34 35 35 35 37 39 41 43 45 45 46 47 45 45 46 48 49 46 46 48 48 51 50 48 44 48 49 48
32 30 28 32 33 33 35 37 37 36 32 30 33 34 33 34 34 34 35 36 38 40 42 45 46 45 47 45 44 44 46 47 45 44 45 47 50 51 54 54 49 49 48
32 31 31 34 36 37 36 37 37 36 36 36 35 34 33 33 34 35 36 37 38 40 42 44 46 46 46 47 46 46 46 46 45 44 46 46 47 50 53 54 58 58 52
32 36 37 36 37 39 39 38 37 38 38 36 34 33 33 33 33 35 38 37 39 40 42 45 48 48 47 48 48 46 48 46 46 44 44 43 44 47 50 52 53 55 56
38 38 35 34 34 35 36 36 35 35 35 36 36 34 35 34 34 36 36 38 38 40 42 43 42 42 41 42 42 43 44 45 45 44 45 44 42 42 44 48 50 51 50
32 31 31 34 35 35 36 35 35 36 36 36 36 37 36 35 34 35 35 36 37 36 37 37 38 37 35 33 34 35 36 36 35 34 39 43 43 44 43 44 44 48 49
31 34 37 37 37 35 36 36 36 37 36 35 35 35 35 34 33 33 33 32 32 32 33 35 35 33 31 31 34 34 34 34 33 31 30 35 36 39 40 43 44 46 48
37 39 38 37 37 36 35 35 35 35 33 33 33 33 33 32 29 28 29 30 30 29 29 30 29 29 29 29 30 32 34 34 32 30 28 33 33 33 35 38 42 44 46
39 37 35 36 35 34 34 34 35 35 34 33 32 30 28 27 25 25 28 29 32 30 28 26 26 27 25 24 23 25 27 30 30 29 25 31 31 29 31 33 37 41 44

GFSMA_700_spd_006.txt.gz
Wind_Speed
17 20 24 26 26 27 27 26 26 26 27 29 30 30 32 34 34 34 35 34 33 32 31 29 25 23 28 30 29 33 36 34 34 31 30 28 28 26 26 27 26 24 23
18 21 23 25 27 28 28 28 26 26 26 26 27 28 31 33 35 36 36 38 37 37 35 34 32 29 27 28 32 33 32 34 34 35 32 33 31 31 29 29 30 28 27
21 21 21 23 25 26 27 28 28 29 30 31 30 31 32 33 35 36 37 38 41 39 40 39 36 35 33 30 29 32 34 34 37 31 39 36 33 31 31 33 33 32 31
25 24 25 25 26 27 27 27 27 29 30 30 31 32 34 35 36 38 39 40 41 41 41 39 39 37 35 35 34 33 34 36 38 42 36 43 45 43 37 33 34 35 34
27 29 27 25 29 30 31 31 31 33 34 36 36 36 36 36 37 36 37 39 40 40 40 39 38 38 37 36 36 36 37 36 40 42 44 47 41 46 49 45 37 36 36
31 32 31 30 31 31 31 33 36 36 40 39 42 43 41 41 40 39 38 39 41 40 38 37 39 38 36 35 34 36 38 40 39 45 42 48 49 48 45 46 44 48 40
36 36 35 35 35 38 37 37 39 42 41 42 43 45 47 47 46 44 44 42 41 43 44 41 39 36 38 35 35 34 35 37 40 45 46 43 49 55 52 47 41 38 50
41 42 38 39 39 38 38 37 39 42 45 45 46 46 50 45 42 51 48 48 45 44 44 44 41 38 35 35 36 34 34 35 37 40 45 47 44 46 44 47 54 53 55
40 40 39 37 37 38 42 44 45 47 51 51 50 52 50 46 37 36 46 46 43 45 44 47 42 39 37 35 34 33 31 34 34 37 39 43 46 47 50 50 50 50 51
39 34 37 39 41 44 46 47 48 50 51 55 54 51 56 54 56 48 45 50 52 53 49 47 48 42 42 38 37 34 33 32 31 33 37 38 41 41 46 50 52 53 53
35 37 39 42 45 47 48 50 50 51 53 56 57 56 56 52 56 60 59 47 47 48 55 52 45 47 43 41 40 41 38 37 35 31 30 33 38 39 41 44 50 53 54
41 44 47 52 51 51 53 52 53 53 54 54 53 55 53 53 53 46 55 57 50 39 39 53 56 49 52 48 45 43 42 41 39 38 36 35 36 38 40 41 43 47 52
45 49 53 52 52 53 53 53 51 47 45 43 40 40 40 40 44 45 50 55 55 50 61 58 57 55 55 52 53 52 47 44 44 42 40 39 39 39 39 41 43 43 44
50 55 55 54 52 50 47 43 37 39 41 41 37 36 35 34 36 41 37 33 37 43 44 53 52 57 55 50 47 48 45 45 44 44 44 44 44 43 42 42 43 43 42
54 55 54 48 45 41 37 32 32 31 37 43 39 35 36 35 38 40 38 36 37 35 33 31 35 37 45 44 44 45 44 46 48 46 45 47 48 47 47 45 44 44 44
54 49 43 38 35 32 32 29 33 35 29 31 31 31 30 31 34 34 33 35 35 34 37 37 36 36 40 44 45 47 48 50 51 49 47 47 47 49 49 48 47 44 44
42 37 33 31 31 31 35 37 36 37 35 33 31 32 31 32 35 34 34 33 32 30 33 33 32 33 36 40 42 45 47 47 48 52 49 49 48 47 48 48 48 47 45
36 33 32 31 30 35 39 39 38 35 36 34 34 34 35 33 34 35 35 35 36 36 36 38 34 34 38 39 41 42 42 44 45 45 51 51 50 50 49 50 50 48 46
33 31 30 32 33 34 35 36 35 36 36 37 36 35 35 34 35 35 36 37 38 39 39 40 41 39 40 39 40 42 40 41 42 43 47 48 46 45 48 50 51 52 50
31 31 33 37 39 39 39 39 37 38 38 39 37 35 34 33 33 34 35 37 38 39 40 41 42 42 41 40 41 42 42 40 41 41 44 45 46 47 49 52 53 53 53
35 35 35 35 33 33 35 34 35 37 38 36 35 34 33 34 33 35 37 37 37 38 39 39 37 39 39 37 37 39 42 42 42 38 41 43 45 46 48 50 51 54 54
32 31 30 31 34 36 39 38 37 36 36 36 36 34 34 35 35 36 36 37 37 38 39 39 40 42 41 42 41 41 40 41 43 40 42 44 45 46 46 47 48 51 53
30 32 35 37 38 37 38 36 36 35 35 33 33 33 32 32 34 35 34 34 33 34 36 37 39 39 38 37 37 38 39 39 39 35 35 39 40 44 44 47 48 48 50
35 37 37 35 34 34 36 35 35 34 34 33 33 32 33 32 31 31 32 31 31 32 32 33 34 34 35 34 34 34 35 36 37 36 35 37 35 38 41 43 46 47 46
37 35 33 34 35 36 39 39 38 37 36 33 32 31 31 30 29 30 30 30 30 29 29 31 31 31 29 29 29 31 33 34 35 35 34 35 34 35 35 39 41 44 45
35 34 34 35 37 37 37 38 37 36 34 31 29 28 28 27 26 26 27 29 28 28 31 32 32 29 27 25 25 28 26 30 30 30 30 32 32 31 33 34 35 37 41

GFSMA_700_spd_009.txt.gz
Wind_Speed
20 20 22 23 25 26 27 28 28 28 29 28 28 27 27 28 29 31 35 38 34 33 33 33 31 29 28 25 23 26 26 33 34 33 35 33 33 26 26 26 26 25 24
20 22 22 21 21 23 26 27 27 27 27 28 28 29 29 29 32 32 31 37 36 36 35 34 33 33 32 30 29 27 28 31 37 33 32 32 37 34 29 28 28 28 26
20 21 20 20 21 22 26 28 29 29 29 29 30 33 34 33 33 33 33 35 40 38 38 39 36 34 32 32 32 31 31 30 34 35 35 37 38 39 37 31 30 29 29
24 23 22 22 24 27 30 29 30 33 34 35 37 38 37 38 39 40 40 38 37 40 42 40 38 38 36 33 32 33 34 34 31 36 35 36 39 42 42 40 36 34 32
26 27 27 27 29 32 33 30 29 32 36 37 40 41 43 45 45 43 44 44 42 41 39 45 41 36 36 36 33 32 34 36 37 34 38 42 46 29 41 42 37 34 34
31 33 35 37 35 35 37 35 35 34 35 37 37 40 43 44 49 51 49 49 49 49 45 42 46 41 38 35 36 33 32 35 39 38 38 40 42 43 40 43 45 48 38
37 39 41 45 43 41 38 35 33 33 35 35 41 43 44 43 46 49 49 50 49 49 52 51 49 41 46 41 38 36 34 33 34 38 43 41 42 43 46 50 47 48 43
41 44 46 50 43 40 36 35 35 38 39 40 44 47 51 50 49 46 45 46 48 48 49 50 50 47 42 42 44 37 37 36 34 33 37 42 44 43 44 48 51 52 52
45 47 46 45 40 39 39 39 41 44 47 45 45 47 46 49 46 40 37 49 46 48 50 49 50 51 46 41 43 40 36 34 36 36 35 36 40 42 45 47 46 48 44
48 45 44 42 41 43 44 46 48 51 51 53 54 53 50 50 50 53 48 42 42 44 45 48 43 55 59 53 45 46 42 37 34 34 34 36 38 39 40 43 45 48 46
44 45 42 43 43 45 49 53 55 54 55 57 55 57 56 55 46 51 54 48 49 49 46 45 35 49 55 52 48 49 46 41 39 36 34 34 36 39 41 41 42 44 46
47 47 48 49 51 52 57 57 57 59 57 56 55 53 54 52 49 49 51 52 54 48 41 41 43 42 49 49 48 50 52 48 43 42 38 36 35 35 38 41 42 42 43
51 52 53 52 54 58 58 57 50 49 45 43 46 41 39 40 41 41 41 42 46 52 40 39 42 37 25 36 42 47 54 51 44 43 42 38 38 37 34 35 37 40 42
52 51 52 55 56 56 48 43 42 42 40 34 35 36 40 41 40 40 33 35 41 44 50 42 53 39 34 27 33 49 51 53 46 42 43 40 41 40 37 35 35 35 37
49 52 54 52 47 42 43 39 36 35 34 36 37 32 32 32 31 29 29 34 40 39 37 43 38 33 31 27 28 38 46 44 44 42 39 38 39 41 43 39 38 36 36
52 50 48 41 37 37 36 35 35 36 39 38 39 34 29 29 28 25 27 29 30 36 35 34 37 38 38 32 18 27 37 39 40 39 40 39 40 42 43 44 43 41 40
49 44 40 34 32 33 33 34 36 38 38 35 33 31 31 30 30 29 28 27 27 27 31 30 26 29 33 36 38 39 41 44 44 44 46 45 44 45 46 46 46 46 46
41 30 32 30 30 33 33 31 30 31 36 34 31 31 33 31 34 34 33 33 31 31 32 33 30 32 32 33 33 34 32 30 34 34 40 47 47 46 47 47 47 48 49
41 37 37 31 34 37 38 39 36 33 33 32 34 35 38 38 38 37 37 36 33 30 31 32 33 30 31 31 32 32 33 34 32 30 35 41 45 46 45 44 45 47 48
39 38 35 33 33 33 33 33 33 35 36 34 33 35 34 33 33 34 34 35 36 37 37 38 38 36 34 31 32 32 33 33 34 29 31 35 39 44 48 47 49 52 53
37 34 32 31 32 34 32 39 37 37 37 36 37 35 31 31 36 34 35 37 37 38 38 39 39 36 29 27 28 28 31 31 31 31 34 36 37 39 43 45 46 47 49
30 30 32 32 31 28 34 36 34 36 36 35 35 36 34 33 34 36 34 35 36 37 38 39 39 41 38 36 38 38 38 39 41 39 39 40 41 41 41 41 40 42 49
28 28 27 27 29 31 36 37 37 37 38 37 36 35 34 32 33 34 34 35 35 33 34 35 38 37 38 36 38 39 39 39 40 38 37 38 31 35 38 41 43 45 47
27 27 28 31 34 34 40 42 41 40 40 37 35 33 32 32 30 31 31 32 33 32 32 32 32 32 35 34 35 36 38 39 39 38 36 38 34 36 35 37 39 41 45
28 29 32 34 37 38 40 41 40 38 36 33 31 29 28 28 28 28 31 31 31 30 28 29 30 31 30 30 30 33 35 36 36 34 31 34 34 36 34 35 35 35 38
30 36 33 37 39 40 39 37 35 35 34 32 29 27 25 25 25 26 27 27 28 27 28 28 29 31 32 31 30 32 29 30 30 29 25 27 27 29 31 32 30 30 34

GFSMA_700_spd_012.txt.gz
Wind_Speed
24 26 26 27 26 23 22 22 23 25 27 28 28 27 25 24 24 23 27 29 32 28 28 27 26 27 29 29 27 25 23 23 24 28 33 25 28 26 22 26 27 27 24
24 22 22 22 21 18 18 22 27 28 27 27 26 28 29 28 27 30 30 32 30 32 31 32 31 29 28 27 28 29 27 25 27 31 36 33 28 36 32 28 27 28 28
24 24 24 24 25 26 28 31 31 32 31 31 32 34 35 33 33 31 29 32 34 33 34 32 32 32 31 30 29 28 29 29 29 29 33 37 33 37 40 42 34 30 29
30 27 26 27 28 29 31 34 34 33 33 32 32 33 36 37 37 38 40 36 35 37 36 37 35 33 31 31 31 30 29 30 31 32 31 36 38 37 40 45 41 34 30
33 33 33 33 34 36 38 36 35 37 39 37 36 35 34 35 38 41 44 45 44 47 50 44 41 39 36 33 32 30 30 30 32 34 36 35 38 39 35 43 44 36 37
38 40 41 43 41 43 44 45 40 40 38 38 38 37 35 36 36 37 41 44 49 49 48 53 50 47 44 37 36 34 32 30 31 34 37 39 38 39 39 46 41 43 39
42 42 44 46 42 49 46 44 44 42 39 38 40 40 40 39 39 40 41 43 44 47 48 47 50 49 48 46 39 35 37 35 31 32 36 40 41 40 39 37 37 40 48
43 49 48 52 54 45 45 44 42 42 42 39 41 45 50 48 45 44 43 43 39 40 45 49 50 47 49 48 46 36 31 34 34 33 34 38 40 42 41 40 38 43 44
56 47 44 45 45 44 42 43 45 45 47 45 45 49 51 53 54 50 46 44 41 36 42 48 48 48 50 52 51 46 34 29 32 35 35 36 39 41 41 44 44 43 48
45 44 42 44 44 46 47 48 48 50 52 52 53 54 52 53 57 60 54 52 47 47 44 38 44 45 51 52 57 52 47 42 34 35 37 36 36 39 40 41 44 48 48
47 46 48 49 49 50 49 50 52 53 54 56 57 56 54 49 46 50 59 59 56 52 51 53 46 45 34 42 48 51 50 46 39 34 35 38 38 37 39 41 42 44 47
52 50 51 50 50 50 51 52 54 55 55 53 51 48 47 49 49 42 40 48 51 50 50 56 52 55 61 54 38 38 43 48 42 40 34 35 38 38 39 41 43 43 45
48 47 48 49 52 54 56 56 53 48 44 41 41 41 41 39 38 35 41 40 46 47 43 41 54 65 62 44 39 37 38 41 44 43 39 34 36 41 40 42 43 44 44
45 48 51 52 53 53 53 50 43 40 38 39 38 36 35 36 36 36 36 33 33 34 39 34 41 46 49 43 42 44 35 30 39 40 40 38 39 39 43 42 43 43 43
45 47 49 52 51 50 45 41 38 39 39 37 33 32 35 34 33 27 26 21 24 29 28 31 36 40 46 35 36 38 36 38 39 42 44 44 43 39 43 42 43 44 42
48 49 50 49 46 37 35 34 35 35 33 31 27 27 26 26 25 25 25 28 26 28 32 28 26 25 32 35 31 32 35 29 33 39 36 34 35 38 39 41 43 45 45
48 48 45 41 37 37 36 38 38 35 33 31 27 27 28 29 28 29 30 29 30 30 33 34 32 29 25 24 22 31 35 38 38 35 37 33 33 35 37 38 39 41 44
48 46 43 41 39 37 35 33 34 34 35 37 38 28 31 31 35 35 37 39 39 39 36 37 37 37 34 31 32 29 30 35 38 38 41 40 41 40 42 42 43 42 43
46 41 39 36 34 33 33 33 33 34 35 34 34 37 37 35 38 37 36 37 39 37 38 40 41 38 36 33 31 34 36 37 38 36 37 37 38 37 39 41 44 45 46
42 39 34 33 33 34 34 34 33 32 32 34 35 35 35 36 35 34 34 33 34 34 33 35 36 36 34 32 31 30 32 31 34 36 35 35 35 36 39 41 42 45 47
40 38 35 33 33 32 30 33 33 33 34 37 37 36 35 34 35 37 36 37 42 37 37 36 37 36 36 33 29 25 26 27 29 27 31 35 37 39 40 41 41 41 44
39 36 35 35 33 33 36 38 38 38 39 40 41 38 36 36 34 31 31 32 37 36 33 33 34 36 35 34 34 34 36 37 38 34 36 35 35 35 36 38 40 38 40
34 37 34 36 37 36 38 42 42 42 43 42 40 37 35 34 33 32 33 34 34 33 32 29 31 31 33 31 32 34 35 40 42 42 42 44 40 38 38 41 43 44 44
38 32 34 37 41 37 39 42 44 41 38 38 36 33 31 29 28 30 32 33 32 31 32 34 34 30 31 30 32 32 35 38 39 38 36 39 34 33 33 34 36 38 40
31 32 35 39 39 40 42 42 41 39 37 35 32 29 27 25 24 25 28 29 29 28 30 31 31 30 29 28 28 31 32 33 34 32 29 32 30 31 31 31 31 34 35
29 37 41 33 36 41 40 39 40 38 37 35 31 25 22 21 22 20 22 22 25 25 26 26 27 27 28 28 28 30 32 34 31 30 24 29 28 25 28 27 27 28 29

GFSMA_700_spd_015.txt.gz
Wind_Speed
26 24 25 25 23 23 22 21 23 25 26 27 26 25 24 23 23 23 23 22 22 22 20 18 18 20 20 22 24 25 25 25 25 24 26 33 38 38 41 28 24 27 26
24 24 25 23 22 23 23 25 27 29 29 27 26 29 31 30 27 25 27 27 25 24 24 21 20 19 20 21 22 24 25 27 27 25 27 27 33 42 31 36 29 35 30
28 29 26 24 26 28 28 29 30 31 32 31 31 32 34 33 33 35 33 33 31 27 25 26 25 24 23 22 22 22 25 26 28 30 28 29 32 34 29 40 30 35 33
32 32 32 32 35 35 34 36 36 38 36 36 35 34 34 36 37 36 35 35 37 36 34 34 33 30 26 25 24 23 22 25 28 30 32 31 32 32 32 32 38 36 35
35 34 35 39 42 43 43 43 41 44 40 38 38 38 35 36 37 36 35 35 37 39 41 42 41 40 37 32 29 27 26 24 25 29 33 34 34 34 35 38 43 46 44
42 41 44 48 50 50 47 44 42 40 40 41 41 40 39 37 38 39 38 37 38 38 40 42 43 42 39 37 35 30 29 27 26 27 30 35 36 36 36 39 43 42 53
38 48 47 49 51 45 43 40 42 43 43 41 44 44 44 43 42 42 41 42 42 42 41 36 37 43 39 38 40 39 31 29 30 29 29 32 36 38 39 38 41 44 40
50 51 45 45 47 46 43 40 41 44 45 44 46 49 52 48 47 47 46 43 45 46 45 43 41 43 44 49 47 43 41 32 27 31 30 31 33 36 39 41 41 40 44
48 47 47 47 45 47 47 46 45 46 48 46 47 48 51 54 56 48 48 49 48 48 47 44 44 45 45 37 39 39 43 42 36 30 33 30 30 33 36 39 42 43 40
49 50 50 50 50 47 47 47 47 47 47 48 47 47 47 51 53 60 56 51 51 52 54 50 48 52 51 52 45 45 48 42 45 37 35 36 32 30 32 35 37 40 44
47 47 47 46 45 45 46 47 48 49 50 50 48 47 48 47 46 47 56 55 51 50 51 54 56 52 54 51 51 48 55 47 45 44 40 41 38 36 34 34 34 38 40
46 46 45 45 47 48 48 47 48 49 49 47 42 44 45 45 46 40 47 45 45 43 39 42 48 54 55 56 51 52 49 56 51 53 46 46 42 41 38 37 36 36 38
45 44 44 44 45 46 48 50 50 47 48 42 40 39 39 39 38 37 36 38 37 33 35 35 37 39 46 51 58 50 44 49 51 51 54 48 44 43 42 41 40 39 39
45 44 44 47 49 50 49 48 45 42 39 38 37 41 41 35 32 31 30 31 34 34 29 29 25 24 36 44 43 48 63 41 35 48 47 49 46 46 44 42 41 40 42
44 44 46 48 47 46 45 41 40 39 40 41 38 35 30 28 25 25 25 23 22 29 30 28 25 20 22 31 30 39 29 32 48 54 54 49 50 45 43 41 41 41 43
46 46 46 47 46 44 41 38 35 37 38 37 35 33 32 30 26 24 25 29 29 31 34 32 30 27 25 24 22 25 36 30 34 37 40 43 39 39 41 41 41 45 48
49 49 47 49 48 45 41 37 35 34 34 34 34 33 31 31 34 34 34 33 30 29 37 38 37 35 33 28 25 23 22 25 28 36 36 35 38 36 38 45 42 45 47
43 44 48 47 44 40 36 34 34 35 34 33 31 31 32 33 35 36 37 37 39 42 41 42 45 44 39 35 31 30 27 27 29 26 28 30 33 34 37 38 41 44 44
37 44 44 41 41 37 37 35 34 30 29 31 32 33 35 36 37 38 40 37 38 37 35 39 43 42 38 34 32 30 30 34 33 33 32 34 39 41 43 41 40 41 43
36 38 39 39 43 39 34 31 32 32 33 34 36 37 38 38 38 37 37 38 38 38 41 39 37 37 36 31 30 31 30 31 33 36 39 38 38 39 41 42 39 43 45
34 37 38 36 45 39 31 34 37 37 40 42 42 42 41 40 38 36 37 36 35 37 38 38 39 34 34 32 30 29 32 31 29 31 35 39 41 39 39 41 42 42 44
35 38 33 41 42 32 36 40 44 44 45 45 44 41 39 36 34 33 34 36 37 38 37 37 34 31 27 28 28 31 32 30 30 28 29 30 31 31 35 40 41 40 39
35 35 35 40 32 36 41 43 45 47 44 41 41 40 37 33 32 31 31 32 33 36 38 38 38 32 28 25 28 28 30 33 35 32 35 37 35 34 32 33 35 38 39
33 34 37 34 34 38 39 42 43 42 43 40 38 35 33 31 29 28 28 28 27 29 32 35 35 31 30 26 28 29 30 33 35 34 32 38 34 37 36 37 40 43 44
33 38 34 31 32 34 39 42 42 43 41 37 33 29 26 25 23 22 24 25 24 23 25 27 28 28 29 27 26 27 27 29 30 27 28 34 31 34 35 38 39 40 41
36 33 30 30 31 36 40 42 42 44 39 31 26 24 23 22 21 18 22 21 23 22 24 24 24 25 26 25 25 26 26 28 28 27 22 31 28 29 31 30 30 32 35

GFSMA_700_spd_018.txt.gz
Wind_Speed
24 29 30 28 29 27 24 26 29 28 25 24 26 26 26 27 27 27 26 24 22 21 19 18 17 18 20 21 23 24 25 26 26 26 25 26 27 31 32 29 32 29 29
26 33 32 30 29 28 27 31 33 33 32 32 29 30 30 31 31 32 33 33 31 27 23 21 18 19 20 22 23 25 27 28 29 29 29 27 26 30 34 33 34 37 31
30 34 34 36 35 35 36 38 39 41 40 39 42 38 35 34 33 34 36 37 37 35 32 28 25 22 21 20 21 23 26 30 30 31 31 31 29 28 35 36 39 41 34
34 35 35 36 36 39 44 44 46 46 46 43 41 40 37 35 34 35 35 36 37 38 38 37 33 31 28 24 22 22 24 28 30 33 33 32 33 31 32 37 32 32 37
37 36 35 38 41 44 44 42 43 46 43 42 43 39 36 35 36 36 37 37 38 40 41 41 40 38 35 32 28 27 25 25 28 31 33 35 35 35 33 34 35 36 41
34 34 37 42 49 45 45 45 42 41 42 44 46 44 42 40 38 39 40 41 43 43 43 42 42 43 43 39 33 30 28 27 25 29 33 34 35 36 36 36 36 41 48
37 41 48 47 47 47 49 50 49 47 48 46 50 49 47 42 42 42 43 45 46 47 48 47 46 44 43 42 42 40 38 32 29 27 31 35 34 34 37 38 38 41 47
40 44 44 45 49 51 50 48 47 47 46 46 49 50 53 49 45 45 43 46 48 49 50 51 49 46 44 41 41 40 41 37 42 32 28 32 37 37 36 38 40 41 44
43 47 50 53 51 48 47 46 45 44 45 45 45 48 51 53 54 49 47 48 49 49 50 51 51 49 47 45 42 41 45 36 38 41 38 30 31 39 38 38 39 42 43
47 50 50 49 48 47 45 45 45 45 46 46 46 45 47 49 53 59 55 51 49 49 50 52 54 53 50 48 48 48 46 44 38 39 41 39 34 35 39 39 39 40 43
50 52 52 50 48 48 49 49 48 47 47 48 49 48 48 48 47 49 59 56 51 44 45 47 51 52 53 52 49 51 52 36 43 46 47 46 41 39 39 39 38 38 39
57 55 52 48 48 47 46 47 49 52 52 52 50 48 46 45 45 42 45 49 46 42 35 34 38 42 45 46 48 49 51 51 36 47 51 54 49 45 45 43 43 40 38
59 50 44 45 45 48 48 49 50 50 52 49 45 43 40 39 38 40 43 39 40 34 32 29 31 32 33 37 42 43 43 47 53 52 51 50 56 53 51 50 46 45 41
48 44 42 45 47 48 49 47 46 48 46 45 42 41 41 37 34 32 31 30 32 32 29 28 26 27 27 27 30 37 40 38 40 42 43 54 65 63 57 55 50 47 45
39 43 43 47 43 41 42 45 49 48 45 41 37 35 30 28 25 25 29 31 26 32 35 28 26 29 30 27 26 26 31 35 37 39 52 43 49 61 58 57 54 51 48
47 47 46 44 46 46 42 43 44 44 41 38 35 33 32 31 29 28 33 34 39 32 32 36 36 36 33 27 27 26 22 23 28 31 38 46 47 48 52 58 60 56 51
50 46 53 50 33 35 36 37 37 36 36 34 31 29 29 31 33 33 34 35 38 42 43 39 36 35 37 36 31 28 28 28 25 22 26 38 46 58 60 53 56 57 55
48 48 47 32 26 32 37 35 33 31 30 29 31 34 35 36 37 38 39 39 40 41 43 45 45 44 39 38 39 42 36 31 29 29 22 25 39 45 53 53 55 56 54
46 49 34 26 29 35 38 34 28 30 32 33 35 37 39 40 41 41 41 42 42 41 41 42 42 41 37 36 40 41 38 35 33 33 32 26 25 28 27 31 34 32 35
41 42 41 33 34 37 38 31 32 34 36 38 40 42 44 44 43 42 42 42 43 42 41 41 41 41 41 37 35 33 34 37 35 35 37 36 32 31 30 28 28 30 35
40 24 27 31 35 38 34 34 36 37 39 42 44 43 43 43 43 42 40 38 37 38 38 38 39 39 38 35 34 32 32 34 32 32 37 39 39 38 39 38 38 39 38
36 26 31 34 32 38 34 36 37 39 44 45 43 43 43 42 40 38 36 33 35 36 36 36 38 38 38 32 28 28 30 32 33 31 34 37 39 40 42 42 40 40 42
26 27 30 32 35 35 36 36 40 43 44 43 45 43 40 36 33 31 30 29 29 31 33 34 37 37 35 32 30 28 28 31 33 30 35 36 38 40 39 39 40 42 45
24 26 31 29 31 33 34 37 40 43 42 43 38 33 34 32 29 27 25 23 23 24 27 29 32 31 32 30 29 27 29 31 32 29 32 35 35 39 37 38 38 40 42
24 24 26 29 30 30 34 37 42 42 42 36 30 29 31 30 27 25 23 23 22 20 22 23 25 27 27 27 26 26 26 29 30 26 28 34 32 37 41 42 43 43 43
24 24 27 30 29 31 35 38 42 43 39 31 27 27 27 25 23 21 21 23 21 18 20 22 23 25 24 23 24 24 23 26 26 25 23 32 27 30 33 33 36 39 42

GFSMA_700_spd_021.txt.gz
Wind_Speed
23 23 27 29 30 29 29 29 29 32 32 33 34 32 31 33 35 36 34 31 28 25 25 24 24 24 26 27 27 27 28 29 29 29 28 27 27 27 27 29 28 28 34
24 26 31 33 34 32 32 33 36 39 39 40 39 38 38 39 39 39 40 38 37 34 31 28 26 27 26 28 30 30 30 30 31 32 32 31 30 29 29 31 32 31 29
26 28 36 37 36 36 38 40 42 43 42 43 42 41 38 37 38 39 40 40 41 39 38 36 33 30 29 29 29 31 33 33 34 35 34 34 34 33 31 29 35 33 32
31 32 39 38 36 39 40 46 47 44 45 43 41 39 39 37 38 39 41 41 42 43 41 40 40 39 36 34 33 30 31 34 36 36 36 35 35 35 33 32 33 35 34
34 39 39 38 39 41 47 51 50 53 49 48 48 46 43 41 42 43 44 44 45 45 45 43 43 42 42 41 38 37 34 32 34 37 38 38 37 37 36 36 35 34 39
36 34 35 42 45 47 52 53 54 53 54 57 56 54 50 45 44 46 46 47 48 48 49 49 48 46 45 45 45 44 40 39 35 36 39 41 39 37 38 38 39 37 37
36 41 40 45 48 52 55 56 58 56 53 52 53 52 49 47 45 46 46 47 47 49 50 52 53 53 50 48 47 48 48 45 42 38 38 42 44 42 39 39 41 42 39
38 41 44 47 50 54 55 53 51 50 50 50 52 52 55 53 51 48 48 47 49 49 48 50 52 53 53 52 50 49 48 49 48 44 43 40 44 45 43 40 41 42 45
40 44 47 51 53 53 55 52 48 48 48 46 45 47 50 54 56 51 48 50 50 50 49 50 52 53 52 52 52 51 50 48 48 46 42 43 42 45 45 46 43 42 44
44 48 52 49 47 56 55 49 47 47 47 49 49 48 48 49 54 62 59 55 52 51 53 54 54 55 54 52 49 51 51 50 49 48 46 46 43 42 45 47 46 44 43
50 47 50 54 64 56 52 50 47 48 51 51 51 50 48 50 52 53 60 61 56 47 42 44 47 51 52 51 50 47 49 51 51 51 49 48 43 46 44 44 46 44 45
53 57 56 55 55 47 42 41 43 43 44 44 44 48 51 55 60 53 50 51 48 44 39 28 30 37 40 40 41 42 42 44 49 52 53 50 49 50 47 45 48 44 42
48 49 44 42 43 47 46 47 42 41 44 47 47 45 45 47 48 45 42 40 39 37 33 27 26 31 35 35 34 34 34 34 39 45 52 55 45 51 53 48 48 48 45
44 45 46 48 48 49 40 44 40 40 39 45 44 39 39 39 38 35 28 24 28 30 32 32 29 25 27 29 28 27 29 31 29 33 42 53 58 44 48 46 51 53 53
46 49 51 46 40 44 47 41 40 38 41 45 45 40 39 36 36 37 34 37 41 36 34 32 30 31 27 24 24 27 29 28 25 25 32 41 48 61 59 53 50 52 56
50 52 54 45 44 43 40 29 31 37 41 41 38 35 33 32 33 35 35 35 38 42 46 43 41 37 33 33 30 30 32 30 27 23 23 31 39 46 47 48 51 54 60
54 55 49 45 41 31 30 31 31 38 39 35 31 33 33 35 37 39 39 39 40 39 44 44 44 44 43 40 35 34 35 36 34 29 25 28 34 37 39 44 45 50 65
58 53 48 42 34 41 31 30 35 41 36 32 34 36 36 38 41 43 44 44 44 43 44 45 42 42 43 42 42 40 37 38 38 35 34 31 24 30 35 44 45 50 51
47 45 44 37 29 25 28 34 36 38 36 36 36 38 42 44 44 44 43 43 43 42 43 45 44 42 42 41 39 37 37 42 44 42 39 38 35 22 26 33 42 50 45
41 38 32 27 28 27 31 35 38 37 36 36 39 43 45 45 46 47 46 43 41 40 39 39 40 40 39 39 38 36 35 36 37 41 40 37 39 36 29 27 24 28 47
36 31 31 28 30 33 34 37 38 36 36 40 42 44 45 47 46 43 41 39 37 37 35 36 35 35 35 36 35 34 34 32 33 34 35 36 37 37 36 34 31 26 27
30 29 25 26 27 31 35 36 35 36 39 42 44 45 44 41 38 35 35 33 31 32 33 32 32 31 31 32 32 32 32 30 30 29 32 33 37 38 37 38 36 35 29
26 22 25 25 28 30 32 33 34 37 39 42 44 43 39 36 36 35 33 31 29 27 28 28 28 28 29 30 30 29 28 29 29 27 31 32 34 36 37 38 39 37 36
25 25 24 24 26 29 31 33 35 37 40 42 41 36 34 34 33 32 30 28 24 22 22 23 24 24 24 25 28 28 28 29 28 26 29 30 32 36 38 39 37 35 35
24 23 23 24 27 29 30 33 36 37 40 41 34 30 31 31 30 28 27 26 23 20 21 22 22 21 21 22 21 22 23 25 25 23 27 30 29 35 38 39 40 39 38
23 21 23 26 28 28 30 33 35 37 40 39 30 27 29 29 28 26 25 24 22 19 18 19 21 21 21 20 19 19 20 21 22 24 23 30 26 33 38 39 39 40 40

GFSMA_700_spd_024.txt.gz
Wind_Speed
18 21 23 24 26 30 30 30 31 33 34 34 33 33 36 36 36 35 35 36 34 34 33 33 31 29 29 29 30 31 31 32 33 34 32 30 30 29 28 28 29 29 30
19 23 29 29 30 34 34 34 38 37 40 39 38 40 40 38 36 35 36 35 36 37 37 36 36 35 33 32 32 34 34 35 36 36 37 36 35 32 30 30 30 29 31
23 27 30 30 33 34 35 40 43 44 45 45 46 44 42 39 41 42 40 40 39 38 39 40 40 39 37 36 34 34 36 38 38 39 39 39 40 38 35 33 32 32 33
28 30 33 33 35 34 35 44 47 48 50 51 50 48 47 45 46 46 47 47 46 45 44 43 42 43 44 42 39 38 37 38 40 41 42 42 41 42 42 38 35 35 33
32 28 39 29 36 41 45 47 50 53 55 56 56 55 48 43 43 43 43 44 46 47 47 48 47 47 47 47 48 44 41 40 39 41 44 45 45 44 44 43 41 39 35
30 38 36 40 46 49 50 53 54 55 57 58 56 56 53 47 45 44 43 43 44 46 47 49 50 51 51 50 50 51 49 45 43 40 41 43 46 47 46 46 45 43 41
37 39 41 43 47 49 51 54 56 57 56 55 56 56 55 52 49 44 44 44 44 45 46 48 50 52 52 53 52 52 54 53 49 46 44 43 44 47 47 47 46 45 45
35 37 40 44 47 50 53 56 56 57 59 60 57 54 52 53 52 48 47 46 48 49 50 50 49 50 51 52 53 53 54 55 55 52 48 46 46 46 48 48 49 48 47
40 45 49 52 54 55 57 58 57 54 54 47 44 43 45 48 48 46 41 41 43 45 46 48 52 54 54 53 51 53 55 54 56 55 53 49 49 47 46 44 47 50 49
48 51 52 54 54 55 56 56 52 48 45 45 45 42 41 44 48 54 53 51 48 46 48 49 52 52 56 59 57 54 53 54 55 55 55 54 52 49 49 48 46 46 48
47 48 51 52 52 52 51 48 48 49 50 51 47 46 42 44 47 52 54 51 50 48 48 44 40 43 48 54 55 54 52 51 52 54 55 55 55 52 49 49 48 46 46
45 48 48 48 48 49 50 50 47 44 43 45 47 46 49 48 45 46 50 49 43 36 37 38 29 30 34 37 40 42 40 40 43 49 53 55 56 53 50 53 53 46 46
45 46 47 50 51 51 51 47 44 43 45 43 45 41 42 44 44 43 46 44 41 34 33 29 30 30 27 32 33 33 33 31 30 34 44 52 56 57 56 56 52 51 47
50 50 51 53 53 53 50 46 47 36 33 32 34 38 40 42 41 37 37 38 40 36 33 38 31 29 27 26 28 31 31 30 28 27 30 38 50 55 60 59 56 53 53
50 51 53 53 51 47 42 44 38 28 31 34 37 40 38 35 35 35 35 35 38 44 40 34 36 41 38 34 30 26 28 29 27 26 26 28 37 49 54 60 59 57 53
50 52 49 47 44 42 39 34 34 34 29 33 38 39 37 38 38 38 38 38 38 41 48 43 39 39 39 41 40 37 33 33 31 29 28 27 28 36 46 48 55 58 50
48 47 47 46 43 40 31 38 35 30 32 36 40 40 38 38 38 38 40 42 43 42 46 46 45 41 40 41 41 39 38 40 36 34 33 32 29 29 36 42 44 54 63
46 46 43 39 36 31 25 27 30 32 36 38 41 38 37 39 41 43 45 44 43 43 45 46 42 40 39 41 41 42 36 34 41 39 39 39 34 32 30 33 36 42 43
45 41 37 36 30 28 32 29 34 36 38 40 37 37 40 43 45 45 46 45 42 41 40 41 40 37 37 36 39 40 38 33 34 38 42 39 40 37 33 28 31 38 39
41 38 35 30 28 25 27 32 34 37 37 36 37 40 42 45 46 45 42 39 37 36 36 35 33 33 34 32 34 36 35 34 33 33 35 40 45 44 38 31 27 31 38
39 35 33 28 24 27 30 31 34 33 34 35 38 40 43 45 42 38 37 37 37 37 35 33 30 29 31 28 28 28 31 30 30 30 31 34 37 42 41 37 36 28 31
36 33 28 26 28 28 30 30 31 32 34 37 39 41 44 40 34 34 35 35 34 32 31 29 28 26 25 27 26 21 25 28 28 26 28 28 33 33 35 35 36 33 30
34 30 27 25 27 27 27 29 29 31 34 36 38 42 41 34 33 35 33 32 30 27 26 26 24 25 23 20 22 25 28 26 25 25 29 26 27 29 31 32 33 34 33
31 28 25 25 24 25 27 28 30 32 34 36 38 41 37 32 32 33 33 31 29 26 23 22 24 22 22 19 17 21 24 27 26 24 26 24 24 26 31 31 31 32 32
29 26 24 23 23 25 27 28 30 32 34 35 37 39 35 31 31 31 32 30 27 24 20 19 21 23 20 19 19 19 18 20 20 19 23 24 21 24 30 33 33 33 30
26 24 23 23 24 25 26 28 31 33 34 35 35 36 32 29 30 29 28 27 26 22 19 16 16 17 16 14 16 18 16 17 16 17 19 20 21 25 29 31 32 33 33

GFSMA_700_spd_027.txt.gz
Wind_Speed
15 16 18 21 23 26 28 31 31 29 34 34 34 34 34 35 35 34 32 31 31 31 32 32 33 34 34 33 32 33 33 32 34 35 35 35 33 31 30 32 31 29 29
17 18 21 23 26 29 31 29 35 35 40 41 39 40 41 42 43 42 40 40 39 39 38 37 36 35 37 38 38 37 35 36 35 35 37 37 36 36 35 34 33 32 29
19 21 25 28 31 35 38 35 38 40 47 45 45 46 46 48 49 47 44 43 42 42 42 42 42 42 41 41 41 41 41 38 39 39 38 39 40 38 38 37 35 35 35
23 25 34 34 34 36 34 42 43 46 47 49 49 50 50 52 51 49 47 45 44 42 41 42 43 43 43 44 45 44 44 44 43 42 42 41 40 41 41 40 38 38 37
24 32 33 39 39 39 43 44 47 49 52 53 54 55 52 51 49 48 49 50 50 49 49 48 46 45 46 46 46 48 49 48 47 47 45 45 43 40 39 41 41 39 39
31 32 34 35 38 41 45 47 49 52 54 56 55 56 55 54 53 53 53 52 50 50 50 50 49 48 48 49 50 49 50 53 54 51 49 47 47 45 43 39 39 41 41
29 33 36 38 40 43 45 48 49 50 52 55 56 56 54 53 52 50 50 50 51 50 50 49 50 53 53 51 50 53 53 53 54 56 53 51 49 48 47 45 45 44 40
32 36 39 41 45 47 49 51 53 55 55 56 55 55 53 51 51 48 48 48 48 47 48 47 48 50 51 52 53 54 54 55 55 54 57 54 52 51 49 49 47 46 45
37 40 42 45 48 50 51 52 53 54 54 53 52 49 48 50 51 46 43 43 42 42 43 45 47 51 53 55 54 52 54 56 55 54 53 57 54 53 53 52 50 47 46
40 43 46 47 48 49 49 49 50 50 50 48 44 41 38 42 43 47 45 48 45 39 37 38 42 46 50 52 53 52 52 55 56 55 53 52 55 54 54 54 52 50 49
41 43 44 45 46 46 47 49 49 49 47 43 44 42 40 40 40 43 46 45 44 43 45 42 41 40 37 36 37 42 48 50 52 53 54 54 52 54 55 54 54 52 50
41 42 43 46 48 48 49 49 48 46 44 42 39 36 33 33 37 43 45 45 44 42 41 39 35 34 32 28 31 33 35 36 33 39 45 51 54 54 55 55 53 54 55
44 46 46 47 48 48 49 48 46 43 40 39 38 30 36 39 40 41 40 41 42 39 37 34 32 33 36 29 27 31 31 33 33 30 31 37 46 52 53 56 55 56 56
45 46 47 47 47 47 46 44 40 36 32 31 32 36 34 35 38 38 39 41 44 44 43 41 34 33 33 38 39 32 32 31 32 30 28 30 34 42 47 50 55 57 46
46 46 46 46 45 43 41 37 34 30 31 34 32 31 34 37 41 40 39 39 41 47 47 43 42 38 36 36 36 37 40 35 31 31 29 28 28 31 36 41 47 55 52
44 44 44 44 42 40 35 34 30 27 31 28 32 35 38 41 40 36 37 40 42 45 52 46 45 42 39 39 38 37 37 41 42 37 33 29 26 26 28 30 37 48 59
45 45 45 43 40 37 34 30 25 29 28 30 35 38 40 40 37 38 40 43 45 45 49 45 44 42 40 41 39 37 38 38 39 40 41 39 34 29 27 27 27 34 45
46 46 44 40 37 34 31 27 27 29 30 34 36 39 38 38 39 40 43 45 46 44 43 42 38 37 36 35 37 37 36 37 38 37 38 42 42 36 30 29 29 27 31
46 45 41 38 34 31 30 26 26 29 33 34 36 36 37 38 39 42 44 43 40 38 38 40 38 36 35 33 33 34 35 34 36 36 36 37 39 42 37 33 30 30 25
45 42 38 33 31 28 24 25 29 30 31 33 33 35 37 38 41 43 39 35 35 37 37 36 35 33 31 28 26 27 28 30 31 33 35 34 36 37 40 36 33 28 26
44 40 35 31 28 26 27 26 28 28 30 30 32 34 35 37 40 37 34 34 35 35 35 33 32 30 27 24 25 25 24 22 23 25 30 31 33 34 36 38 38 35 29
42 37 33 29 26 26 26 27 25 27 28 31 33 34 35 37 38 33 31 33 34 34 32 30 29 26 26 22 22 21 22 20 25 23 25 27 31 32 32 31 33 33 31
38 34 30 28 24 24 23 24 25 26 28 31 34 35 34 36 36 33 31 33 32 29 27 27 27 26 24 22 20 17 18 22 24 25 25 28 28 28 27 27 28 29 31
35 32 28 25 23 22 23 24 24 26 29 32 34 34 34 36 34 31 31 32 28 26 25 24 21 20 20 23 23 18 17 19 28 28 26 26 24 24 25 25 26 25 28
33 30 26 24 23 22 23 24 24 27 29 31 31 31 33 34 32 29 28 27 27 26 24 22 20 18 18 17 17 19 19 15 15 16 21 23 21 22 26 25 26 27 26
32 28 25 24 22 22 22 23 25 28 29 30 30 30 31 32 29 25 25 26 27 27 23 19 15 15 13 11 11 14 15 17 16 13 15 17 18 21 22 23 24 26 26

GFSMA_700_spd_030.txt.gz
Wind_Speed
14 14 15 18 20 24 27 28 32 33 34 34 34 36 36 36 35 35 37 37 34 33 33 33 35 36 37 36 34 32 31 32 34 34 32 32 32 34 35 33 31 31 29
16 18 20 22 25 30 35 33 33 33 33 40 41 41 41 43 43 43 42 43 41 37 35 35 35 37 39 41 41 40 38 37 35 36 38 35 35 33 34 37 35 33 32
18 21 24 26 31 36 35 39 38 38 41 42 44 45 47 48 49 47 45 44 45 45 41 40 40 39 39 41 44 46 46 44 40 38 38 39 38 34 35 35 37 37 35
22 22 28 29 37 35 38 38 41 42 45 48 47 48 47 45 48 47 47 44 45 45 48 49 45 45 46 45 44 45 48 49 48 44 41 40 41 39 38 35 35 37 38
24 28 33 35 35 37 39 41 43 46 47 49 48 48 47 46 47 48 48 49 49 48 48 52 50 47 49 48 49 49 48 50 52 53 50 44 43 43 42 41 38 36 38
26 28 32 35 36 38 41 42 44 46 46 49 48 50 51 51 50 50 50 51 52 55 53 53 54 52 53 50 49 51 52 52 53 56 56 53 47 46 45 44 43 38 37
29 31 33 35 36 39 41 44 45 47 49 51 50 50 51 52 52 51 51 49 52 56 56 58 56 57 56 55 51 53 49 53 54 57 57 57 54 50 48 48 45 44 42
28 31 33 36 38 41 44 45 47 49 49 51 53 50 49 42 33 34 49 49 51 52 49 50 52 52 53 54 53 50 49 51 50 54 57 59 57 56 52 50 50 48 46
31 34 36 38 41 42 44 46 48 48 50 47 49 48 45 38 44 43 42 37 45 44 45 45 48 50 51 51 50 49 50 49 50 52 54 56 59 57 56 53 53 52 50
34 36 38 39 41 42 44 45 47 48 48 47 46 43 44 42 38 35 30 28 31 36 36 38 43 42 45 48 50 52 52 49 49 50 52 53 56 59 57 55 54 54 54
35 36 38 39 41 43 45 46 46 46 46 45 41 38 35 31 27 24 29 30 35 33 33 41 41 41 41 41 40 42 46 43 43 45 48 52 54 55 58 57 53 53 54
36 38 40 42 43 43 44 45 45 45 42 40 35 31 28 23 26 27 28 30 36 36 32 36 35 32 35 34 36 35 34 34 36 38 36 33 42 53 54 59 56 52 53
38 40 42 42 43 44 44 44 44 31 31 29 31 31 28 33 28 27 29 31 34 39 37 31 29 30 31 33 36 35 39 34 33 36 36 32 31 35 45 52 56 54 52
41 42 41 42 42 44 44 43 37 31 29 31 31 29 34 28 29 35 36 33 38 41 40 37 31 34 37 36 37 37 39 39 40 38 36 34 30 31 34 39 45 52 53
41 42 43 43 44 43 42 35 29 29 30 31 27 31 30 32 35 38 34 30 34 43 46 40 38 34 36 40 41 42 40 40 41 41 40 36 33 31 32 32 34 40 50
41 42 42 43 42 42 39 28 33 28 26 25 28 30 32 35 36 33 29 30 32 35 46 41 37 34 34 36 36 39 40 39 38 40 41 43 39 33 33 32 28 30 40
41 42 42 42 42 39 36 31 28 27 29 28 30 32 37 36 36 34 34 34 33 34 40 44 38 36 37 38 38 37 37 36 35 36 41 42 40 40 35 32 28 25 27
43 43 43 43 41 38 33 28 31 29 27 29 32 34 35 36 36 38 38 40 42 44 43 41 38 39 40 39 38 38 36 35 32 26 32 41 39 39 41 38 32 28 25
43 43 43 42 39 35 31 31 27 25 27 31 32 32 34 35 36 37 39 41 43 39 37 39 40 39 38 35 34 32 27 24 29 29 34 36 36 38 38 39 38 33 27
42 42 42 42 37 32 29 26 26 26 27 28 30 30 32 34 36 37 38 40 39 35 35 38 39 37 33 30 25 25 24 23 20 22 24 29 34 36 35 36 36 38 32
41 42 42 39 33 29 26 26 25 24 25 27 28 30 33 34 34 35 37 36 33 33 35 36 35 31 28 23 22 22 24 22 22 22 20 24 26 22 23 34 32 36 36
42 41 39 35 32 28 25 23 21 24 25 26 28 30 33 34 34 34 34 31 30 32 32 31 32 31 28 25 23 20 22 19 20 17 21 22 21 23 19 19 28 32 33
40 38 35 34 30 27 24 22 22 23 24 26 29 31 32 32 32 33 32 27 26 26 28 29 30 25 24 21 19 21 21 20 19 19 21 24 23 25 25 24 28 27 28
37 35 34 32 27 26 24 22 21 22 23 26 29 31 31 29 30 31 29 25 25 26 28 27 26 26 23 19 19 23 22 20 20 18 23 26 24 23 23 27 26 25 26
35 34 33 28 25 26 22 21 21 22 23 26 28 30 28 27 28 29 26 24 25 26 27 25 23 20 16 16 16 18 18 19 19 12 13 18 22 21 22 24 23 23 25
33 32 31 26 24 24 21 20 21 22 24 26 27 27 27 25 27 27 25 24 25 26 25 21 18 15 12 11 12 13 14 14 15 16 12 14 14 13 15 18 19 21 23

GFSMA_700_spd_033.txt.gz
Wind_Speed
13 17 16 19 20 23 27 31 36 36 34 35 35 36 37 37 37 38 37 37 37 30 30 29 29 30 32 32 33 34 34 35 35 33 33 34 32 30 30 29 29 28 28
23 26 20 22 25 27 32 34 38 35 35 36 39 40 41 42 43 43 40 38 39 40 35 33 33 33 34 36 36 36 36 37 38 40 39 37 37 35 31 31 31 30 29
24 20 22 27 23 29 33 37 37 38 39 40 43 44 44 43 43 43 45 40 37 42 43 39 37 37 39 39 40 41 41 41 40 41 43 43 41 40 38 34 31 33 32
17 18 23 29 30 34 35 37 39 41 42 42 45 45 45 44 43 41 42 46 43 41 43 47 45 40 43 44 45 46 46 47 46 45 44 46 45 43 42 39 37 34 33
17 21 25 28 32 36 37 37 39 40 43 44 45 46 45 46 45 45 42 44 44 42 44 41 47 46 47 49 48 48 50 53 51 51 50 49 48 47 46 45 41 38 37
19 23 27 30 31 34 36 40 40 41 43 46 48 49 46 45 46 47 41 40 42 44 47 51 54 53 53 55 54 49 54 51 53 57 55 54 51 51 49 48 48 44 41
19 23 28 30 30 36 39 41 42 43 45 46 48 48 48 46 40 36 33 38 48 45 50 55 53 54 54 59 57 57 54 49 52 53 54 56 55 53 54 50 50 49 46
23 26 27 32 35 35 40 43 43 45 45 47 47 48 49 46 37 26 37 41 38 41 37 44 46 42 47 48 47 52 57 55 47 47 49 54 56 56 55 55 50 51 51
28 29 32 33 36 38 40 43 46 47 46 46 46 44 43 40 41 38 37 38 40 41 35 35 36 40 42 42 41 45 50 50 49 43 44 48 52 55 55 54 54 50 51
30 32 35 36 37 39 41 43 43 45 45 45 43 39 37 36 33 38 28 26 27 29 29 33 31 35 37 36 36 41 42 46 49 48 49 48 50 52 55 54 54 52 50
34 35 37 38 38 39 41 43 43 43 42 42 40 35 32 29 29 26 30 27 26 26 26 28 32 35 34 35 36 32 27 41 40 37 41 43 45 47 50 52 54 55 52
34 37 38 39 40 41 42 42 43 41 40 36 32 33 30 27 25 26 28 26 28 32 30 30 31 31 33 32 32 35 35 39 40 36 37 38 37 39 42 46 52 54 54
35 37 37 37 39 39 40 42 43 39 34 28 30 33 37 37 28 29 27 31 36 40 38 31 30 31 32 33 35 36 41 39 37 36 38 40 40 38 36 39 43 52 54
35 36 37 38 39 41 41 40 40 39 30 28 32 36 40 30 31 29 32 35 36 37 37 33 31 31 32 34 36 39 41 41 39 40 40 39 41 41 37 33 37 39 45
35 37 38 39 40 40 39 39 37 34 30 32 32 32 28 30 32 35 36 33 29 39 41 36 36 30 32 35 38 39 40 39 36 36 40 39 39 42 41 34 33 37 36
35 36 38 39 40 40 39 38 33 26 26 31 35 34 33 31 34 36 32 29 33 37 45 37 36 36 39 37 35 37 39 40 39 37 33 38 39 41 42 40 34 35 34
36 38 40 41 40 40 40 35 27 23 28 33 34 31 28 32 35 30 30 32 33 33 41 46 43 42 38 38 39 39 40 39 38 35 33 32 37 41 42 40 39 34 34
38 40 41 41 41 39 37 36 31 32 32 30 30 30 33 34 30 32 33 37 38 39 42 45 44 40 39 39 41 41 37 33 33 31 29 27 30 34 37 40 39 38 33
39 40 41 41 40 40 39 35 30 29 28 29 29 30 29 30 32 34 36 38 39 40 42 44 41 39 40 40 36 33 31 28 26 25 24 24 30 37 38 37 38 39 39
40 41 41 41 41 38 36 33 29 27 26 28 26 27 29 30 33 35 36 37 38 40 40 37 36 37 35 32 26 28 24 25 26 23 23 24 26 28 27 30 33 35 38
41 41 41 40 38 37 35 30 27 26 26 26 27 27 29 33 34 34 34 33 35 36 34 33 32 32 32 29 27 26 28 27 22 23 18 21 24 23 22 15 21 32 34
40 39 40 38 36 37 34 29 26 26 25 25 26 27 29 33 35 35 34 31 33 32 29 30 31 32 30 24 22 24 23 23 24 20 21 20 22 23 23 21 19 20 31
39 38 38 36 35 36 31 27 26 25 24 24 26 27 29 31 33 31 32 33 31 28 28 29 30 30 29 27 28 26 22 23 24 23 23 20 20 21 23 20 26 29 29
38 36 35 34 34 35 30 27 25 24 23 24 26 27 29 30 31 29 30 30 29 26 27 27 28 28 25 22 20 20 21 22 22 21 17 20 19 25 27 27 29 26 24
36 33 32 33 33 32 30 24 24 23 23 23 25 27 28 27 28 28 29 28 27 25 24 26 26 22 20 16 14 15 14 16 17 17 14 17 13 16 20 23 22 20 22
35 34 31 30 32 30 29 24 24 23 22 22 24 26 28 25 26 26 27 27 26 24 24 24 22 17 15 13 12 13 14 17 20 19 11 15 13 12 12 10 12 15 17

GFSMA_700_spd_036.txt.gz
Wind_Speed
17 19 28 23 22 26 26 28 29 30 33 33 34 35 35 35 35 37 38 34 32 34 32 30 30 30 30 29 29 29 30 30 30 31 30 30 31 27 26 26 25 25 25
15 20 26 26 23 24 26 31 31 32 34 34 34 35 37 36 35 37 37 40 38 37 36 36 33 35 35 35 35 34 34 34 34 34 34 34 33 34 31 29 28 27 27
27 25 27 23 20 26 29 29 32 33 35 37 37 39 40 39 40 40 39 38 44 41 39 41 42 36 36 38 40 40 39 40 39 38 38 38 38 36 36 34 32 31 30
22 20 21 19 22 26 30 31 34 36 38 40 39 40 42 40 40 40 40 36 40 42 43 44 44 43 39 40 42 43 43 46 47 44 45 45 44 41 40 39 37 36 34
19 19 19 18 23 27 29 32 33 36 38 40 40 41 43 44 42 42 42 38 38 42 46 47 50 51 51 51 49 48 46 51 50 51 54 53 49 47 43 42 41 40 39
17 18 18 20 24 28 31 35 36 36 37 39 40 41 43 44 43 42 42 39 42 44 47 50 54 56 59 60 60 59 60 58 56 54 56 56 56 52 50 46 45 44 44
16 20 24 26 26 30 35 38 39 40 40 41 42 42 42 42 40 37 40 42 41 44 47 51 54 57 59 59 59 57 55 55 52 51 45 44 51 53 52 49 47 47 47
19 23 25 29 32 34 35 38 40 41 41 41 43 45 45 43 42 42 38 39 40 45 47 49 51 52 55 56 51 40 45 46 48 46 44 42 43 46 49 51 49 48 47
24 26 30 30 32 35 36 37 38 41 42 40 40 43 45 47 47 44 43 38 40 46 49 48 45 39 42 46 37 39 38 41 43 43 43 43 42 41 43 46 49 48 50
26 29 33 33 33 33 35 37 37 40 40 41 42 41 40 44 44 48 41 37 39 38 34 37 39 37 37 38 40 39 39 41 43 43 41 38 40 42 42 44 43 47 45
29 34 35 37 37 37 37 39 40 42 42 41 43 44 41 38 36 37 42 41 37 31 30 31 35 36 38 38 37 36 37 41 45 45 42 38 37 39 38 39 43 44 46
32 34 36 37 37 37 38 38 38 40 40 39 39 39 33 34 37 36 38 45 35 30 32 38 38 35 35 35 36 36 36 40 45 48 46 40 37 39 39 38 38 38 41
32 32 35 35 35 37 37 37 37 39 41 40 36 29 34 38 35 39 42 37 37 34 37 39 35 36 36 36 36 37 41 42 45 46 45 42 39 38 39 37 36 36 35
31 32 33 34 35 37 38 38 38 38 39 38 34 32 36 36 35 36 36 38 38 41 42 35 35 36 38 37 38 40 41 42 43 39 37 36 35 37 38 38 37 36 35
31 32 35 36 37 37 37 37 37 35 35 35 31 31 34 35 35 34 37 35 39 43 41 39 42 41 40 43 44 43 44 41 38 38 37 37 34 35 37 38 38 36 35
30 31 35 37 37 38 39 38 37 36 33 31 28 32 35 37 37 37 33 37 36 33 43 44 43 44 45 46 43 41 37 37 38 40 40 40 37 35 37 37 38 37 35
30 33 36 37 38 38 39 37 36 35 34 31 31 34 36 36 36 35 37 39 38 41 44 45 44 45 46 44 42 37 36 39 40 40 37 36 35 35 35 37 39 36 35
31 34 37 38 39 40 38 39 36 35 32 29 29 31 32 33 33 36 33 34 36 38 41 47 45 43 44 42 38 37 36 34 33 32 31 30 29 29 29 33 35 35 36
32 36 38 39 39 41 37 38 35 33 30 29 29 30 30 29 29 31 32 35 37 39 40 42 43 41 39 35 35 34 32 29 26 25 25 26 25 25 26 29 34 32 29
34 36 38 40 41 37 34 33 32 30 30 30 30 30 29 30 30 31 33 35 37 37 37 38 38 36 33 32 33 33 31 25 28 27 26 25 25 28 26 26 26 27 30
33 35 38 38 40 37 37 32 31 29 29 29 28 28 28 30 31 33 34 35 33 33 34 35 34 32 31 32 32 27 25 25 20 22 23 23 22 21 25 29 25 24 23
33 36 36 36 38 34 32 28 30 28 28 28 28 28 27 28 32 35 35 34 32 33 34 34 32 31 30 31 30 30 30 31 29 18 23 23 23 22 18 19 17 18 20
36 36 36 36 35 32 31 28 28 28 28 28 27 26 26 28 31 31 31 31 31 31 32 33 32 31 31 29 29 27 23 22 21 22 26 26 23 23 20 19 17 19 25
38 37 34 32 33 31 30 29 28 29 29 28 26 26 26 28 30 30 30 29 29 29 29 28 28 27 27 24 24 21 18 17 13 13 18 23 13 17 21 21 21 22 25
36 35 34 30 29 32 30 29 29 30 30 26 24 24 25 27 27 28 28 28 27 27 27 26 26 26 24 20 19 17 12 14 17 17 18 24 15 14 13 15 21 25 26
34 35 34 30 29 30 30 30 29 29 29 25 23 23 24 24 25 27 27 27 26 26 26 23 21 22 19 17 15 14 13 13 16 19 15 20 15 17 10 11 12 15 17

GFSMA_700_spd_039.txt.gz
Wind_Speed
16 16 17 20 22 23 29 25 23 26 28 29 30 30 30 29 30 31 32 33 34 33 32 31 29 28 31 29 30 30 30 30 31 30 30 30 28 28 28 27 24 23 20
17 14 19 22 22 22 26 25 25 27 29 30 29 31 32 30 31 32 33 35 36 36 35 34 35 34 33 33 35 35 34 34 34 35 34 34 34 32 31 31 30 28 26
21 24 20 20 21 24 24 24 25 27 30 32 33 36 37 36 34 35 35 34 37 37 40 41 39 39 37 35 36 38 38 39 40 38 39 39 39 37 34 34 34 33 31
22 24 19 21 22 25 24 23 25 30 33 36 35 35 35 35 34 35 35 35 38 39 40 44 46 47 47 44 41 41 43 46 46 47 46 45 44 42 40 38 38 38 36
32 26 22 21 24 26 26 28 29 33 35 35 34 33 32 34 34 36 37 38 38 39 42 46 51 53 54 57 57 55 53 51 54 52 53 55 52 48 45 44 42 42 42
23 23 20 21 25 28 30 31 33 35 34 35 34 34 34 34 35 37 36 37 39 41 43 46 50 53 55 56 58 61 61 60 61 59 58 56 56 55 54 49 46 46 45
20 20 21 23 25 27 29 32 35 36 35 34 35 36 36 35 34 36 36 37 38 40 42 45 50 53 57 58 59 60 60 59 55 46 46 46 41 43 47 52 50 47 49
21 22 23 24 26 27 30 34 37 37 36 36 37 38 39 37 36 37 38 38 38 40 41 45 49 52 55 58 59 59 48 39 39 41 41 40 40 36 36 37 41 44 46
23 22 22 24 30 29 30 33 35 37 38 37 38 39 41 43 46 45 43 43 34 35 35 40 46 51 51 50 43 39 40 41 40 41 40 38 38 38 35 35 35 38 42
25 27 28 29 33 29 31 32 33 35 38 38 38 38 40 42 45 49 48 46 41 35 33 40 40 41 40 37 39 41 41 41 41 42 42 41 39 37 37 36 34 36 37
28 31 37 35 32 32 31 32 34 37 39 40 40 41 42 42 40 42 46 46 41 35 36 36 30 31 34 39 39 37 39 41 43 44 44 43 41 39 36 34 34 36 37
33 36 34 37 35 34 33 34 36 38 39 39 39 40 39 41 42 39 41 42 42 40 33 33 37 35 40 37 35 36 37 41 43 43 43 42 41 40 38 36 36 36 35
39 42 41 34 32 33 32 34 37 38 38 39 41 41 39 37 38 39 40 39 40 39 38 41 38 41 39 35 38 41 40 40 39 39 41 41 38 37 36 34 36 39 37
39 48 42 33 33 33 34 35 37 38 39 38 40 39 38 35 40 37 37 36 40 41 45 43 39 40 36 41 42 41 41 40 41 42 41 40 36 35 35 36 35 36 37
42 44 40 33 34 33 33 35 36 38 37 37 37 35 36 35 36 37 37 38 38 41 43 42 42 39 42 43 44 43 41 41 42 41 38 36 37 36 37 36 38 37 35
44 43 34 33 33 33 34 36 36 37 38 36 34 34 33 34 36 36 38 40 41 43 45 43 40 41 43 44 42 41 41 42 39 36 36 37 40 40 40 38 38 39 37
40 34 30 30 31 32 33 35 36 34 35 35 33 31 30 31 33 34 36 36 35 36 38 41 40 42 43 42 39 39 39 37 35 34 36 36 37 36 35 35 35 37 38
36 30 27 30 31 34 34 35 37 36 34 32 30 29 29 30 30 29 29 29 29 32 37 41 41 41 39 38 38 35 33 33 34 34 34 32 29 27 25 26 29 31 31
33 26 29 32 37 32 35 35 36 33 32 31 30 28 28 30 30 28 28 29 31 33 36 39 40 37 37 35 33 31 33 33 33 32 32 31 29 29 28 26 27 28 28
28 30 31 33 33 36 37 33 32 32 30 28 28 28 29 30 29 29 28 29 33 34 34 34 34 34 33 31 31 32 33 31 29 28 27 26 27 26 26 27 26 29 27
26 31 27 28 34 37 37 29 28 29 29 27 27 27 28 28 29 29 28 30 32 32 32 32 32 32 30 28 29 30 32 31 23 27 26 24 27 25 24 25 23 25 26
29 31 25 30 33 37 36 30 27 28 29 27 27 27 27 28 28 27 29 31 32 33 32 33 33 32 28 27 28 29 28 26 22 17 18 19 25 26 25 24 23 17 17
34 23 27 30 32 34 33 29 27 28 29 28 27 28 28 29 26 24 28 29 30 30 31 31 31 30 28 27 29 25 22 22 17 9 15 13 15 20 22 25 24 22 12
23 28 31 32 32 32 31 29 28 29 29 28 28 28 29 28 24 24 26 27 27 27 27 28 30 28 27 26 25 23 21 20 16 10 18 22 17 17 16 17 21 22 21
25 28 32 33 32 30 30 29 29 29 29 28 28 28 28 26 23 23 23 25 25 24 25 26 26 26 25 25 23 20 18 16 15 12 14 22 18 18 13 12 13 16 20
27 32 32 33 31 29 30 30 30 28 28 27 27 28 27 24 22 22 22 23 24 24 23 23 23 23 22 22 20 18 16 15 11 13 18 20 20 20 16 14 12 12 17

GFSMA_700_spd_042.txt.gz
Wind_Speed
13 15 17 17 21 23 26 23 22 24 24 23 25 26 27 26 26 27 27 27 28 28 29 29 28 28 28 27 27 26 28 30 30 31 31 31 32 32 32 31 30 28 26
13 17 16 22 24 22 21 21 23 24 25 25 28 30 30 30 30 29 29 29 30 30 31 31 30 30 31 30 30 31 31 31 30 33 34 34 34 34 34 34 34 32 31
20 19 20 20 21 21 22 23 23 25 27 29 31 35 35 34 34 33 33 33 32 32 33 34 36 34 34 36 36 35 37 39 40 40 38 37 39 37 36 37 37 37 36
24 26 27 27 26 25 24 24 26 29 31 33 35 36 33 33 33 32 33 34 34 34 36 39 41 44 46 47 49 48 45 45 46 48 48 48 46 42 41 40 40 42 41
31 32 32 28 25 25 24 26 29 32 32 34 37 37 34 33 34 33 33 34 35 37 39 42 44 46 49 51 52 54 57 58 57 57 55 55 55 52 50 48 45 45 47
20 19 20 23 24 23 26 30 32 31 33 35 36 35 34 33 34 34 34 35 35 38 41 44 46 48 50 53 54 55 57 59 60 61 60 59 58 54 53 54 53 49 50
21 19 21 22 23 26 29 31 34 32 33 35 34 34 34 34 34 34 35 37 37 38 40 43 46 48 51 54 56 58 59 59 60 57 52 47 43 41 39 39 43 49 50
18 19 22 26 29 29 28 33 33 34 35 34 34 35 36 36 37 37 37 38 37 35 39 41 43 46 47 49 51 54 55 54 50 45 40 38 40 40 35 35 34 36 38
20 24 28 29 30 31 34 36 36 37 36 34 34 36 39 40 40 40 42 41 41 37 35 39 41 42 44 47 50 51 49 46 44 41 37 36 37 39 40 36 36 34 34
26 28 26 26 27 33 31 35 37 36 38 36 36 38 39 41 43 46 46 44 42 41 38 38 36 38 40 43 42 44 45 46 46 42 39 38 38 39 38 32 33 35 34
28 26 28 31 34 42 40 36 37 38 38 38 38 39 40 41 42 43 46 45 42 41 38 36 34 33 33 36 41 41 43 44 40 40 39 38 38 39 38 33 31 32 35
29 32 35 34 32 40 44 38 36 41 40 40 40 40 40 41 41 41 42 43 43 41 38 36 37 37 38 38 39 41 40 38 41 41 40 40 40 41 40 38 34 32 33
35 35 35 42 41 41 44 33 37 40 41 41 41 41 42 42 43 42 42 43 45 44 42 40 40 40 38 38 42 40 38 42 41 41 42 44 44 42 41 42 41 38 35
38 42 48 43 41 32 38 37 37 40 42 42 39 39 40 41 41 39 39 41 41 40 39 39 38 38 40 42 41 41 42 43 44 45 46 46 45 43 41 39 37 36 35
42 47 47 53 51 40 37 36 37 40 42 40 38 38 38 38 38 38 37 37 38 38 39 39 40 40 40 39 40 42 44 46 47 46 44 43 43 41 37 36 37 36 36
41 53 50 53 51 42 35 34 36 40 38 38 38 37 35 35 35 34 33 33 34 37 39 37 37 37 40 41 43 45 45 45 42 41 40 38 37 37 36 37 39 39 39
46 47 53 50 43 35 35 37 38 34 34 37 36 34 33 33 33 31 30 30 31 33 35 35 36 38 41 44 42 39 40 40 38 35 33 33 34 35 37 38 38 38 38
51 52 51 48 40 39 37 31 30 35 35 36 35 32 32 32 30 29 29 29 30 31 32 37 39 40 39 39 39 37 35 34 34 33 34 34 34 33 35 34 33 33 34
51 53 49 43 39 35 31 30 32 33 36 35 33 32 31 30 29 28 28 28 28 29 33 38 40 38 37 35 36 34 32 30 31 33 34 33 30 31 30 30 33 33 34
53 55 49 39 38 42 30 30 30 32 35 34 33 32 32 31 30 30 28 27 28 31 34 36 36 35 34 31 32 33 30 29 28 27 30 30 28 30 29 28 28 29 31
55 51 40 36 41 36 29 28 32 32 33 34 32 31 31 31 30 29 27 27 29 32 34 35 33 33 31 30 30 28 30 30 22 26 26 24 25 23 25 27 27 28 29
55 43 40 45 33 26 26 30 33 32 31 32 32 32 32 31 29 27 26 26 29 32 33 34 33 32 30 30 28 27 29 27 22 19 24 16 17 17 20 24 26 27 29
33 40 37 27 25 26 30 32 33 32 32 32 33 33 33 31 29 26 24 25 28 30 32 32 31 29 29 29 27 26 25 24 20 17 23 18 17 18 20 22 22 21 24
38 26 27 25 27 31 32 32 33 32 32 33 33 32 33 31 29 25 23 24 26 27 29 29 29 28 29 28 27 26 24 18 15 13 17 21 17 20 19 19 18 18 19
24 23 24 28 32 32 32 32 33 33 33 34 32 31 31 29 27 24 23 23 23 24 25 26 27 27 27 27 27 26 23 18 12 3 10 16 16 17 17 16 17 18 18
23 25 29 30 31 32 32 31 32 33 32 32 31 30 28 27 26 24 23 23 22 22 22 23 24 25 25 25 25 25 25 20 15 8 12 14 18 21 21 17 14 19 21

GFSMA_700_spd_045.txt.gz
Wind_Speed
13 14 15 15 15 16 18 18 19 21 21 22 24 27 30 31 31 30 29 27 27 28 27 27 26 27 24 24 23 22 23 24 28 27 29 30 31 32 32 32 31 32 30
15 15 15 16 20 21 21 22 22 22 23 24 27 31 34 35 36 35 33 33 32 32 32 30 29 28 28 28 29 29 31 32 31 30 31 33 34 34 36 37 35 36 35
15 18 20 23 25 25 21 21 21 22 25 29 31 34 36 38 40 39 35 33 34 34 33 33 33 34 35 36 37 37 37 38 38 39 40 39 38 40 40 41 42 39 40
19 24 28 30 29 24 19 20 22 26 29 31 33 34 37 39 40 38 37 35 34 35 35 35 37 39 40 42 43 45 47 49 48 47 46 47 47 47 43 45 47 48 45
21 22 22 20 17 17 18 20 26 30 33 35 36 37 38 38 36 37 37 36 36 37 39 39 40 42 43 44 45 46 47 49 51 53 56 58 59 59 57 55 50 52 55
19 20 19 16 17 19 22 27 30 32 34 37 39 39 40 39 36 36 37 37 37 37 39 42 44 44 45 46 48 50 51 53 54 57 59 61 62 64 64 63 63 62 58
19 21 21 21 23 26 30 32 33 35 37 38 39 40 41 39 38 37 37 38 37 39 41 44 45 46 47 49 51 52 54 54 54 55 57 59 58 58 58 44 43 42 51
20 22 23 24 27 30 33 34 37 39 44 41 40 40 43 42 41 40 39 40 40 42 41 42 42 44 46 48 49 50 52 54 55 53 49 47 47 46 45 48 40 36 37
22 23 24 26 27 28 31 31 36 38 41 42 39 42 44 44 44 43 41 41 41 42 43 42 41 41 43 45 46 47 47 47 46 48 48 45 44 42 42 41 42 37 36
21 23 26 27 29 30 34 35 37 38 38 40 42 41 42 42 45 48 44 44 43 42 42 41 40 39 40 41 42 43 44 45 47 48 46 47 41 39 40 41 41 41 35
23 25 27 29 32 35 40 44 46 45 41 40 39 42 43 45 46 47 48 45 44 42 41 40 38 36 35 35 37 39 42 42 42 43 45 44 42 42 41 42 43 43 41
28 30 33 35 37 42 44 41 50 52 41 41 40 43 46 47 46 45 46 45 45 42 39 37 34 32 33 35 38 39 39 40 41 43 43 43 45 46 44 43 44 45 45
34 36 37 43 42 44 46 47 55 55 52 43 39 44 45 46 46 45 45 44 44 43 40 35 33 32 33 37 38 40 41 42 42 42 44 45 47 48 48 47 46 45 45
35 40 40 34 44 41 46 51 49 51 47 38 41 43 46 44 42 43 41 41 41 41 39 37 36 36 38 38 37 37 39 40 43 44 46 48 49 50 49 47 45 44 43
38 47 49 40 40 52 47 49 50 45 40 39 43 46 42 41 42 39 38 38 37 39 41 38 36 36 37 37 37 38 41 43 45 46 46 46 45 45 44 41 40 39 38
36 41 45 51 49 49 50 55 48 39 39 43 43 44 41 41 39 37 36 35 34 35 37 35 35 36 37 38 41 43 43 45 45 42 40 40 40 39 38 37 35 35 34
43 44 41 47 51 53 56 54 48 46 46 45 45 41 38 38 37 36 35 34 33 34 35 33 34 35 37 39 42 42 41 41 39 39 38 36 35 35 36 36 37 37 36
43 42 43 47 51 53 54 53 47 44 43 42 40 33 36 36 36 34 32 32 33 33 34 34 33 34 37 39 41 41 39 38 38 36 35 35 34 34 36 37 36 36 35
45 41 44 50 54 54 46 40 46 42 38 33 33 34 36 35 33 32 32 32 33 32 33 32 33 35 36 36 38 37 36 34 32 32 34 36 35 33 31 32 32 31 30
46 48 54 57 55 41 43 45 40 34 32 32 35 36 35 34 33 33 33 34 33 32 32 31 32 34 34 34 35 36 31 31 28 29 30 30 30 29 27 28 29 28 29
47 53 55 41 35 41 36 31 31 32 34 36 37 35 35 35 36 35 33 34 33 32 30 31 30 32 33 33 33 32 32 28 25 25 27 22 27 24 22 23 24 24 26
54 37 36 41 38 29 28 27 30 34 36 38 37 36 35 36 36 35 33 33 33 31 29 30 29 32 32 32 31 31 30 28 24 20 24 15 21 19 22 23 23 23 23
37 40 42 28 25 26 26 30 34 36 37 37 37 37 37 35 35 35 34 33 31 29 28 28 28 30 30 31 30 29 28 26 24 19 22 14 15 15 19 21 22 23 21
44 35 28 25 26 28 31 33 35 37 38 38 38 38 38 36 34 33 33 31 29 26 27 26 27 28 29 28 29 28 27 25 21 17 21 13 14 13 16 18 18 20 20
32 30 28 30 32 33 34 35 37 38 39 38 37 37 36 33 32 31 29 29 26 24 25 25 26 26 27 27 29 28 27 26 21 16 16 19 15 15 15 16 16 20 22
32 34 35 36 37 38 38 39 40 40 40 39 38 37 35 33 31 30 29 28 24 23 23 23 25 25 25 26 27 28 28 27 24 20 17 24 20 23 23 20 18 22 23

GFSMA_700_spd_051.txt.gz
Wind_Speed
7 8 9 9 8 11 14 17 16 12 12 13 16 19 22 24 25 26 28 29 30 31 31 31 30 26 23 21 22 23 23 22 22 24 25 27 28 28 29 28 28 29 30
10 11 11 11 13 17 19 15 12 11 12 16 19 21 23 24 26 28 29 30 31 32 33 34 34 34 33 31 28 28 29 30 31 30 28 28 29 30 31 32 32 32 33
12 11 11 13 15 14 12 10 11 13 16 20 23 25 27 28 29 31 34 35 34 35 37 38 38 39 39 39 38 37 37 37 37 36 36 34 34 33 33 32 32 34 35
9 8 10 12 12 11 10 11 12 15 19 24 27 29 32 33 34 35 37 36 35 37 39 39 41 42 43 44 44 43 42 42 43 42 42 44 43 40 40 39 38 39 39
11 10 10 13 12 12 11 12 14 18 22 26 28 31 34 36 35 38 42 40 38 39 38 39 42 45 46 46 47 47 47 48 48 49 49 50 50 50 48 47 46 44 44
13 13 14 14 13 12 14 15 17 21 24 26 29 33 34 35 38 42 41 40 42 40 41 42 43 45 45 47 48 49 50 51 51 52 52 52 52 52 54 54 54 53 53
14 15 15 15 15 16 18 19 21 24 26 30 34 38 38 35 35 40 41 38 43 43 43 46 50 50 49 50 52 52 53 53 54 54 54 54 53 52 53 53 52 53 55
15 16 17 17 18 20 22 22 25 27 30 34 38 42 43 43 45 45 39 42 49 45 43 48 51 50 51 52 54 54 55 55 55 54 54 53 51 50 49 48 47 47 48
18 18 18 19 21 23 23 25 28 30 32 34 41 44 44 45 45 42 36 45 43 40 45 51 49 51 53 54 53 53 54 56 56 54 52 50 48 47 45 44 43 42 43
19 19 21 21 23 24 27 29 31 33 32 35 42 39 45 44 43 43 46 43 43 44 47 49 51 53 51 51 52 52 52 51 51 50 48 47 45 43 42 42 41 41 41
21 21 22 25 27 29 30 32 35 35 37 39 38 42 45 37 39 43 44 45 45 46 49 52 50 48 49 51 50 49 48 48 46 46 46 45 44 43 42 42 42 42 41
24 24 25 28 29 29 34 38 39 35 36 36 41 42 40 40 39 40 43 45 47 48 49 45 44 47 46 45 45 45 44 43 43 43 43 42 41 40 40 41 42 42 43
25 26 27 27 27 33 34 28 31 41 41 39 41 43 42 38 39 42 43 42 44 44 46 44 42 41 41 42 41 40 40 39 39 40 41 40 40 41 42 43 44 45 46
25 21 23 28 32 30 34 33 32 34 41 44 45 43 38 40 42 38 38 40 41 42 43 42 42 40 40 39 38 37 37 37 37 38 38 39 41 42 44 45 45 45 46
25 21 23 22 27 30 32 33 37 42 43 43 41 40 41 41 37 36 35 34 37 40 40 41 40 40 40 40 39 38 37 36 35 36 38 40 41 42 41 41 40 40 40
26 29 22 23 29 34 33 33 38 41 40 37 39 42 40 36 33 34 35 36 37 38 40 38 39 39 39 39 39 39 37 36 36 37 38 40 40 39 37 36 36 36 35
21 26 25 29 34 31 38 36 39 37 37 37 36 36 33 34 32 34 36 38 38 38 40 38 39 37 37 37 38 37 35 36 37 37 38 39 38 35 34 33 32 30 30
24 28 32 30 42 33 34 44 38 36 35 34 32 32 32 33 34 36 37 38 38 39 38 39 37 37 36 35 36 35 34 35 36 37 38 38 36 33 31 29 27 28 28
30 32 32 33 42 35 35 38 34 33 31 30 31 31 32 35 36 36 37 38 37 38 37 39 37 37 36 35 34 32 32 33 33 34 35 35 33 31 28 28 26 24 24
30 34 37 32 35 43 33 34 33 31 30 30 32 33 34 35 36 37 38 37 37 37 37 38 38 36 35 34 32 31 31 30 31 30 32 33 32 30 27 26 22 21 20
36 35 46 38 33 34 35 32 31 30 31 32 34 35 36 36 37 38 39 38 38 36 37 38 37 36 34 33 31 30 30 29 27 28 30 31 28 28 27 23 20 16 16
31 39 41 36 29 35 34 32 32 32 33 35 35 36 37 39 40 39 39 39 38 37 38 37 36 34 32 31 30 29 28 28 28 26 28 27 26 24 24 20 16 15 16
39 41 33 34 37 32 31 31 32 36 37 38 38 40 41 41 41 41 40 39 38 37 36 35 34 32 32 30 28 27 26 26 26 26 28 29 26 23 22 20 19 18 17
35 31 37 36 31 30 29 33 35 38 41 42 43 43 43 43 42 41 41 41 38 36 34 33 33 31 30 28 27 26 25 25 24 25 28 30 27 24 22 21 23 21 20
34 35 31 31 30 32 34 37 40 43 46 47 46 46 45 45 43 41 42 38 37 36 32 33 31 29 28 27 26 25 24 24 23 23 26 30 26 24 23 21 24 25 24
29 31 30 32 36 39 41 42 45 49 52 51 51 50 48 46 43 40 39 36 36 31 30 31 29 28 27 27 25 24 24 23 23 23 26 29 26 26 26 14 15 20 23

GFSMA_700_spd_054.txt.gz
Wind_Speed
11 9 8 6 6 8 11 15 14 9 6 7 10 14 17 18 20 23 24 26 27 28 27 27 27 27 24 23 23 24 25 25 25 26 28 30 31 30 30 30 30 30 30
12 11 9 8 10 12 15 13 11 7 7 10 13 16 18 19 21 23 24 25 28 29 30 31 32 30 30 30 30 31 31 30 30 32 33 33 32 34 35 35 34 33 32
14 11 11 11 12 13 13 11 9 8 10 13 15 16 19 21 25 24 24 28 30 30 31 32 33 33 33 35 36 37 37 37 37 37 37 37 37 36 36 36 36 38 38
13 12 11 11 11 12 12 9 9 11 13 16 18 20 22 25 26 26 27 28 31 34 36 34 34 35 36 38 41 42 42 42 42 43 44 44 44 43 43 43 42 42 42
15 13 12 11 11 12 11 11 12 14 15 18 20 22 24 28 32 32 29 32 36 37 32 35 36 38 37 39 41 42 43 45 46 47 49 49 50 51 52 52 51 49 48
16 15 15 14 14 13 15 15 15 16 19 21 23 25 27 30 33 36 36 39 40 37 33 37 41 42 38 40 45 44 45 46 49 51 52 51 52 53 54 55 56 55 54
18 17 16 17 17 18 18 17 18 19 21 22 24 29 34 34 35 34 36 39 41 35 38 38 38 38 42 49 46 44 48 51 53 54 54 54 55 53 53 54 55 55 55
18 17 18 19 21 21 20 20 21 22 24 23 26 32 34 37 42 38 40 39 35 35 39 38 38 40 42 44 49 51 52 51 52 52 53 53 53 52 52 51 51 51 50
20 20 23 21 21 22 22 22 24 24 26 27 30 33 35 35 36 40 39 33 34 34 37 40 42 43 44 45 48 50 54 50 52 52 50 50 49 49 48 48 48 47 46
23 23 26 23 23 25 25 25 26 26 28 33 39 28 31 32 35 35 37 41 39 37 41 41 41 44 45 44 46 48 47 48 49 49 49 49 48 47 46 45 45 44 43
25 27 26 26 25 26 26 26 27 29 36 38 38 36 36 33 35 33 35 33 36 43 42 42 40 40 41 42 43 48 48 49 47 48 47 46 46 46 45 43 42 41 41
27 28 31 28 27 26 25 25 30 33 27 35 35 35 34 39 38 37 36 37 38 37 40 40 39 39 39 40 42 43 43 45 46 46 46 46 46 45 43 42 42 41 42
27 29 26 24 24 27 26 32 30 32 30 34 38 34 40 36 36 37 37 37 37 35 36 38 40 40 39 40 40 43 42 45 43 43 43 43 43 43 43 42 43 44 44
32 21 23 29 27 24 28 29 29 31 32 27 36 36 40 36 35 35 36 35 35 34 34 35 40 42 41 41 41 42 40 42 41 40 40 40 39 40 41 42 43 44 44
28 27 28 31 22 21 24 26 38 38 35 27 32 35 31 33 34 33 33 33 34 36 36 33 36 37 41 41 41 41 40 41 40 38 37 36 37 39 40 42 42 42 42
34 26 29 30 31 27 30 35 31 37 38 39 36 34 34 33 31 33 34 33 34 36 38 35 33 34 39 39 39 40 40 39 38 36 34 35 36 37 39 40 39 39 38
26 27 31 27 28 24 34 47 39 35 35 36 35 32 34 31 32 33 33 35 36 36 38 37 30 28 38 39 37 39 38 38 35 34 33 34 34 37 38 37 35 34 32
19 23 24 26 25 34 37 32 41 37 32 30 32 34 34 33 34 34 36 37 37 37 37 38 35 31 30 36 38 38 36 35 33 32 32 32 33 36 36 33 30 29 28
28 31 28 25 30 30 31 31 36 34 32 32 32 35 34 34 36 38 38 39 38 37 36 36 37 31 31 32 38 38 35 34 31 31 30 31 32 34 33 29 27 26 24
29 29 25 31 35 33 37 37 35 35 36 33 34 33 34 37 39 39 39 40 40 40 35 34 38 36 32 31 37 36 34 32 30 29 29 30 32 32 31 27 25 22 21
31 33 31 32 33 37 34 33 36 39 33 32 33 36 39 40 40 39 39 41 39 41 41 41 39 39 39 36 29 28 34 32 29 28 27 29 30 31 30 28 24 21 18
30 37 34 32 33 30 33 36 33 32 32 34 37 39 41 44 44 41 42 43 42 42 38 34 41 40 38 34 30 32 33 30 28 26 26 27 29 28 28 25 24 22 20
31 29 32 33 31 34 32 31 31 33 36 38 40 42 44 45 45 46 45 44 43 43 41 36 38 39 36 33 34 33 31 29 28 25 25 26 26 28 28 25 23 24 24
22 32 28 31 32 30 29 30 33 36 40 42 45 46 48 48 47 47 49 45 46 42 39 37 38 36 34 32 33 31 30 28 26 25 25 25 25 27 29 24 24 26 27
24 27 29 29 29 28 30 33 37 41 44 46 49 51 52 53 52 49 46 45 42 39 37 38 36 35 30 30 29 30 28 28 25 23 24 25 24 26 30 25 24 22 22
25 25 26 27 30 32 35 38 41 45 48 51 54 55 56 55 53 46 45 42 41 37 35 36 33 30 31 30 27 28 27 26 25 23 24 24 24 26 29 27 20 18 17

GFSMA_700_spd_057.txt.gz
Wind_Speed
14 10 9 7 5 6 7 10 12 9 6 6 6 8 10 11 12 13 13 15 16 19 21 23 23 22 22 21 22 23 23 23 23 24 26 27 29 32 32 30 27 29 30
14 13 10 8 8 9 11 13 11 8 8 7 8 10 10 10 13 16 21 18 20 21 24 28 30 30 27 24 23 25 27 28 29 30 30 30 29 31 32 35 36 33 31
16 14 12 11 10 10 13 12 11 9 9 10 11 11 11 12 14 18 22 28 24 26 31 32 32 31 29 29 30 30 32 34 34 35 35 34 35 35 35 35 36 38 39
16 13 12 13 11 12 12 12 13 12 11 12 13 15 16 17 19 22 25 26 28 36 34 31 32 33 32 33 33 33 35 37 37 36 37 39 41 43 43 42 42 42 43
18 17 16 15 12 13 12 13 15 15 14 15 16 17 19 21 23 26 28 28 25 27 32 39 34 33 32 32 32 34 37 41 40 40 41 42 43 45 47 48 50 49 48
22 20 19 19 17 16 14 16 17 17 18 18 19 22 23 23 26 28 30 29 33 31 29 27 34 38 35 34 35 37 38 41 43 45 47 49 50 51 51 51 52 54 55
20 21 21 22 20 20 19 18 21 21 20 20 22 26 30 34 30 34 32 31 33 34 34 33 31 32 38 41 42 42 42 43 45 48 49 51 53 54 55 54 52 52 53
24 24 24 24 23 25 22 22 22 24 24 22 23 27 28 29 39 40 35 33 35 33 34 37 36 35 37 36 41 47 51 45 43 45 47 48 50 52 53 53 52 50 50
25 29 26 27 25 28 25 23 24 25 25 28 25 28 32 33 31 32 41 39 34 36 35 33 36 37 41 40 40 40 44 42 45 45 46 48 50 52 53 52 51 50 48
28 27 23 32 27 28 30 26 27 26 27 33 32 31 36 37 33 35 27 40 42 42 39 36 36 37 37 39 40 41 41 42 43 45 46 48 51 52 53 51 50 48 46
27 27 27 27 31 30 30 29 27 28 29 29 36 32 29 34 35 33 35 32 31 35 38 42 42 37 37 39 40 44 42 42 44 45 46 48 49 50 50 48 47 45 42
29 31 30 30 28 32 35 32 30 29 28 34 31 36 32 34 31 30 32 33 35 36 35 35 38 40 41 41 40 43 42 42 45 46 46 47 48 47 46 44 43 42 42
30 29 33 34 30 39 35 28 30 28 32 31 33 38 36 34 35 34 31 34 37 36 34 33 37 41 44 43 43 43 43 43 43 44 43 44 44 43 42 41 40 40 41
32 30 32 35 41 35 30 26 28 25 25 32 36 36 43 34 38 31 33 36 36 35 34 34 35 37 42 43 44 44 42 45 44 44 43 42 41 40 39 38 38 39 41
31 32 33 37 40 35 24 25 29 23 34 31 31 36 40 38 36 31 33 34 35 36 37 36 35 32 37 40 41 44 43 42 43 41 40 39 37 37 35 35 36 38 40
33 32 42 40 36 28 33 32 24 30 31 40 37 38 39 38 32 31 34 37 37 37 41 39 38 33 34 35 41 46 43 41 41 40 37 35 33 33 33 33 35 38 39
31 34 33 31 29 30 33 30 34 33 33 44 43 41 39 35 33 33 37 38 39 41 44 44 39 35 34 37 41 45 45 41 41 37 35 34 32 32 31 33 36 37 37
29 31 31 26 24 31 31 25 36 38 38 36 39 39 37 38 33 37 36 38 42 43 44 44 43 38 35 37 39 41 44 42 40 35 32 31 31 30 30 32 35 35 34
31 32 31 29 28 34 39 33 33 37 35 42 40 41 42 36 36 35 38 41 43 41 41 39 41 40 39 37 36 38 42 44 40 32 31 30 29 29 29 31 33 33 30
30 31 31 31 36 33 33 38 40 41 38 38 42 40 34 34 35 38 41 43 44 46 44 41 48 44 37 42 36 38 43 36 30 37 31 30 29 30 28 31 32 30 28
32 32 32 34 32 35 36 33 37 38 38 40 37 33 33 36 40 42 43 44 44 47 48 48 49 49 48 44 42 41 39 39 36 37 30 28 28 29 28 30 33 33 27
29 33 33 32 31 33 35 34 36 38 37 36 34 35 38 41 44 46 49 49 50 50 50 49 48 49 48 46 43 43 39 37 40 33 29 28 28 27 28 29 30 29 28
34 33 35 33 31 33 32 34 35 36 35 36 38 40 43 44 46 48 50 52 53 53 49 48 47 44 45 43 41 42 37 39 37 33 31 29 27 26 27 28 29 30 28
34 31 30 29 30 31 31 32 33 35 37 39 41 43 45 47 49 51 53 54 52 45 48 48 47 43 40 35 42 39 37 36 35 32 30 29 25 25 26 27 29 29 28
28 27 26 26 27 27 33 31 33 37 39 40 42 44 47 50 51 52 53 54 52 45 44 46 46 43 40 37 39 33 33 34 32 29 27 27 25 25 25 26 28 29 27
24 23 23 25 27 28 35 34 34 38 40 43 46 48 50 52 53 54 54 53 44 40 39 39 41 39 35 38 35 31 32 28 28 29 25 24 24 25 26 26 27 28 26

GFSMA_700_spd_060.txt.gz
Wind_Speed
21 16 13 8 6 4 4 6 10 9 6 4 5 5 6 6 10 9 11 11 10 9 10 15 19 20 20 19 19 19 21 21 22 24 25 25 23 24 26 29 30 29 30
16 16 10 8 6 5 7 8 9 9 6 5 6 7 8 8 10 13 9 13 14 15 17 20 22 23 23 22 21 22 24 25 26 28 29 29 28 27 26 27 29 31 33
17 13 9 9 8 9 9 10 10 10 7 7 7 10 9 10 10 14 18 16 18 21 20 23 27 27 27 27 25 24 24 24 26 28 31 32 33 33 33 32 33 33 34
18 13 12 11 11 11 10 11 12 12 9 11 11 12 14 14 14 16 19 25 26 26 26 26 25 27 28 27 27 26 27 28 30 33 34 36 37 38 40 39 39 41 40
17 15 14 13 14 14 12 12 14 13 13 14 15 17 18 19 19 19 21 23 25 30 33 29 26 27 28 28 29 30 31 30 34 36 37 38 39 40 42 44 45 46 46
21 18 17 16 18 18 16 17 15 15 19 18 18 22 21 22 24 25 24 28 25 23 26 30 29 34 35 34 34 33 33 34 36 39 40 41 42 42 43 45 48 49 50
21 24 20 20 21 20 23 20 19 19 22 23 21 23 27 28 27 30 33 32 29 31 26 27 30 34 36 37 38 39 39 35 35 37 38 40 43 45 47 48 49 51 53
19 15 16 22 25 24 27 23 24 24 23 24 25 25 27 30 34 32 36 36 31 27 30 35 36 32 34 36 38 40 39 36 34 36 39 40 43 45 47 49 50 52 55
21 17 17 22 31 30 30 28 25 28 25 29 25 26 30 30 33 34 35 36 39 31 30 31 31 35 37 38 37 38 35 37 38 39 40 42 43 45 47 48 50 52 54
19 23 24 27 32 28 29 32 28 28 30 30 32 30 30 32 36 31 34 40 37 35 33 35 36 36 35 36 36 38 36 36 37 40 43 44 45 46 47 48 50 51 51
18 22 25 26 29 30 31 31 32 27 35 29 35 29 32 32 31 39 38 33 36 36 35 38 42 44 40 37 37 39 38 36 37 41 44 44 45 47 48 48 48 48 46
22 24 28 27 29 32 33 31 33 38 42 34 22 32 30 32 34 40 40 37 33 31 28 33 38 42 44 42 41 41 39 39 40 43 44 43 44 45 46 47 46 44 41
23 22 26 27 28 32 32 37 35 37 39 25 30 31 30 36 35 35 41 36 42 33 30 31 35 39 42 45 46 47 47 46 45 43 43 40 43 44 46 45 42 38 37
23 27 27 26 30 31 33 41 46 39 34 28 31 31 32 39 34 39 41 39 41 36 30 34 37 37 38 40 45 49 52 51 49 45 44 43 41 43 43 42 38 36 35
28 28 29 30 31 29 38 33 32 24 24 27 27 34 40 39 42 41 43 38 36 39 41 35 37 36 37 40 45 48 51 53 50 47 43 42 41 41 39 39 36 35 33
26 28 29 30 29 32 30 23 25 29 28 30 31 34 34 43 41 36 36 39 41 37 38 36 37 39 39 40 42 46 49 50 49 48 45 41 39 38 35 35 33 32 32
29 29 28 29 30 32 24 28 23 27 32 36 36 35 34 43 42 40 41 39 35 36 39 40 42 42 42 42 43 44 46 49 50 48 46 45 42 35 34 33 31 30 32
28 27 29 30 30 27 31 24 28 31 31 36 37 43 42 39 40 42 37 35 34 36 40 45 44 45 45 43 41 44 46 47 48 51 48 48 42 33 32 30 28 29 31
29 30 29 29 30 30 31 32 31 34 34 36 38 41 36 39 39 37 35 36 38 40 42 41 46 45 45 46 47 48 48 48 44 46 45 47 45 37 36 31 28 28 29
31 31 30 29 32 28 32 34 33 35 39 39 36 40 39 37 36 34 35 37 39 42 43 43 47 48 50 50 50 51 52 49 48 44 45 44 42 41 38 31 27 28 29
33 33 32 34 32 34 33 34 36 37 39 35 35 36 35 34 35 37 40 42 43 45 47 49 52 52 51 51 51 53 53 50 49 41 42 45 44 40 35 29 29 28 28
33 32 31 32 34 35 37 34 33 35 33 33 34 33 34 35 37 38 41 44 46 50 54 54 55 53 50 47 46 47 49 48 43 37 39 38 42 35 31 30 29 26 27
31 32 33 34 35 34 32 29 31 32 32 32 34 36 37 38 40 42 45 48 50 52 54 56 55 53 51 49 47 45 43 39 36 42 37 38 36 34 32 29 25 24 27
32 33 33 32 31 31 27 26 28 30 33 35 36 37 39 42 43 46 50 53 55 56 56 55 54 50 49 51 48 46 41 38 37 38 31 35 31 31 28 25 22 23 26
32 32 30 28 30 30 29 26 29 33 35 35 36 38 40 43 46 49 53 57 59 59 57 53 50 47 43 44 46 40 38 31 36 34 29 28 27 28 28 23 21 23 24
29 27 27 27 29 30 30 29 31 33 35 37 38 40 42 46 48 51 54 56 58 55 53 51 47 41 40 38 36 34 41 34 34 31 25 29 26 28 27 22 22 23 24

GFSMA_700_spd_063.txt.gz
Wind_Speed
32 21 20 18 13 8 4 2 3 4 4 2 4 5 8 6 4 5 6 8 8 8 9 11 13 16 17 16 17 17 17 17 18 18 18 18 18 19 20 21 22 24 25
24 24 20 16 10 6 4 5 4 4 4 6 7 7 9 10 6 6 8 11 12 10 13 15 17 18 17 17 17 17 17 17 19 20 22 23 22 23 24 24 26 27 28
27 25 18 14 9 7 7 5 6 7 7 8 9 9 8 11 13 10 11 13 15 16 20 21 19 18 17 19 20 18 19 21 23 24 26 28 30 30 29 29 29 30 31
30 23 17 13 11 8 8 9 9 10 8 8 10 10 10 11 14 16 15 16 17 20 19 18 21 20 21 22 23 22 22 24 25 28 31 33 33 34 33 33 32 33 34
22 18 13 12 11 11 11 11 11 13 13 12 10 13 13 13 16 17 22 23 23 25 21 20 22 21 23 23 23 24 23 26 30 33 34 35 34 33 34 35 36 37 39
26 19 16 15 14 13 13 14 15 17 18 17 17 18 17 18 20 21 20 25 30 31 27 26 24 24 25 24 25 27 26 27 30 34 35 35 35 37 38 38 39 40 42
21 18 17 18 18 14 15 18 20 20 22 21 24 26 25 25 22 24 25 26 30 28 25 31 30 28 28 28 30 30 29 28 30 34 35 35 36 39 40 42 43 44 45
18 18 13 15 15 15 17 21 23 24 24 25 25 27 31 32 28 27 29 31 33 31 31 31 32 31 28 30 33 33 32 32 31 32 34 35 37 38 41 43 45 46 47
19 17 17 16 13 18 14 18 24 28 30 30 29 28 35 36 31 29 29 34 32 37 35 35 37 37 35 32 32 31 31 32 33 33 34 36 37 40 42 43 45 47 48
18 18 19 22 20 21 24 24 23 24 34 32 36 32 39 38 31 28 30 31 36 37 36 39 37 37 37 34 31 32 34 33 34 34 35 38 40 42 45 46 47 48 48
17 20 20 18 20 21 19 22 25 28 34 32 31 33 42 36 29 26 32 32 35 36 39 41 39 40 36 34 34 38 38 37 37 37 39 42 43 44 47 48 48 48 48
16 22 20 20 22 25 27 29 29 30 33 31 34 38 41 30 30 27 34 34 34 36 39 39 43 39 36 38 42 44 40 40 40 42 42 42 44 44 45 47 48 47 47
13 14 17 20 22 24 26 28 29 29 31 32 34 37 32 26 29 31 32 39 41 40 37 38 38 37 40 40 46 44 45 45 47 46 43 43 44 44 43 43 45 46 45
15 16 20 19 23 22 23 24 25 30 27 26 24 26 22 26 26 33 40 43 46 39 34 33 35 38 38 39 42 43 45 47 48 50 49 48 47 46 43 41 43 44 43
20 13 16 21 23 24 23 23 24 27 30 20 18 24 29 27 31 32 33 43 40 40 41 36 34 31 33 36 37 42 45 45 48 50 50 49 50 44 46 44 42 42 40
15 17 18 22 21 22 23 26 29 23 25 24 21 24 27 37 36 33 35 39 43 42 46 39 33 32 31 33 37 40 42 44 47 46 47 48 46 44 46 41 42 38 37
12 17 21 22 22 24 24 26 21 26 27 27 26 30 32 36 40 40 35 35 38 37 40 39 37 36 38 39 39 41 42 43 44 48 50 47 48 45 45 43 39 39 35
16 20 21 22 24 25 27 25 31 27 26 30 29 33 34 39 35 36 37 36 35 33 36 42 41 41 41 40 42 42 42 45 45 47 51 47 50 48 46 43 37 39 35
17 20 23 27 28 26 26 28 24 25 31 30 35 33 39 39 35 38 36 35 34 35 37 41 45 45 46 45 45 47 46 42 45 54 50 44 53 51 42 40 38 40 36
23 26 29 31 30 30 31 26 28 33 33 34 36 38 33 32 34 34 34 35 37 39 40 43 46 48 50 49 48 50 50 49 49 49 47 48 45 47 41 39 38 38 35
28 30 31 30 31 26 31 25 35 33 34 35 31 34 32 32 31 34 38 41 42 43 44 47 50 52 55 55 53 51 49 46 47 46 45 45 42 40 35 34 37 37 36
30 30 31 30 29 29 30 32 33 34 31 28 31 30 29 31 35 36 37 39 42 44 47 50 54 57 59 60 58 55 48 50 51 45 41 41 38 34 32 33 33 35 32
31 30 29 30 30 30 31 30 29 27 26 27 28 30 32 33 35 39 41 41 43 45 48 52 56 57 60 60 60 56 51 50 51 42 43 37 34 33 28 30 31 31 27
29 28 29 31 31 30 28 27 25 25 25 26 30 33 34 36 38 41 44 46 48 48 50 53 55 57 58 57 54 53 48 45 46 42 36 32 28 28 24 26 29 26 23
28 29 30 31 30 27 24 23 24 26 28 30 31 33 36 38 40 43 47 49 50 49 51 52 53 53 53 50 46 44 42 39 39 32 30 27 25 25 25 25 23 20 21
28 29 29 29 28 26 24 25 27 29 31 31 32 34 36 39 41 44 47 49 52 52 52 51 49 49 47 41 35 35 34 35 31 28 31 24 21 24 27 24 21 19 19

GFSMA_700_spd_066.txt.gz
Wind_Speed
35 30 23 23 20 12 10 7 3 3 5 7 7 5 3 3 3 3 2 2 4 4 4 6 8 12 12 11 12 12 12 12 13 14 14 15 15 17 19 21 23 23 23
31 28 27 21 15 11 9 7 4 3 2 4 5 5 5 5 5 5 6 6 7 7 9 13 15 13 13 12 13 14 14 14 16 17 18 19 19 21 24 26 27 27 28
32 29 26 19 15 15 13 7 5 2 2 4 6 8 10 9 9 9 9 9 10 12 14 18 16 16 17 16 16 17 17 18 20 21 23 24 24 24 27 29 30 28 29
34 30 26 20 17 15 11 9 3 2 3 5 9 12 12 13 13 13 12 12 13 15 18 22 22 21 21 19 20 19 18 20 23 27 29 28 28 29 32 32 31 31 33
32 32 24 19 19 16 12 7 5 5 6 7 11 13 15 17 18 17 16 16 17 19 22 23 22 22 23 24 23 20 21 24 27 29 30 32 33 33 34 34 35 36 37
34 28 23 24 19 16 10 8 10 10 12 14 15 17 15 16 22 23 20 21 21 23 25 24 21 24 26 27 26 23 25 26 29 29 30 33 34 34 35 36 37 38 39
35 28 25 22 18 12 11 11 12 13 15 20 23 24 24 22 21 21 23 25 26 26 29 26 25 24 25 26 26 28 29 30 31 29 31 33 34 35 36 38 40 42 43
31 28 24 21 17 15 16 13 13 15 17 20 25 28 28 30 28 28 28 26 29 29 32 29 32 31 29 31 31 32 31 32 32 30 33 33 35 36 38 41 43 45 46
31 28 22 9 12 8 14 13 11 15 15 21 26 30 38 37 35 32 32 33 29 28 30 31 32 31 32 33 34 35 36 34 32 35 33 32 34 37 41 43 46 48 49
25 22 21 21 19 15 13 15 19 18 17 21 25 32 35 38 38 42 38 33 26 27 30 37 37 37 37 34 35 38 34 35 40 34 33 34 36 39 44 46 49 51 51
24 22 20 19 17 15 14 19 21 22 24 24 27 32 28 24 32 40 45 37 28 25 30 34 34 43 41 40 41 41 40 43 36 33 35 37 39 42 46 48 50 51 51
19 20 21 19 21 18 20 22 24 25 27 27 27 29 30 36 32 33 37 31 32 31 31 39 42 43 39 41 45 43 44 42 39 38 40 42 43 45 47 48 51 51 51
17 18 16 22 24 25 21 19 21 23 24 28 26 26 29 30 27 24 25 28 30 33 36 35 37 39 38 40 41 43 44 42 42 43 45 47 47 46 45 45 46 47 47
17 19 19 20 22 17 21 22 22 22 23 28 29 25 30 23 23 25 23 27 36 38 39 37 36 38 38 39 42 42 42 41 42 46 48 49 49 48 43 43 43 44 47
19 17 24 22 19 20 22 24 22 20 25 24 22 27 27 25 25 28 27 32 37 44 45 34 37 34 37 38 38 40 41 43 45 48 49 49 49 45 45 43 42 41 42
24 26 19 17 17 20 20 22 23 24 27 20 26 28 29 27 24 28 36 36 42 44 44 38 39 36 34 35 35 39 42 45 47 48 48 47 46 48 47 49 51 40 41
20 13 17 19 19 22 24 23 23 26 27 25 28 26 28 29 33 31 37 42 43 39 45 44 42 37 37 38 39 41 43 46 47 47 47 48 48 50 40 47 49 45 44
12 17 18 18 20 24 26 25 27 30 28 31 29 20 34 30 39 34 40 43 37 40 42 43 41 41 40 40 42 45 46 48 50 48 46 45 49 49 47 46 47 44 41
13 16 19 21 24 25 27 27 28 28 30 27 26 32 36 32 37 44 40 37 37 38 39 42 44 43 44 44 46 47 50 51 52 49 50 51 48 49 49 47 43 40 40
18 19 20 22 25 28 30 32 27 33 30 30 32 35 31 38 40 38 36 35 35 37 38 42 45 47 48 48 50 52 54 54 56 53 50 50 49 47 52 44 46 36 35
21 21 23 26 29 30 29 28 28 33 25 34 36 34 39 36 33 33 33 35 37 38 40 44 47 50 51 52 54 57 60 60 60 55 51 48 47 47 45 45 42 27 30
22 25 28 28 29 28 27 26 25 30 34 35 34 33 28 30 32 34 35 36 38 40 42 46 49 52 53 54 56 57 59 60 61 58 55 47 47 47 36 37 34 30 30
26 29 28 30 29 28 26 26 28 30 30 29 26 27 28 31 33 33 34 36 38 40 45 49 52 52 54 55 57 58 58 58 58 53 39 43 40 38 36 29 24 26 27
30 30 31 29 27 26 26 27 26 27 27 27 28 29 30 32 33 35 37 38 40 42 44 46 49 50 51 53 54 55 55 53 50 43 38 40 31 29 26 22 25 25 26
30 30 28 26 27 27 27 27 26 27 27 29 30 31 32 33 35 37 39 42 43 45 47 48 48 50 51 52 50 51 47 45 44 35 27 23 25 25 23 23 24 24 25
31 29 28 28 29 29 27 27 28 28 29 30 30 33 34 35 36 38 41 43 45 48 49 49 49 50 50 48 46 41 36 39 38 33 21 24 25 25 18 21 21 23 23

GFSMA_700_spd_069.txt.gz
Wind_Speed
34 32 30 24 20 14 14 11 7 6 8 7 8 6 4 2 2 2 2 2 1 3 5 6 8 12 14 13 13 14 14 14 15 15 16 16 17 19 22 23 23 23 24
33 33 27 22 19 17 18 11 7 6 5 6 8 7 5 2 2 3 4 3 4 4 6 9 10 12 13 15 17 17 18 17 18 18 19 21 22 22 23 25 26 26 28
35 29 26 25 20 19 12 10 7 5 4 5 6 6 6 5 5 7 6 7 8 9 10 12 14 16 16 16 17 18 20 21 20 22 23 26 26 26 26 28 30 30 30
34 30 28 20 25 17 12 10 7 6 3 4 5 6 7 8 9 10 10 10 12 13 14 16 19 20 18 16 18 20 23 24 25 26 27 28 29 30 31 31 32 33 34
42 29 25 25 22 17 13 10 10 7 3 5 6 9 10 12 14 14 14 15 15 16 17 18 20 20 17 18 20 20 23 26 27 29 31 33 35 34 34 34 36 37 38
42 32 27 29 19 18 15 11 13 10 7 8 9 10 11 16 18 18 19 19 20 19 20 20 22 21 20 20 21 21 24 26 29 32 34 36 37 37 37 39 40 40 40
37 31 30 25 23 19 15 14 15 11 10 13 15 14 16 17 18 18 24 24 22 23 22 24 25 27 24 24 24 24 26 28 31 34 37 37 36 37 41 43 41 41 42
43 34 33 27 24 20 15 19 14 13 15 16 18 19 21 21 21 28 27 28 25 31 30 26 26 28 27 27 30 29 28 29 32 37 38 37 38 43 43 42 42 43 45
39 38 34 28 23 19 19 22 17 14 12 17 17 21 25 26 27 25 29 31 31 34 35 28 26 27 28 31 31 31 30 32 33 37 37 38 45 44 41 42 44 46 49
37 37 31 26 19 21 21 15 17 19 21 20 20 23 24 30 31 26 18 21 30 33 38 34 30 31 33 37 40 34 33 33 37 38 40 43 40 39 40 43 45 48 50
36 32 29 25 25 19 24 23 23 22 23 25 26 26 27 31 31 34 34 30 34 29 35 39 33 37 34 36 43 40 36 37 40 41 43 41 41 41 42 43 46 49 51
29 30 28 26 26 28 26 23 23 25 27 27 27 30 28 30 34 24 35 35 34 26 31 32 37 37 36 37 40 43 41 42 43 44 44 44 44 44 45 46 48 49 50
26 26 25 28 29 28 28 30 28 25 24 28 29 28 30 33 35 29 31 35 29 25 26 31 35 35 38 40 39 42 44 44 44 44 44 45 47 48 49 50 51 49 48
24 25 26 25 26 28 32 32 20 26 26 27 29 27 33 31 37 33 28 30 33 36 31 30 31 35 41 40 40 42 46 45 44 44 45 47 49 50 51 51 49 48 47
26 27 28 29 31 28 32 19 22 25 27 28 28 29 33 32 32 27 33 33 32 34 39 34 37 36 36 38 42 44 44 43 45 45 47 49 51 53 53 50 49 49 51
30 31 33 34 32 29 26 20 25 25 27 29 28 30 29 30 33 32 30 32 35 37 42 39 43 37 35 35 37 40 42 43 45 46 48 50 52 53 52 52 49 53 50
33 35 48 38 25 24 27 28 27 27 29 30 30 29 30 31 34 32 31 35 39 42 42 48 43 39 37 36 38 39 41 44 45 46 48 50 52 53 53 49 52 54 54
19 13 1 20 24 31 29 31 29 31 32 29 34 33 28 30 38 36 31 37 40 40 48 46 41 39 40 39 41 43 42 45 47 49 51 53 54 55 54 49 54 53 47
15 10 15 20 25 27 30 31 30 33 34 36 39 33 36 34 35 41 45 38 38 42 43 43 42 41 42 42 43 46 47 49 50 51 53 55 56 55 54 49 50 50 49
30 25 22 24 26 27 29 32 36 37 38 34 37 38 39 37 41 44 40 39 43 39 39 41 42 43 44 44 46 50 53 53 54 53 54 55 56 55 51 45 45 49 43
24 26 25 26 25 29 31 33 36 39 39 31 37 41 36 40 43 47 41 45 39 39 40 41 41 43 44 46 49 51 55 56 57 56 57 57 56 54 48 40 45 43 44
24 26 25 25 27 31 33 35 36 37 34 42 34 39 34 42 45 42 41 37 38 39 40 41 41 43 46 48 51 53 55 57 61 58 59 57 53 51 42 32 34 34 34
25 27 28 29 32 35 36 35 35 34 34 30 38 39 43 40 38 36 35 37 38 39 40 41 43 44 47 48 51 54 55 57 59 57 54 54 47 44 33 31 27 24 30
30 30 31 33 33 32 31 31 31 31 33 35 40 40 38 37 36 36 37 38 37 38 40 42 44 46 47 48 50 53 55 56 56 52 47 48 40 34 23 21 22 27 27
32 33 34 29 31 31 31 31 32 34 36 38 37 37 36 36 36 36 37 37 37 38 39 40 41 42 42 44 47 52 53 53 52 47 40 41 34 24 18 19 19 21 22
34 33 30 31 31 31 32 32 34 35 35 35 36 36 35 37 38 38 37 38 39 39 39 39 39 40 43 45 48 50 50 50 47 44 35 36 29 21 19 18 24 18 19

GFSMA_700_spd_072.txt.gz
Wind_Speed
36 32 26 21 19 20 16 6 10 12 8 7 8 8 7 5 4 4 4 3 2 0 2 3 5 8 9 10 10 11 13 15 16 17 17 17 17 18 20 20 21 22 24
36 36 28 22 20 16 11 6 12 7 5 8 9 9 7 5 4 4 3 3 2 4 5 5 7 10 11 13 13 13 14 16 18 19 19 21 21 21 21 23 25 26 27
43 40 31 25 21 15 11 15 9 5 5 7 9 7 6 5 4 3 2 4 6 7 9 9 10 13 14 14 12 12 16 17 18 20 21 23 25 24 25 27 28 30 29
44 31 25 24 20 14 13 14 8 5 6 6 6 5 6 6 6 6 5 7 10 11 13 13 14 16 17 15 14 16 18 18 19 21 22 24 26 29 30 30 32 32 32
33 33 31 24 19 15 12 13 8 7 7 7 5 5 6 7 8 9 9 11 14 16 18 19 18 18 18 17 17 18 19 20 21 22 23 25 28 32 33 34 33 33 37
39 38 33 25 19 19 17 14 8 9 10 8 7 7 8 9 9 11 12 14 17 19 20 23 23 22 22 21 20 21 22 24 25 26 27 28 32 34 35 34 34 37 42
40 39 32 26 23 18 18 14 11 10 13 13 13 12 13 14 14 13 14 20 22 20 24 21 25 29 28 26 24 23 22 26 30 31 31 29 32 36 36 36 39 43 46
39 40 30 25 23 21 18 14 13 14 16 18 16 14 15 16 16 16 18 22 21 25 25 26 28 33 30 30 27 24 26 27 31 32 34 34 34 36 38 40 44 45 45
30 34 34 26 23 23 21 17 16 18 22 17 14 15 17 19 16 17 24 23 20 19 22 27 29 32 34 31 28 29 33 32 31 31 34 38 39 38 41 44 45 44 45
29 29 27 27 26 27 23 21 20 23 25 20 24 22 22 23 24 24 24 25 25 21 26 25 25 31 33 35 34 34 37 30 36 34 34 39 42 42 43 45 44 44 45
34 37 33 34 30 26 27 29 24 22 20 25 24 27 29 28 27 29 33 29 31 26 28 37 23 27 32 29 36 39 38 38 37 38 38 38 42 46 47 45 44 45 46
32 35 35 35 30 30 22 21 27 26 27 30 29 31 31 30 29 31 31 31 38 29 30 36 24 33 30 33 37 38 41 39 38 40 41 42 43 45 42 33 37 39 43
27 31 35 32 30 30 28 29 33 33 34 34 31 30 30 31 32 34 35 39 33 32 32 30 27 30 31 34 35 42 42 38 38 40 42 44 44 44 43 41 41 41 44
25 25 27 27 30 33 33 32 34 38 37 37 31 32 32 33 35 34 35 38 38 33 32 33 28 27 31 33 39 42 38 40 41 42 41 42 44 46 48 49 49 46 49
27 28 31 32 34 37 38 33 35 38 47 23 28 31 31 33 36 33 40 36 36 36 34 30 30 26 33 35 43 39 40 41 41 41 43 44 46 48 50 52 53 54 50
26 30 32 36 37 38 37 38 35 29 20 26 28 30 31 33 34 38 33 37 36 34 35 34 34 36 31 37 37 38 39 41 42 44 45 46 47 49 52 53 55 57 57
29 32 34 38 40 37 44 45 39 26 22 28 32 31 31 35 34 33 35 36 37 43 41 40 41 37 38 37 36 37 40 42 43 45 45 47 49 51 52 54 55 57 58
33 33 34 27 24 32 43 42 35 34 34 35 34 36 37 33 42 39 36 37 40 41 47 50 41 42 39 38 39 41 41 42 44 45 47 48 50 51 51 53 54 56 57
36 35 23 24 19 15 6 18 32 36 36 35 38 38 35 37 40 39 38 37 39 42 49 51 44 45 41 40 43 43 45 46 47 47 48 49 49 51 52 53 54 54 54
42 44 20 22 22 22 27 31 34 33 35 39 35 41 39 40 46 41 41 35 41 44 48 45 45 44 44 44 45 47 48 46 48 47 47 49 50 53 53 54 53 49 45
26 20 33 37 31 30 32 32 35 36 37 37 35 44 43 45 38 41 42 36 44 48 50 45 44 44 45 45 47 48 49 50 49 47 50 51 52 54 52 50 48 45 40
22 22 23 28 32 31 31 33 36 36 39 39 44 42 44 37 47 47 42 41 46 50 45 43 43 45 44 45 46 47 48 48 51 50 53 54 52 51 48 47 44 40 32
25 26 27 29 31 33 34 35 37 37 37 41 37 45 43 46 41 42 46 49 48 45 44 44 44 44 44 43 45 46 44 47 49 50 55 58 50 50 45 42 39 32 25
28 29 31 33 33 35 38 39 39 39 37 40 41 45 42 42 41 48 48 46 45 45 45 45 43 42 42 42 44 44 45 49 51 52 52 57 48 46 42 36 28 23 22
32 34 35 36 36 38 42 39 34 37 38 40 41 41 43 42 47 47 46 45 45 46 45 43 42 41 41 42 42 44 45 49 52 52 49 51 45 42 37 30 21 23 23
34 35 40 41 39 40 41 36 36 36 37 40 41 42 44 46 46 46 46 47 46 45 42 41 40 41 42 40 40 43 46 49 50 53 46 46 42 38 36 24 17 21 19

GFSMA_700_spd_078.txt.gz
Wind_Speed
41 37 38 32 29 27 25 22 18 15 9 8 7 7 8 9 10 9 10 10 10 10 8 7 6 6 6 7 9 10 12 12 12 11 11 11 11 12 14 16 17 18 20
48 36 39 32 30 28 25 21 16 12 11 10 6 11 11 11 10 10 11 11 9 8 7 7 6 6 6 8 10 12 14 13 14 14 14 13 14 15 16 17 19 21 21
40 37 39 32 31 26 27 22 18 14 7 10 14 13 12 12 11 11 12 11 10 9 8 8 8 9 10 10 11 12 13 14 16 17 16 15 16 17 19 21 23 24 24
34 37 32 32 33 32 23 19 15 11 15 15 14 15 14 12 10 10 9 9 8 8 10 10 11 12 13 14 15 15 16 17 19 20 20 19 19 21 22 26 26 25 25
44 42 47 45 40 30 25 21 17 17 14 13 14 15 14 12 10 10 9 9 8 9 10 11 13 15 16 17 18 20 20 21 22 22 22 22 23 24 27 28 28 28 28
51 46 44 36 32 29 31 28 22 17 15 14 14 14 13 12 10 10 9 10 10 10 13 16 17 17 20 22 24 24 23 24 24 26 24 22 24 27 29 30 30 30 30
35 40 44 41 30 28 28 31 25 18 15 14 14 12 12 12 11 11 11 11 12 14 16 18 17 21 21 21 23 28 27 26 27 30 28 28 30 29 28 32 32 31 32
37 40 35 36 34 32 36 29 24 19 16 17 16 16 14 14 12 13 14 16 16 16 21 18 20 20 21 26 26 24 27 25 29 31 34 35 35 33 30 29 31 30 32
41 41 42 43 41 38 33 27 24 22 18 18 17 17 17 17 16 17 15 20 16 18 22 25 20 23 25 28 30 29 28 28 29 34 35 35 33 37 39 38 35 34 35
45 47 35 36 37 39 33 27 21 19 19 18 20 19 24 22 16 19 19 21 22 22 23 24 27 27 25 31 34 30 29 25 30 36 36 34 31 35 37 36 34 39 41
37 48 44 41 40 36 34 29 27 26 21 20 23 25 27 28 21 25 20 25 26 25 28 29 29 27 26 31 29 33 32 29 32 38 37 36 33 35 35 35 37 39 38
35 37 40 45 45 42 39 32 29 24 23 26 25 27 29 31 26 26 25 25 27 30 28 28 29 30 31 33 32 33 29 33 37 39 34 37 37 38 36 36 37 37 39
33 29 28 31 40 42 39 35 30 27 24 27 29 28 29 33 30 33 31 31 36 27 34 31 28 34 33 29 28 32 30 31 32 35 38 36 39 38 37 36 37 38 40
27 26 28 26 32 34 37 36 33 31 28 32 31 32 33 34 36 37 38 39 34 31 30 29 30 35 32 31 30 26 28 30 35 39 37 40 39 37 37 39 40 40 41
22 26 28 27 32 33 34 36 35 34 37 37 37 37 39 39 40 40 41 41 33 30 29 33 30 32 32 32 34 35 37 36 38 37 38 39 38 38 40 41 43 43 45
18 21 22 25 28 30 33 35 37 39 41 40 41 44 43 44 46 46 47 37 33 31 30 31 32 35 35 38 36 37 35 38 40 41 40 40 40 42 44 45 46 46 48
21 24 26 27 29 30 33 36 38 41 43 44 46 49 48 48 47 38 29 24 31 32 32 35 34 33 34 36 39 40 38 40 43 43 43 42 42 44 44 46 47 48 48
24 25 28 30 32 34 36 39 39 40 45 50 45 46 49 51 50 34 31 28 27 35 35 32 34 36 39 40 37 41 47 45 44 47 42 43 44 44 46 46 47 48 50
28 30 31 32 35 37 39 40 39 41 43 40 38 40 47 50 48 27 33 45 38 38 33 34 36 41 36 40 39 41 47 47 48 46 44 44 45 44 45 46 49 52 50
33 33 32 31 37 38 42 42 43 43 45 39 34 31 25 23 22 29 39 41 39 40 33 37 39 41 39 44 42 40 47 49 47 45 45 44 43 43 47 50 50 48 48
32 33 33 32 34 41 43 43 49 53 49 40 34 36 40 37 36 39 41 39 42 38 36 39 42 44 42 47 42 44 46 52 47 43 43 41 44 48 54 50 46 44 46
33 37 42 41 39 39 38 36 43 46 42 44 42 42 41 41 41 41 38 42 34 43 42 47 49 47 47 45 43 50 51 49 47 48 45 43 50 56 50 46 41 40 44
36 38 39 40 42 40 38 39 35 39 42 43 43 44 43 44 45 39 39 38 42 42 48 48 51 48 46 47 50 52 50 49 47 44 47 55 59 52 48 43 40 40 45
34 37 40 40 40 39 39 39 37 39 41 43 43 43 47 48 45 42 49 42 44 40 47 49 54 48 47 51 54 52 48 48 49 46 55 60 53 49 49 42 40 41 43
28 34 37 40 41 40 39 40 41 41 43 45 44 46 51 47 43 47 45 39 42 44 52 53 47 51 50 54 51 49 48 50 55 56 56 53 50 49 46 40 40 42 44
30 32 36 38 40 42 42 43 43 44 46 48 49 49 44 41 48 46 43 37 46 50 51 49 51 53 55 53 50 47 51 53 54 57 54 51 48 44 44 40 38 39 41

GFSMA_700_spd_081.txt.gz
Wind_Speed
40 32 36 37 31 29 27 26 23 20 19 17 15 13 13 13 10 12 12 13 13 12 11 10 8 8 8 7 7 8 9 10 11 13 12 12 12 12 12 13 15 16 18
45 36 36 33 36 32 30 27 24 21 18 16 14 13 13 12 12 13 13 13 12 10 9 7 8 7 8 7 7 8 9 10 11 12 14 15 14 13 14 15 18 21 23
46 39 41 35 34 34 32 28 25 22 18 16 15 14 12 11 13 13 12 11 11 10 9 9 8 9 10 9 10 10 10 10 11 13 14 15 16 17 17 18 20 24 23
46 43 43 39 34 33 31 29 26 22 18 16 15 13 13 13 12 10 11 11 11 10 10 10 10 11 12 13 15 16 16 17 18 18 18 19 19 20 20 21 23 25 25
44 53 45 37 33 34 33 28 25 20 16 15 15 14 14 14 13 12 10 10 10 11 10 11 12 13 14 16 18 18 19 20 21 21 21 21 23 24 24 25 27 27 28
26 39 46 38 38 41 39 36 28 22 16 18 17 16 16 15 14 13 12 11 12 11 12 13 14 15 17 17 19 19 20 20 23 24 22 23 23 24 27 29 30 31 30
38 41 40 51 54 45 36 32 22 25 23 22 20 16 16 15 14 13 12 12 12 13 14 16 16 18 18 21 21 21 22 25 22 24 24 25 24 27 29 29 28 29 29
43 47 49 45 37 31 37 30 27 27 21 20 18 17 16 16 14 14 14 15 16 18 17 17 18 20 23 21 22 22 25 30 30 27 28 26 26 26 27 27 28 28 29
27 40 42 42 44 38 34 33 31 29 25 22 20 20 18 18 15 18 18 20 18 17 19 19 20 20 21 25 26 24 28 31 33 30 30 31 32 34 33 33 34 33 33
24 33 36 41 38 38 34 30 35 33 31 26 24 24 22 18 20 18 16 17 18 18 19 20 25 25 26 25 26 28 30 30 29 32 32 33 33 36 36 34 35 35 35
26 31 41 44 44 39 36 32 42 38 32 31 26 20 18 21 21 23 22 23 21 21 21 22 27 27 29 29 29 29 31 29 30 32 32 33 37 38 34 35 35 37 37
24 31 42 45 41 42 41 41 36 35 33 32 30 25 24 24 24 24 26 28 25 27 27 26 30 29 32 30 29 32 30 29 28 30 33 31 36 34 36 34 36 37 37
29 27 35 41 42 39 37 36 39 37 34 32 31 27 26 27 23 25 27 26 30 31 35 36 35 31 34 30 28 32 30 30 28 27 26 28 31 36 36 37 38 38 38
26 28 26 27 40 44 38 40 40 40 36 35 34 31 28 28 26 28 32 31 36 36 37 35 33 32 30 34 31 29 30 28 30 29 34 35 33 34 36 39 39 38 40
26 30 25 30 30 34 43 40 44 42 39 38 34 33 32 33 34 33 34 37 38 43 43 40 34 29 32 32 33 31 37 35 32 33 35 33 35 36 38 40 40 41 42
22 26 29 29 30 31 32 34 37 43 40 40 38 36 35 34 39 40 41 43 46 44 43 44 30 30 27 37 35 34 37 36 35 37 38 39 41 41 42 42 42 43 44
21 23 24 27 28 30 29 31 34 37 39 40 38 39 38 38 44 48 46 51 52 51 45 39 32 29 33 35 38 37 37 37 40 38 38 45 45 44 44 44 44 45 44
19 21 22 24 25 25 28 30 32 34 36 38 37 41 39 41 48 41 46 55 56 53 37 30 32 36 35 34 36 36 38 40 42 42 47 42 46 47 48 46 45 45 45
24 25 26 26 26 27 30 31 33 35 37 38 37 42 43 45 38 40 40 44 46 46 31 39 32 38 42 37 40 41 41 41 39 45 44 46 48 48 48 47 47 46 47
31 31 31 29 29 30 33 35 37 38 39 40 41 42 45 42 38 41 40 31 27 25 36 41 41 41 44 38 38 40 44 39 45 44 45 47 49 48 47 46 45 46 54
36 35 35 35 34 35 34 35 36 38 39 41 43 46 51 49 40 41 40 38 38 38 39 47 47 41 47 45 38 41 44 44 47 46 45 52 53 51 47 46 45 52 51
38 38 39 39 38 39 39 38 36 37 38 41 44 48 51 51 43 48 44 43 43 43 43 43 41 43 49 45 43 43 45 46 47 48 51 49 49 49 46 47 54 49 44
40 40 39 41 40 41 43 44 42 42 43 43 40 45 46 43 46 50 51 48 51 41 47 46 48 51 52 47 48 44 46 50 48 50 54 56 50 49 49 53 50 44 43
35 37 38 38 42 42 42 42 41 42 45 48 46 43 43 45 47 50 50 47 49 48 52 50 52 53 48 40 42 43 46 52 55 51 50 54 51 53 50 52 47 44 40
29 31 32 34 39 41 42 43 43 44 47 47 47 46 44 45 48 47 50 52 52 53 55 55 50 49 43 41 40 46 50 56 54 50 48 51 53 51 53 49 47 42 39
30 32 33 33 33 37 40 41 43 45 46 46 46 48 46 47 47 48 52 51 54 56 53 49 45 41 45 44 48 54 56 57 52 51 49 52 52 51 53 50 45 39 38

GFSMA_700_spd_084.txt.gz
Wind_Speed
26 31 27 27 37 30 24 26 25 24 22 21 18 19 18 12 14 12 13 14 15 15 14 13 12 9 8 8 7 7 8 8 9 10 11 11 11 11 11 12 13 14 17
29 35 44 37 33 30 28 27 27 25 23 22 20 18 18 11 13 14 14 14 15 15 13 11 10 8 8 7 7 7 9 9 10 11 12 13 13 13 13 14 15 16 19
33 26 35 40 34 31 31 30 28 26 25 23 20 20 16 14 13 13 13 15 14 13 12 11 10 9 7 7 7 8 9 9 10 12 13 14 15 15 16 17 17 18 20
31 29 33 37 33 37 36 32 28 28 26 23 21 18 16 15 11 11 13 14 13 12 12 12 10 9 10 9 10 12 13 14 16 17 18 19 19 19 19 20 21 22 24
41 44 43 34 31 37 39 34 32 30 26 24 21 18 16 13 11 11 14 14 14 13 12 11 10 11 11 11 12 14 15 16 18 18 21 22 21 20 21 21 23 24 26
40 47 39 42 42 40 36 33 34 32 29 25 20 18 13 14 14 13 13 14 14 13 12 12 11 11 12 13 13 15 15 16 17 17 17 20 21 24 24 23 24 25 25
46 42 40 40 45 45 37 35 36 31 30 23 14 20 17 16 16 16 16 14 12 12 13 12 14 13 13 13 16 16 16 16 18 24 21 19 20 23 21 22 22 24 24
23 34 28 49 45 42 43 44 42 32 24 29 30 20 22 20 19 18 16 15 15 15 16 18 15 15 12 15 16 18 18 21 21 25 26 26 24 23 23 23 24 26 25
16 17 30 48 45 41 40 40 34 33 26 27 24 23 24 23 19 19 18 19 19 19 16 17 18 17 19 19 20 20 20 21 25 28 29 28 27 29 29 26 26 26 27
5 9 30 42 47 44 39 41 34 34 33 28 25 24 24 24 23 21 20 21 18 20 21 17 18 19 22 22 24 25 24 25 25 28 30 23 29 30 29 32 30 29 29
9 16 22 38 42 42 42 40 35 36 32 27 26 28 27 24 25 21 18 22 21 17 24 23 23 23 22 25 26 27 29 26 28 31 28 25 28 26 29 30 32 32 33
14 15 21 29 36 38 38 38 37 32 29 31 30 30 30 28 25 24 24 21 20 22 25 24 24 24 28 31 30 29 29 26 28 28 27 27 27 27 25 27 30 32 33
14 12 14 26 32 31 35 39 37 34 35 39 36 37 32 32 29 27 25 23 23 26 26 27 29 30 31 32 33 32 27 31 28 29 27 25 27 26 31 30 29 31 33
13 14 15 14 30 39 42 43 39 33 33 38 43 39 32 31 32 32 28 23 27 30 33 31 33 32 34 35 33 33 32 29 31 28 28 27 29 31 32 31 33 34 36
18 16 20 18 18 28 40 41 38 39 33 38 43 35 33 32 33 31 32 31 32 36 38 37 38 35 34 41 39 31 32 31 31 29 30 31 30 32 34 36 38 39 40
17 18 18 21 21 25 25 36 41 38 34 41 42 39 39 37 36 33 33 34 35 39 46 47 46 44 42 42 41 27 33 31 31 31 31 30 32 35 34 38 41 41 41
17 18 20 23 25 26 30 35 35 39 43 44 44 44 44 40 41 38 37 38 39 37 41 46 48 50 50 43 32 31 32 33 32 31 33 33 34 37 37 45 40 42 43
15 17 19 23 24 27 27 30 32 32 34 36 36 40 41 41 42 37 40 40 41 36 41 43 45 48 49 34 35 35 34 38 37 36 35 36 39 35 42 45 41 43 45
18 20 21 21 23 24 27 28 30 31 33 34 34 37 37 40 42 40 41 42 39 36 37 37 36 31 36 33 33 35 39 40 39 36 36 41 35 38 43 41 43 46 47
24 24 24 25 26 28 29 29 31 32 33 35 36 39 40 41 42 41 43 43 43 46 38 35 39 33 31 36 44 43 40 46 49 43 43 41 36 40 40 42 46 48 47
30 30 30 30 31 31 32 32 33 33 35 34 34 37 39 41 40 41 44 51 47 46 39 39 46 41 40 42 41 48 43 43 54 47 48 48 44 43 39 43 50 50 50
34 35 36 36 36 36 35 33 34 35 34 34 35 35 37 36 37 40 43 46 45 39 40 48 50 54 45 46 47 45 51 54 53 43 43 42 44 44 44 47 50 53 49
35 35 35 38 38 37 36 37 37 38 38 39 41 41 41 39 38 43 41 47 44 40 49 47 54 56 56 47 49 49 55 62 49 43 41 43 44 47 44 48 50 50 50
34 35 36 37 38 38 37 37 39 42 42 44 46 46 47 46 44 45 47 45 48 47 49 52 59 52 56 56 53 54 59 58 49 42 46 48 46 49 47 48 49 47 48
34 34 34 34 35 36 36 36 38 41 44 45 46 48 48 48 47 46 43 45 51 53 50 49 54 57 57 52 61 57 52 50 45 44 48 50 46 50 51 51 48 47 47
39 37 37 36 35 36 34 32 34 37 41 43 44 46 48 49 49 44 42 48 48 54 51 59 63 58 56 58 54 45 48 47 49 48 46 46 48 51 52 51 50 46 44

GFSMA_700_spd_087.txt.gz
Wind_Speed
20 19 14 13 22 28 27 27 27 27 28 25 23 20 16 16 16 16 15 15 15 15 14 14 14 13 12 11 10 8 6 6 7 8 10 10 10 10 11 10 10 11 12
21 22 21 17 21 36 29 29 29 29 28 25 25 21 17 18 19 18 17 16 15 14 15 15 13 12 10 9 8 7 8 7 8 9 9 11 12 12 13 13 14 15 15
26 26 22 22 21 29 35 32 32 32 30 27 27 23 20 17 17 17 17 16 14 14 14 14 13 11 10 8 7 6 6 7 8 10 11 13 14 15 16 17 17 18 19
27 27 26 20 30 38 42 33 32 31 29 28 28 24 20 17 17 17 16 15 14 14 13 13 13 11 9 8 7 8 9 10 11 13 14 16 17 18 18 19 21 21 22
31 29 32 21 37 39 43 37 35 33 31 31 28 25 20 18 18 17 15 14 15 15 15 15 13 11 11 10 9 9 11 12 12 13 13 12 14 18 18 19 20 21 22
34 32 39 36 40 35 40 40 39 37 33 31 29 25 21 18 16 16 15 16 15 16 16 15 13 12 12 11 9 9 11 12 14 15 15 17 20 17 17 18 19 18 18
29 35 46 48 34 31 42 41 39 37 35 31 30 26 20 16 12 14 17 17 16 16 16 14 14 13 12 11 11 12 12 13 15 17 18 20 22 22 20 20 19 21 21
29 29 42 44 43 39 41 40 37 38 38 33 28 26 18 19 24 19 19 18 17 17 18 17 15 15 14 12 12 12 15 15 17 17 20 25 25 24 22 23 24 23 23
21 43 43 40 34 43 42 42 40 41 37 35 31 24 26 34 24 24 21 18 17 17 17 16 15 16 14 14 17 17 19 19 21 22 26 25 25 26 19 24 26 24 21
17 21 24 36 26 42 48 44 41 37 33 36 30 30 28 23 24 24 23 22 21 20 20 21 21 17 18 18 17 19 17 21 23 26 25 26 30 29 25 28 27 25 22
16 16 22 29 33 43 45 48 47 42 42 32 28 27 26 26 26 25 25 20 19 20 22 24 21 22 21 23 25 21 23 26 25 26 25 27 28 28 25 30 25 23 23
11 11 19 24 27 45 44 42 33 34 37 34 33 30 30 30 31 30 26 25 22 19 18 23 23 24 22 23 24 28 29 26 29 30 29 30 29 29 26 28 26 25 28
14 11 10 12 20 26 34 37 37 39 39 36 38 35 31 34 31 28 25 23 24 25 24 24 22 21 27 26 27 29 31 30 31 30 31 31 29 29 28 28 29 31 29
10 9 10 12 19 25 31 36 40 43 39 38 31 27 33 32 35 35 33 30 32 31 26 23 24 25 27 29 33 33 33 33 32 35 35 33 30 28 28 28 29 30 32
18 14 16 16 17 29 34 39 40 42 40 41 37 34 39 38 37 34 32 34 34 31 32 27 31 30 34 38 38 38 38 37 40 42 33 32 31 30 29 30 30 33 33
18 19 18 22 18 19 29 34 36 38 38 39 38 32 35 39 37 38 33 33 35 37 36 33 32 29 31 36 40 44 43 43 41 38 35 35 34 33 30 31 34 34 34
8 11 16 21 23 23 22 29 27 33 42 35 37 38 33 38 40 39 37 36 35 38 40 42 41 35 35 38 36 39 40 42 38 33 35 34 35 35 34 33 37 36 33
13 13 14 16 17 21 26 29 31 32 38 45 41 43 42 44 44 43 41 41 42 42 43 45 42 39 34 37 37 33 40 35 35 33 35 36 40 39 38 37 36 32 39
14 16 18 19 20 20 22 23 27 30 32 35 38 39 36 38 38 39 40 42 41 41 45 46 46 49 44 38 36 29 26 29 33 35 36 41 43 44 44 38 35 37 43
19 19 19 20 21 22 23 24 25 25 27 28 31 32 31 34 35 36 38 39 40 41 44 50 53 53 48 41 35 31 38 41 35 39 49 45 44 49 53 46 35 38 40
25 24 25 25 25 26 27 27 28 29 30 31 33 34 35 36 33 37 40 39 39 40 44 47 52 45 44 45 39 40 44 47 44 49 50 56 46 55 55 45 37 39 41
33 32 31 29 31 31 29 29 30 31 32 34 34 35 36 35 39 35 36 36 40 40 48 42 45 48 39 40 45 48 49 51 53 50 47 58 63 61 57 44 40 44 46
32 33 34 36 33 33 32 33 33 35 36 36 36 36 38 38 39 40 40 39 41 42 45 46 46 47 46 46 46 53 52 54 51 56 49 51 62 65 55 48 46 50 48
30 32 32 34 35 32 32 33 35 39 40 40 41 41 42 42 42 42 43 46 45 48 51 51 49 55 51 55 53 56 59 56 57 59 55 58 63 58 52 50 51 48 49
33 31 32 34 35 33 35 35 36 40 43 44 46 45 46 47 46 46 47 50 53 54 56 52 52 54 62 54 57 56 59 62 58 54 53 55 57 56 51 45 43 46 49
38 36 35 35 35 37 35 36 38 42 44 45 47 48 47 48 51 51 52 52 54 55 54 51 55 56 57 59 59 57 61 55 53 50 48 47 46 47 47 47 47 50 47

GFSMA_700_spd_090.txt.gz
Wind_Speed
20 16 12 7 24 30 30 29 28 27 27 24 23 19 19 18 19 20 19 18 18 17 16 15 14 13 13 13 13 12 10 9 8 7 7 9 9 9 9 10 11 11 12
19 22 14 11 15 32 32 31 29 28 30 28 25 22 21 20 21 22 20 18 16 15 15 14 14 13 13 14 14 12 11 10 8 8 7 8 8 9 11 13 13 14 16
20 24 15 15 17 17 31 31 31 32 34 30 28 26 23 20 22 22 20 18 16 16 15 14 14 14 14 14 12 11 10 9 8 9 9 10 12 13 15 16 16 16 18
22 27 21 23 16 25 25 35 35 36 35 32 30 26 23 22 22 22 20 19 17 16 16 16 15 15 14 13 12 11 10 10 10 10 11 13 13 15 16 17 17 17 18
24 21 33 22 28 31 27 40 38 35 35 34 30 27 23 22 22 22 21 19 18 17 17 16 16 14 13 13 12 12 11 11 12 13 13 13 11 14 16 16 17 18 19
35 32 34 28 27 33 32 42 41 38 35 34 32 26 25 22 22 21 20 19 18 18 18 17 16 15 15 15 13 12 11 12 12 15 14 15 15 18 18 17 18 19 19
32 38 30 39 32 28 43 44 41 38 39 38 34 32 29 22 20 19 20 16 18 18 19 19 17 17 16 16 15 14 14 15 13 15 16 18 18 21 22 21 23 24 23
38 41 36 39 41 34 47 49 43 42 38 39 38 34 30 26 24 21 20 19 22 19 20 18 17 17 17 16 14 16 15 14 15 15 17 19 21 23 22 22 23 23 24
31 36 40 38 49 37 44 36 45 43 44 41 37 33 32 32 26 25 19 21 24 23 21 19 18 18 18 17 17 17 15 16 16 18 19 20 25 26 25 26 25 25 25
22 29 30 28 52 43 45 36 43 43 42 39 37 30 30 30 23 24 27 25 27 24 24 22 21 20 18 16 17 16 18 19 18 21 25 26 25 25 26 26 26 27 26
15 16 31 43 40 31 32 40 37 40 38 41 40 41 35 32 27 25 24 28 27 25 22 20 19 19 18 20 20 21 22 23 23 26 29 28 27 28 29 26 28 28 30
14 17 26 27 31 25 39 40 42 39 36 34 34 34 35 28 30 26 27 29 27 24 25 24 23 24 20 23 24 22 23 25 26 28 28 31 33 31 30 28 30 31 30
17 16 13 16 21 24 29 32 39 42 41 39 43 37 32 32 29 30 34 29 32 33 29 24 23 23 24 23 26 28 27 27 29 29 30 32 34 34 35 32 32 30 31
18 14 14 17 25 34 37 36 42 36 44 45 38 40 37 36 32 32 31 31 30 28 28 28 25 27 25 27 29 30 30 31 33 32 33 34 36 39 42 34 34 33 32
18 16 17 17 20 25 29 40 41 38 38 37 38 40 41 37 36 32 35 35 37 35 36 33 33 29 26 29 26 26 28 31 36 38 39 42 41 45 41 33 35 35 35
22 22 20 19 17 17 24 33 38 38 40 43 45 45 39 37 32 34 35 37 38 38 39 35 35 31 28 31 28 28 34 35 38 39 39 40 39 45 40 34 39 38 39
13 15 18 23 22 20 20 24 30 37 41 41 42 42 41 40 38 33 35 38 40 41 42 35 33 35 36 37 37 36 37 37 38 39 33 34 41 37 35 38 40 42 43
7 9 11 14 19 24 25 27 30 30 33 37 40 43 41 46 40 35 40 36 40 44 43 43 39 38 39 40 43 45 43 42 39 31 26 36 32 35 37 40 44 45 47
11 11 12 13 15 18 24 26 26 28 33 34 33 38 43 41 43 45 46 45 45 48 51 52 49 43 41 40 44 49 51 52 39 34 35 29 32 33 40 41 48 49 52
17 17 18 19 19 21 23 24 26 27 29 32 34 35 38 42 41 42 42 40 41 45 45 47 47 44 45 45 47 44 42 39 40 40 35 38 39 42 43 48 49 55 62
21 23 24 25 26 27 27 27 28 29 30 31 33 33 34 35 35 36 39 36 34 42 43 46 47 46 48 49 47 46 43 43 40 41 43 44 46 45 49 50 56 62 56
27 28 29 30 30 30 31 32 32 33 35 36 36 36 36 37 37 38 39 38 42 40 43 47 49 52 53 53 43 45 48 43 49 50 46 46 51 54 49 57 53 49 57
29 30 30 32 33 33 33 34 36 38 39 39 39 40 41 42 42 42 42 44 47 50 53 52 53 53 53 52 51 46 50 54 47 53 52 53 55 53 55 58 64 63 65
26 27 28 29 30 29 32 35 36 39 42 42 42 44 45 44 45 46 47 49 52 54 54 57 56 60 57 55 55 58 51 52 56 62 64 60 61 58 59 58 60 63 64
28 25 28 31 32 29 30 32 34 39 42 43 43 45 47 48 47 47 51 53 55 57 58 57 59 56 60 78 56 58 60 62 68 67 55 60 57 55 54 53 56 57 56
35 33 32 32 33 32 33 32 32 36 41 42 42 45 45 46 49 50 50 51 53 54 56 56 61 64 65 70 66 72 56 62 72 60 51 51 51 49 47 47 47 49 50

GFSMA_700_spd_096.txt.gz
Wind_Speed
23 29 29 33 35 37 39 33 34 29 26 24 25 24 20 19 18 17 16 18 17 16 17 16 15 15 15 13 13 13 13 12 11 10 9 8 8 9 8 8 9 9 10
21 15 18 35 38 33 43 38 32 27 25 26 25 22 21 19 18 18 20 19 18 17 17 16 16 15 15 14 14 14 14 13 12 11 10 10 11 10 9 10 9 11 12
17 3 13 25 43 28 33 31 29 27 25 26 25 23 19 19 21 19 18 18 17 17 17 16 16 15 15 15 15 16 15 14 13 12 12 12 11 10 10 12 13 13 14
15 7 9 21 29 38 33 34 31 28 26 25 25 28 28 24 22 19 18 19 19 18 18 17 16 15 15 16 16 16 16 16 14 13 12 12 12 12 12 11 10 13 13
17 15 10 10 15 19 33 32 31 29 27 26 26 25 25 24 21 19 20 22 19 20 19 17 16 16 17 17 17 17 16 16 15 14 13 13 12 12 12 12 13 13 14
22 21 21 18 20 19 28 31 28 25 24 24 27 28 26 24 22 21 22 24 23 23 21 19 17 17 17 17 18 18 17 16 16 14 13 13 13 13 14 13 15 15 16
27 25 25 31 26 23 22 26 32 32 30 30 28 28 29 28 27 25 24 26 24 23 21 19 17 17 17 17 18 19 17 16 16 14 14 13 14 14 14 14 17 18 18
29 25 28 32 33 32 26 29 29 27 30 32 32 32 33 33 31 27 25 26 25 23 17 17 18 19 19 21 20 21 19 18 17 16 15 14 15 16 16 17 20 20 18
26 27 31 27 34 36 26 30 39 34 34 35 36 38 38 38 31 27 25 24 24 20 25 30 27 30 22 23 24 22 20 18 18 17 16 17 17 18 19 21 23 22 21
34 34 32 32 34 39 34 32 36 42 36 39 39 40 38 34 32 29 25 21 25 30 28 23 24 22 25 25 25 23 21 21 21 22 21 20 19 21 21 24 24 24 25
23 34 39 36 33 35 41 36 35 40 43 40 40 40 39 38 37 31 29 27 28 23 19 26 23 24 23 27 25 23 24 24 24 24 24 25 24 26 25 26 24 26 28
19 24 29 34 41 36 36 37 34 35 39 42 41 41 42 42 48 52 31 26 27 30 31 25 28 29 26 25 24 27 31 29 29 29 28 28 30 30 28 29 30 31 31
14 19 22 27 31 38 38 36 38 48 35 44 39 42 42 45 48 48 32 29 32 35 35 30 26 24 29 31 32 33 32 30 31 32 30 33 32 34 32 34 36 38 40
11 11 16 19 23 23 31 24 40 41 44 44 37 41 45 43 38 27 31 37 40 40 36 32 30 32 31 34 33 36 37 35 35 33 34 34 35 36 34 34 34 38 44
12 15 16 12 17 25 21 15 24 35 37 34 28 29 33 30 31 28 38 40 32 37 38 29 30 32 36 37 37 37 41 36 37 37 39 36 35 36 36 37 39 40 44
10 13 13 12 10 11 14 14 16 21 24 16 18 30 33 31 33 38 33 34 37 37 35 31 31 30 37 36 36 39 37 38 41 40 36 34 32 36 36 40 42 44 45
7 9 10 11 13 13 14 13 15 18 21 23 23 25 39 34 36 36 38 40 41 41 41 37 34 34 31 36 42 35 37 39 36 39 40 37 35 41 42 42 44 47 47
5 7 8 9 11 13 13 15 17 24 29 32 33 35 31 35 42 35 39 40 38 39 43 37 37 36 40 36 35 38 35 43 40 41 42 41 45 45 45 46 47 49 48
7 8 9 10 12 13 13 15 17 20 23 27 31 42 44 36 39 42 41 44 44 45 46 47 46 45 45 43 43 44 46 47 45 44 45 48 49 48 48 49 48 48 47
13 12 13 13 13 14 16 18 20 21 21 22 25 28 33 37 41 43 42 42 45 45 48 51 53 51 50 49 49 51 50 47 49 48 48 48 49 50 51 51 50 52 49
18 18 18 18 19 20 20 21 23 25 26 27 28 30 30 32 35 39 41 42 44 48 50 54 55 55 55 54 53 52 55 51 51 49 50 48 48 50 51 51 51 49 48
21 22 23 24 24 25 25 26 28 30 31 33 33 34 35 36 37 39 41 42 46 48 52 55 57 59 56 52 49 50 51 54 57 52 51 50 50 50 50 51 54 56 56
14 13 14 20 26 29 30 31 32 34 35 36 36 38 40 40 41 43 44 46 48 51 52 54 58 58 57 56 57 58 56 56 57 58 58 61 60 59 57 54 53 60 59
28 25 24 23 22 19 20 23 27 31 35 37 39 40 43 44 45 46 48 51 52 53 55 56 60 62 62 62 62 61 57 57 59 63 63 62 63 59 65 63 65 68 66
32 31 33 33 38 43 38 28 25 24 25 31 31 35 42 45 45 48 52 53 54 55 57 59 61 64 64 62 60 59 61 64 65 63 63 67 72 70 72 72 71 70 68
32 35 37 37 37 34 32 32 34 35 39 38 40 40 47 43 43 40 46 50 48 53 60 62 62 65 67 66 64 64 68 63 64 65 71 70 70 73 76 74 73 66 65

GFSMA_700_spd_102.txt.gz
Wind_Speed
21 21 21 22 23 24 25 27 26 22 28 26 26 27 26 23 21 21 20 20 20 17 16 16 13 14 14 14 15 16 16 15 14 15 14 13 12 10 9 8 8 8 8
20 21 22 22 22 24 29 30 26 27 30 28 27 25 25 24 20 20 20 21 20 17 19 18 15 16 15 16 17 17 17 17 17 16 15 15 14 12 11 10 10 10 10
20 22 22 22 21 24 24 29 33 29 33 31 28 27 24 25 23 21 20 21 19 20 20 18 16 17 17 18 18 19 18 18 18 17 16 15 15 14 13 12 11 12 12
20 22 24 22 20 22 21 34 34 34 27 37 30 29 28 27 25 23 21 19 20 21 22 19 18 19 19 19 19 19 19 19 19 18 18 17 16 15 14 14 14 14 12
21 22 23 20 22 25 22 31 35 32 38 38 31 29 28 27 26 23 21 20 21 21 22 19 21 20 20 19 19 20 20 20 20 19 18 17 17 16 16 16 15 15 14
22 22 23 20 20 13 19 35 37 37 35 39 32 30 29 29 29 26 23 22 22 22 23 21 23 22 22 21 21 21 21 21 20 19 18 17 17 17 17 17 17 17 16
19 25 23 19 16 8 14 25 32 42 35 40 34 32 29 32 30 26 25 22 23 24 24 25 25 25 24 20 21 21 20 20 20 18 18 18 19 19 19 19 19 18 17
14 18 22 23 18 13 11 25 25 43 40 43 35 33 33 33 32 28 24 23 23 23 25 26 27 26 25 21 21 22 22 21 19 17 19 20 20 20 20 21 20 20 20
15 18 25 25 25 18 11 12 21 37 39 36 30 35 37 33 28 27 27 27 26 25 27 29 29 28 26 24 24 24 23 21 20 19 23 22 22 22 22 23 23 22 22
15 17 20 29 27 23 25 19 16 19 23 28 26 25 37 35 28 31 29 29 28 26 27 28 28 27 27 24 23 23 23 28 28 28 26 24 24 24 26 27 26 24 25
15 17 20 23 28 28 26 28 24 26 29 30 28 26 30 34 30 32 32 31 28 29 27 29 27 26 26 24 26 28 30 37 35 30 29 29 27 27 29 30 28 29 28
15 18 19 25 25 32 28 27 30 33 29 30 31 31 29 31 28 31 35 35 29 29 29 28 23 27 29 29 29 26 33 31 28 28 32 34 31 32 30 32 33 32 33
14 17 18 20 27 26 31 30 30 36 40 36 35 29 31 36 33 39 33 37 38 35 33 31 30 30 29 30 31 36 31 34 33 33 36 41 34 33 33 36 36 37 37
13 14 16 20 23 32 33 26 27 30 31 31 41 35 35 35 35 40 34 36 33 40 41 39 42 36 33 33 37 34 41 43 38 35 39 38 33 35 37 38 39 41 38
9 12 15 16 19 24 28 34 34 34 36 32 38 32 32 33 39 33 33 38 33 33 35 34 45 36 37 35 37 40 42 42 31 37 39 39 38 41 45 38 44 48 49
10 13 13 11 13 16 19 21 24 29 29 31 33 28 33 34 36 32 29 33 33 43 36 27 30 41 33 39 43 45 40 34 36 38 41 41 46 44 43 44 48 53 58
11 12 13 11 10 8 11 15 18 20 24 29 33 29 34 31 31 32 29 36 35 39 39 36 35 37 34 38 38 39 34 34 31 44 44 47 48 50 51 56 49 44 50
9 11 11 10 9 9 9 11 13 18 21 15 18 24 28 22 21 25 29 33 26 29 34 32 33 34 35 40 39 44 42 39 35 34 34 38 35 41 40 43 45 47 46
11 9 9 9 8 8 8 9 9 12 13 15 17 17 15 15 15 17 19 25 29 37 33 33 29 27 31 35 41 43 44 44 42 41 41 44 44 45 47 46 48 51 51
16 13 13 13 12 11 11 10 9 9 9 9 11 14 19 23 26 26 27 26 30 37 33 31 35 37 37 37 40 44 46 45 46 47 48 49 51 52 51 52 53 55 58
20 18 17 15 14 13 12 11 11 11 11 12 12 12 13 15 15 18 21 26 33 37 41 42 44 41 41 43 44 42 47 47 49 49 50 51 51 54 52 51 56 59 58
22 21 19 18 18 18 16 16 17 16 17 18 18 19 20 20 22 23 24 26 29 30 32 37 39 41 42 41 41 43 45 48 50 43 50 53 49 51 54 54 58 58 57
23 22 21 20 21 22 20 19 19 20 20 21 22 24 25 26 27 28 30 31 33 35 37 36 39 39 40 42 45 48 47 49 53 54 57 57 58 63 67 67 65 67 66
23 23 21 21 23 19 16 17 18 18 19 19 18 21 24 26 31 30 33 36 35 38 41 42 46 48 51 51 52 54 55 58 58 61 63 63 63 63 63 66 68 69 70
21 21 21 23 26 26 26 26 26 24 23 22 28 32 31 28 31 31 33 35 34 39 41 42 43 48 51 50 49 45 51 48 55 57 58 60 59 58 65 68 69 71 74
30 32 32 32 31 33 32 30 29 27 26 27 30 30 34 35 37 34 38 39 38 42 45 49 47 50 52 52 54 49 48 60 55 51 59 55 56 58 60 61 62 62 61

GFSMA_700_spd_105.txt.gz
Wind_Speed
18 23 26 26 26 24 25 23 24 23 25 27 32 28 27 21 25 28 24 21 21 20 18 18 17 16 17 15 13 16 16 16 16 18 16 15 14 12 9 8 8 8 8
19 22 25 26 24 23 23 23 25 21 22 27 29 29 28 27 34 26 22 21 21 21 19 18 18 18 17 15 15 17 17 17 17 17 16 15 13 12 12 10 10 10 10
17 21 24 24 23 23 24 24 26 28 28 23 31 30 28 31 29 28 23 21 21 21 20 19 20 21 21 16 17 17 18 18 18 17 17 15 15 14 13 12 13 12 12
19 22 25 24 23 23 25 24 26 23 29 26 31 32 31 28 29 26 23 22 21 22 20 22 21 22 20 19 18 18 18 19 19 18 18 17 16 15 15 15 14 14 14
20 22 25 25 24 26 27 27 30 27 36 33 34 31 32 27 27 25 24 19 20 21 22 22 22 23 21 19 19 19 19 20 20 19 19 18 17 17 17 16 16 16 15
19 22 24 25 25 24 25 25 26 25 35 36 36 32 31 25 27 27 23 23 22 21 21 22 23 23 23 21 21 21 21 20 20 21 20 19 18 18 18 18 18 18 17
19 20 23 22 25 24 19 21 23 26 31 34 42 38 27 29 28 27 25 23 22 22 22 23 25 24 24 22 23 22 23 19 21 21 21 19 18 17 19 20 20 19 19
19 19 21 23 27 24 20 18 16 28 34 45 47 40 34 30 28 31 27 24 23 22 23 25 27 26 26 24 24 23 22 20 21 21 21 20 18 17 22 22 22 19 20
18 15 19 20 20 23 20 15 20 25 37 47 38 41 37 35 27 24 26 24 24 23 23 25 27 26 26 27 27 26 25 23 21 21 22 20 20 21 24 24 22 21 23
17 19 20 17 23 22 19 12 11 23 30 46 38 43 36 36 34 30 29 24 24 25 25 26 28 27 28 28 28 27 25 23 22 20 22 22 24 26 26 25 26 24 27
18 20 21 20 26 25 25 25 14 10 32 37 31 29 25 22 28 28 30 30 32 31 28 26 26 26 29 29 29 26 25 23 21 24 28 33 31 29 28 29 27 29 31
19 20 22 21 23 26 26 24 25 21 20 31 24 24 25 23 20 32 31 30 28 27 26 28 28 29 28 28 27 26 24 25 28 29 32 35 32 32 32 32 29 32 33
20 21 23 23 21 28 29 31 25 26 28 27 28 27 26 26 27 29 30 32 31 26 33 34 34 29 29 29 28 28 29 30 30 34 35 36 34 35 34 36 36 37 34
19 21 21 22 21 23 27 30 27 25 35 35 32 31 30 34 29 28 33 37 34 26 28 31 32 30 32 32 33 29 34 36 39 39 38 39 43 42 37 39 40 39 40
17 18 17 19 18 22 26 26 29 30 25 32 28 34 26 34 32 37 36 35 37 30 30 32 35 35 39 42 42 40 36 38 40 37 38 43 46 40 40 35 36 38 40
16 15 15 15 17 19 23 29 33 34 29 26 26 29 28 34 40 32 35 34 38 31 31 31 32 33 28 25 34 43 46 40 39 39 40 38 37 40 40 38 39 40 45
15 13 15 14 15 17 19 21 24 25 30 33 31 30 34 31 31 29 31 29 32 30 38 29 31 31 34 30 29 33 36 40 41 36 33 33 34 40 43 44 43 45 48
16 12 14 15 13 12 11 12 15 17 17 19 20 23 27 30 32 33 34 38 38 34 35 32 28 33 36 36 31 29 29 33 40 40 40 38 38 35 38 38 40 42 44
18 14 14 15 14 11 9 8 10 11 14 17 18 19 21 25 28 31 28 34 34 34 33 34 27 26 30 28 32 36 34 37 36 39 38 40 42 42 42 45 47 48 48
21 18 16 16 16 13 11 8 8 7 7 9 9 9 12 14 14 15 17 16 19 24 28 31 32 33 30 28 33 33 34 36 41 41 42 41 40 43 46 48 51 52 55
25 21 20 19 17 15 14 12 12 10 10 10 10 11 12 13 15 16 18 20 22 26 31 31 33 35 36 38 38 35 40 38 44 44 44 42 42 44 50 51 50 51 50
28 26 24 23 22 20 18 18 17 16 15 15 15 16 15 16 17 18 19 22 24 25 26 30 32 33 32 34 34 36 39 39 40 38 43 44 47 47 50 55 57 59 58
29 30 29 27 27 23 23 21 21 20 19 20 21 21 21 22 23 24 25 26 28 29 32 32 34 34 35 35 36 37 40 43 44 46 48 52 54 58 62 64 62 62 70
41 31 31 32 30 27 25 24 23 21 21 24 23 22 22 24 24 23 25 27 32 32 34 35 37 43 45 45 46 48 51 55 57 59 58 61 58 60 60 63 65 66 68
36 31 30 31 30 28 25 24 24 23 25 26 26 26 25 26 25 28 26 35 33 31 34 31 39 43 42 43 43 45 45 46 47 48 51 51 51 53 56 55 57 59 57
28 27 28 30 28 27 27 27 27 28 29 31 31 30 29 31 29 29 32 32 35 38 39 44 44 43 45 47 45 48 55 55 49 49 50 53 53 53 55 59 58 56 55

GFSMA_700_spd_108.txt.gz
Wind_Speed
13 14 18 20 22 24 25 26 23 21 24 19 22 18 34 30 28 23 28 23 21 21 18 19 17 18 18 18 17 16 16 14 13 14 15 14 13 12 10 9 7 7 6
15 15 19 21 24 26 27 26 24 23 21 24 24 28 29 26 26 21 26 22 22 22 21 20 19 19 19 17 17 17 16 15 15 16 16 15 14 13 12 11 10 10 9
18 17 19 22 23 26 26 25 25 25 21 22 25 37 29 28 28 26 25 20 22 22 22 20 19 20 19 18 18 18 16 16 16 16 16 16 15 15 14 13 13 12 11
18 20 20 21 22 24 24 24 24 22 25 22 25 36 30 30 33 32 26 23 23 22 22 21 20 21 20 20 20 20 18 17 18 17 17 16 16 16 15 15 14 14 13
18 20 22 20 23 24 25 25 24 26 21 22 27 30 33 33 34 34 25 23 22 21 21 21 20 22 21 21 22 21 19 18 19 18 18 18 18 17 16 16 15 15 15
18 20 21 21 22 25 25 25 26 25 27 25 29 32 35 33 32 33 26 25 24 21 22 23 21 22 23 22 22 23 21 19 19 19 19 19 19 18 17 16 16 16 17
19 19 21 21 23 24 25 25 24 21 28 29 31 27 39 31 38 31 26 26 23 21 21 20 21 22 23 22 23 24 23 21 21 21 21 18 19 19 18 17 17 16 19
21 20 22 18 21 25 25 24 27 24 22 27 39 38 38 33 29 27 23 24 23 20 21 20 21 22 23 24 24 24 23 22 23 23 22 20 20 19 19 16 19 20 21
23 22 23 15 19 23 25 24 25 21 19 26 35 48 39 37 34 28 23 23 22 19 17 19 19 21 22 24 26 25 25 23 22 22 22 21 20 20 19 19 22 25 22
24 22 23 17 18 22 18 22 21 20 13 27 34 42 47 39 29 23 19 23 25 23 20 18 21 22 23 27 28 26 25 24 24 22 23 20 19 17 19 22 23 27 25
24 23 24 19 17 21 22 19 20 11 17 21 39 51 43 34 31 29 28 24 23 21 20 19 20 24 25 27 25 22 25 24 24 24 23 23 21 24 28 34 29 28 27
24 24 22 22 19 20 22 21 23 21 13 20 40 41 35 37 37 21 23 30 30 27 26 28 27 27 25 23 22 25 24 24 25 27 24 24 25 28 31 28 30 33 32
25 23 22 23 20 18 22 23 25 21 21 20 28 33 28 23 22 19 20 19 28 26 28 28 26 27 28 28 24 24 25 27 28 27 28 27 31 36 33 30 31 35 33
24 24 22 22 19 18 21 28 23 24 22 22 27 29 25 21 23 22 23 27 25 28 28 30 25 27 29 32 30 27 28 28 30 31 32 37 37 38 35 36 39 44 37
23 23 21 20 16 15 20 24 26 25 28 23 27 27 28 29 27 26 27 30 29 32 31 28 25 26 25 26 26 26 28 28 31 33 36 36 35 35 35 42 41 36 34
22 22 19 17 14 13 18 24 26 24 25 27 24 32 30 32 33 30 33 34 32 33 33 24 25 25 29 28 22 26 32 38 42 43 40 39 42 34 34 30 29 32 33
23 22 18 16 14 11 15 19 23 26 25 27 28 29 26 30 36 28 30 37 38 34 33 30 30 28 25 30 24 25 24 24 28 33 35 35 37 36 36 33 34 30 31
24 23 18 16 15 12 13 15 17 21 25 28 30 28 26 27 28 34 35 31 33 29 35 26 29 27 27 26 25 30 30 30 30 26 29 31 29 35 37 36 36 37 35
25 24 19 16 15 14 14 14 16 16 16 16 16 19 21 23 26 31 29 30 30 33 33 36 32 29 27 28 31 30 25 26 31 35 32 31 30 33 33 34 35 37 42
27 26 21 17 17 17 16 15 15 13 12 14 16 17 16 15 13 15 17 22 24 26 28 31 30 30 24 23 28 29 29 28 28 28 31 35 36 40 43 42 42 41 41
28 27 24 20 20 19 18 17 15 15 14 14 15 14 13 12 13 14 13 14 17 16 18 20 22 24 27 31 34 31 36 37 35 35 38 40 41 44 44 46 42 40 40
30 29 28 25 25 21 20 20 19 18 18 18 16 15 15 15 16 17 19 19 19 20 22 23 24 28 31 32 32 33 34 36 39 36 36 38 39 41 46 46 40 44 53
34 33 33 31 27 25 24 24 23 22 23 21 20 20 20 20 20 20 21 22 23 26 27 26 27 29 30 32 32 33 34 35 38 36 38 41 42 44 51 52 55 61 65
37 35 32 29 28 27 28 28 27 28 27 26 25 24 25 25 24 22 24 24 22 24 27 29 31 32 34 34 32 36 38 40 46 51 51 50 53 57 57 49 50 52 54
36 34 32 28 30 31 32 30 31 32 31 30 29 27 25 25 24 25 21 22 28 28 27 30 36 31 31 32 37 35 42 36 44 46 42 44 47 50 46 49 51 53 54
40 41 42 45 42 36 37 33 33 34 32 30 29 28 29 30 28 27 30 30 34 30 32 35 34 34 37 38 38 42 40 41 41 41 43 45 45 47 50 49 50 50 53

GFSMA_700_spd_111.txt.gz
Wind_Speed
10 12 13 17 19 20 21 21 19 18 19 20 21 17 23 21 27 37 25 25 26 18 17 18 17 19 17 17 17 18 15 16 16 16 15 14 14 11 9 8 7 6 7
12 13 16 15 18 20 22 22 20 21 22 23 24 21 25 21 25 34 27 28 27 25 20 18 20 18 17 18 17 17 16 18 17 17 16 15 13 12 11 11 10 9 9
13 14 17 17 19 20 22 24 22 22 23 24 26 20 21 20 31 30 26 25 24 20 20 21 21 19 19 18 19 19 19 19 20 17 16 16 15 15 14 14 13 12 11
16 15 17 18 19 22 23 23 22 23 24 25 22 25 25 31 31 28 26 25 20 22 20 23 22 21 20 20 21 20 20 19 19 19 17 16 15 15 15 14 14 14 14
17 16 17 19 20 23 23 23 23 23 24 23 17 22 19 30 28 29 31 27 22 18 20 23 22 22 21 23 23 21 21 20 21 20 18 18 17 17 16 16 16 15 15
18 17 17 20 19 22 24 23 23 24 24 24 26 24 25 31 29 32 30 28 22 20 23 24 22 22 22 23 22 23 22 22 22 22 20 19 19 19 17 17 17 17 16
19 18 18 21 20 21 23 23 25 26 26 24 26 28 28 34 34 34 32 29 22 25 24 23 22 23 22 23 22 23 23 22 22 22 22 21 21 21 20 20 19 17 17
19 19 20 20 20 21 23 22 25 26 27 27 24 26 29 42 34 34 35 32 28 28 24 23 21 22 23 23 23 23 23 23 23 23 23 22 22 21 20 19 18 16 16
21 20 20 21 20 21 22 20 24 26 27 26 27 28 41 44 41 35 31 33 29 26 24 23 21 21 21 22 24 25 25 24 24 23 23 23 22 21 20 19 18 16 17
25 21 21 21 21 21 22 20 20 24 25 26 25 37 38 46 47 38 34 32 25 24 22 20 20 20 20 22 23 23 24 25 24 25 25 24 22 21 21 18 18 19 23
29 25 21 22 21 22 23 21 20 23 22 19 24 34 43 44 39 32 29 31 30 28 23 20 18 18 17 20 22 20 23 24 25 26 25 25 23 22 20 19 19 23 27
32 28 22 21 22 23 23 21 19 21 20 17 18 28 36 43 43 36 29 24 24 24 25 22 19 20 20 19 19 20 23 26 25 26 25 25 24 24 22 21 21 30 25
32 29 23 22 22 24 23 21 21 23 23 23 16 20 36 33 40 37 29 28 20 27 31 27 22 22 23 25 21 22 21 22 25 26 27 27 27 27 24 26 35 32 28
31 28 25 22 22 24 23 20 22 21 23 19 21 19 29 34 33 26 30 18 22 26 28 22 21 24 26 28 25 24 21 21 24 28 30 29 29 28 31 35 32 31 30
33 29 25 23 21 23 20 18 21 20 23 21 19 19 23 24 26 26 24 23 23 24 24 23 28 23 26 25 24 24 24 24 26 26 27 28 30 32 32 32 32 30 27
35 30 25 22 21 21 17 16 18 22 24 29 24 21 25 27 23 23 24 26 27 25 25 25 22 22 22 23 26 27 26 23 24 26 28 27 30 32 36 37 35 33 30
35 27 25 21 20 19 17 17 17 20 24 27 27 30 23 32 29 30 35 33 31 33 31 28 28 29 27 29 27 31 25 22 22 17 21 28 34 38 38 39 35 35 33
34 28 24 20 20 19 17 16 17 17 23 24 28 27 30 26 32 34 29 32 31 30 32 30 33 27 21 26 22 25 28 26 22 26 27 26 32 28 29 36 36 37 31
32 30 24 21 20 20 17 17 18 19 22 25 29 27 31 31 28 28 30 31 36 36 34 32 36 33 32 27 25 25 24 24 27 23 21 25 29 34 36 31 31 32 33
35 31 24 22 21 21 18 17 19 21 20 20 21 21 20 23 24 26 28 31 32 33 32 33 32 36 31 28 31 29 29 27 27 25 27 30 30 34 36 36 38 40 39
34 31 28 24 23 22 20 20 20 20 19 20 20 20 22 22 23 21 20 21 25 28 30 29 26 28 27 27 31 30 31 26 28 32 34 36 36 41 43 43 43 43 40
31 30 31 28 26 25 23 21 21 22 22 21 19 20 20 21 20 20 19 19 18 19 20 22 22 22 21 22 25 28 30 32 35 35 37 38 38 41 42 45 42 44 44
28 34 38 35 31 29 26 26 26 26 25 24 24 24 24 23 23 23 24 24 23 23 24 22 21 23 23 22 23 23 25 27 31 33 34 35 39 36 44 47 48 50 52
28 33 35 41 39 34 30 30 30 29 28 27 27 28 27 27 26 26 26 26 26 26 24 23 21 24 25 26 28 30 28 31 31 33 39 44 40 41 44 43 42 45 45
39 38 42 45 44 39 31 30 30 30 30 30 31 31 30 29 29 30 29 31 28 26 21 23 24 28 29 29 32 30 33 33 35 35 40 44 46 46 44 45 48 52 49
39 41 43 41 43 38 32 32 33 37 29 34 35 35 35 35 33 32 29 29 29 26 31 31 33 28 33 34 30 31 32 38 39 38 42 43 43 44 46 46 45 44 43

GFSMA_700_spd_114.txt.gz
Wind_Speed
11 12 12 14 16 19 20 21 20 18 17 18 20 21 21 19 22 22 26 30 32 21 19 17 18 17 17 17 18 16 15 15 15 15 15 16 14 12 10 9 7 5 5
11 12 13 13 14 16 18 20 20 19 19 20 21 24 24 25 23 23 25 31 29 24 20 16 18 19 18 18 18 17 17 17 16 16 17 16 15 14 13 11 10 9 8
12 12 14 15 15 17 19 22 22 22 23 23 23 24 25 23 25 22 25 29 27 25 26 22 20 21 19 20 20 18 19 18 17 17 17 17 16 15 15 14 12 11 11
14 14 15 16 16 18 19 22 24 26 24 23 23 25 24 28 24 23 28 30 29 23 23 22 23 21 21 21 21 20 21 20 18 18 18 19 18 17 16 14 14 13 13
15 16 15 16 16 18 20 21 23 24 25 23 24 23 23 22 28 24 29 30 28 23 21 23 22 23 22 22 22 22 22 21 20 21 20 20 20 19 17 16 16 15 14
17 16 16 16 17 18 20 21 22 23 25 24 25 25 26 23 26 21 32 30 29 25 21 23 22 24 23 24 24 24 24 22 22 21 21 21 21 21 19 17 17 17 16
19 17 17 18 17 18 18 20 21 24 26 26 27 27 28 27 24 21 29 31 29 25 23 24 23 23 23 25 24 25 24 23 23 22 22 22 23 22 20 19 19 18 18
23 18 18 18 18 19 19 21 21 22 28 28 28 28 29 26 28 26 31 34 31 28 25 24 25 24 25 25 25 25 26 25 24 24 23 23 22 22 22 21 20 18 17
27 22 21 19 19 20 20 20 19 21 26 29 29 31 31 36 30 25 36 38 36 28 24 24 26 25 26 26 26 26 26 25 24 24 23 23 23 23 23 22 21 19 17
30 28 24 21 20 21 21 21 20 20 26 29 29 32 32 33 32 38 36 35 37 35 26 27 26 25 26 26 26 26 26 26 25 25 24 24 24 23 23 22 22 19 16
34 33 28 26 22 21 23 22 22 21 24 27 26 25 31 34 36 38 40 36 34 35 29 27 26 27 26 25 25 24 24 24 24 24 25 25 25 25 24 23 21 17 17
36 33 30 28 23 22 23 23 23 24 24 27 26 24 22 22 35 35 47 43 34 30 33 32 25 23 22 21 20 21 22 22 25 25 26 26 26 26 26 25 24 20 18
35 32 30 29 24 22 23 25 24 25 24 27 23 25 17 25 27 35 50 44 33 29 27 32 30 26 23 21 20 19 19 20 24 27 28 27 28 27 27 27 27 24 28
34 34 31 28 26 23 23 24 25 25 23 27 24 23 18 18 28 40 41 34 33 29 26 25 32 26 23 30 18 23 26 23 23 24 27 27 28 28 28 30 29 27 35
35 38 32 30 28 24 23 24 24 23 23 23 22 20 17 18 29 30 31 36 37 35 25 26 30 35 35 32 27 28 23 29 32 27 25 27 29 31 31 32 32 33 32
37 35 32 32 29 24 22 23 22 21 24 22 24 20 18 17 21 29 38 31 26 25 23 18 19 18 22 23 22 23 22 24 25 27 27 27 29 29 30 32 35 35 36
38 37 34 32 30 25 22 21 20 20 23 23 24 25 20 18 21 25 28 26 29 23 22 24 26 26 26 26 25 25 27 26 28 25 20 24 25 33 33 34 37 40 39
34 35 32 31 30 26 22 20 20 20 24 23 25 23 22 28 25 28 30 29 29 29 30 29 30 31 32 31 24 23 22 25 29 24 24 29 24 27 25 31 34 30 38
33 32 29 35 31 27 22 20 21 22 24 24 25 24 26 26 30 30 31 35 38 29 35 34 34 32 32 30 29 23 28 27 25 27 27 27 26 26 29 29 30 33 31
29 34 29 33 34 27 23 21 21 22 23 23 26 25 31 29 33 33 29 30 31 34 32 38 37 37 35 35 34 32 32 27 27 28 31 31 32 30 31 33 34 32 33
29 33 30 32 32 27 24 23 24 23 24 24 24 27 30 35 34 37 34 32 29 32 36 34 34 35 35 33 33 34 32 30 32 34 31 33 32 32 33 38 41 39 43
30 33 32 29 28 24 23 26 26 24 24 24 23 22 24 25 23 26 27 31 34 34 35 38 39 38 33 34 34 33 37 37 36 31 32 33 34 40 41 41 37 40 42
32 32 34 29 28 34 27 28 30 28 26 26 26 25 24 26 27 27 27 26 26 25 24 25 27 29 29 25 23 24 24 28 29 32 37 37 37 38 37 37 35 41 44
38 33 34 29 30 31 35 38 33 32 30 29 29 28 27 27 27 28 28 30 29 28 27 28 29 29 25 23 23 20 22 25 30 32 33 34 33 36 35 38 43 47 47
33 41 34 28 28 32 35 39 39 35 34 33 32 32 32 31 31 32 33 33 31 32 31 31 31 27 24 25 26 25 26 31 32 31 33 32 36 41 43 42 46 50 48
35 40 36 41 36 36 36 37 38 41 36 35 32 33 30 31 31 30 29 28 29 34 33 35 33 29 30 32 31 32 33 32 36 41 37 41 42 44 46 47 49 47 45

GFSMA_700_spd_117.txt.gz
Wind_Speed
12 14 13 14 14 15 17 19 20 21 22 21 21 20 19 19 17 16 19 20 24 32 28 21 19 16 16 15 14 15 15 14 13 13 12 12 12 11 11 11 9 7 6
12 13 14 14 14 13 14 17 20 21 22 24 24 23 22 23 21 21 17 21 25 29 31 24 19 18 18 16 16 17 16 15 15 15 13 13 13 13 13 12 10 8 6
13 13 13 14 14 15 16 18 20 21 23 25 26 25 25 24 24 22 27 24 26 29 28 22 20 17 19 18 17 16 17 17 17 16 14 15 15 15 14 13 11 10 9
15 14 14 14 14 15 16 18 20 22 24 26 27 27 27 27 25 23 27 26 25 28 30 27 22 19 20 20 19 18 18 19 19 18 17 17 17 17 16 15 14 13 12
18 16 14 14 15 15 15 18 19 20 23 25 26 28 28 27 27 24 22 27 27 28 27 20 22 20 21 22 20 20 21 21 20 19 19 18 19 19 18 17 16 14 13
21 19 16 15 15 14 14 16 18 20 22 24 25 27 26 28 29 24 22 24 24 29 28 23 23 21 23 24 21 21 22 22 22 21 21 20 20 20 19 17 16 16 15
24 22 19 16 15 15 14 15 18 20 22 23 25 29 29 31 30 28 26 24 28 33 30 25 24 23 25 26 24 23 24 24 24 23 23 22 22 21 20 18 18 18 17
25 24 24 19 17 16 16 16 17 18 20 22 26 28 31 33 31 28 26 26 25 30 30 27 25 25 26 28 26 24 24 25 25 24 23 22 22 21 20 20 20 19 19
26 27 28 23 20 18 18 18 18 18 20 21 24 28 33 35 30 28 26 22 26 30 33 28 25 25 27 28 27 25 25 25 25 24 23 23 22 22 22 22 21 21 20
24 26 30 30 25 22 20 20 20 19 20 21 23 26 31 33 35 31 33 32 30 35 36 29 25 25 26 26 26 26 26 27 26 26 25 24 23 23 24 24 23 22 20
28 27 28 34 32 29 24 23 22 21 22 23 24 26 28 32 34 33 36 37 38 35 37 31 26 26 26 26 28 27 26 27 27 26 25 25 25 25 26 26 25 23 21
29 30 32 35 37 34 29 25 25 24 23 24 25 27 28 28 28 30 34 33 36 37 42 36 33 26 26 27 28 26 26 27 26 26 26 26 26 25 26 26 26 26 24
29 28 29 33 37 34 32 28 27 26 25 26 26 26 27 26 27 21 26 36 35 41 39 37 34 33 30 27 25 24 24 25 25 26 27 28 27 28 28 28 29 28 27
30 27 28 32 34 32 34 31 29 28 26 27 27 26 25 26 28 25 26 24 35 40 38 33 28 26 35 28 25 24 22 22 22 24 25 29 29 29 28 30 31 29 30
32 27 29 32 36 35 34 33 30 28 27 27 25 23 24 25 21 20 24 22 31 44 38 34 29 27 34 32 27 24 24 23 32 30 30 28 29 32 33 31 33 32 33
33 31 32 34 37 38 36 36 30 29 27 25 23 22 21 22 16 16 29 26 30 42 39 35 26 24 28 34 28 30 32 37 41 35 38 37 31 30 30 34 32 35 36
37 33 33 35 39 35 36 36 31 29 26 24 23 21 22 22 18 20 23 30 26 31 30 27 23 22 26 30 39 40 34 23 24 26 31 30 31 39 32 32 33 34 37
40 37 35 34 39 37 36 36 32 29 26 24 23 22 25 27 23 18 19 26 32 30 24 22 21 24 25 25 25 28 26 24 23 24 28 31 29 29 29 28 31 37 39
38 38 35 34 34 37 36 36 31 29 27 25 24 24 25 26 27 25 22 23 30 28 27 26 26 30 31 31 30 29 32 24 24 25 27 35 31 31 29 28 31 30 29
35 34 34 32 29 34 36 36 32 30 28 25 24 26 27 30 28 28 26 26 27 31 31 35 32 33 33 34 36 35 34 34 30 33 35 25 30 32 33 31 28 32 34
31 31 33 33 31 34 39 37 33 30 29 25 24 24 25 29 27 26 31 31 30 31 30 33 34 34 39 32 35 32 33 32 36 36 35 34 33 32 35 33 34 35 35
29 33 36 41 39 34 39 37 32 29 27 26 25 25 26 30 30 33 34 32 38 37 35 30 31 33 28 35 34 34 30 29 35 33 33 35 36 32 36 35 38 37 40
39 39 38 37 33 34 34 34 28 24 24 26 27 28 27 28 28 34 36 37 40 39 42 39 39 40 40 39 39 37 38 39 40 36 36 36 39 38 34 36 37 38 37
40 38 35 33 38 36 30 33 29 24 25 24 28 32 30 27 32 32 32 31 34 31 31 33 33 32 32 30 34 35 29 25 28 30 31 38 39 39 41 42 39 40 36
31 35 42 31 28 33 33 34 32 33 38 43 34 32 33 32 33 31 32 35 33 32 32 31 31 29 27 28 31 27 25 27 28 30 32 35 39 41 41 39 37 37 41
32 37 43 42 41 37 36 34 33 35 38 42 42 41 37 37 34 33 32 33 33 32 31 29 31 30 29 28 28 31 33 36 36 34 36 40 42 42 44 42 44 43 45

GFSMA_700_spd_120.txt.gz
Wind_Speed
7 8 10 11 12 13 14 17 19 20 20 21 21 20 19 19 20 18 16 16 15 18 22 26 22 23 17 15 14 11 12 12 13 13 12 13 13 11 11 11 10 9 7
9 8 9 10 12 12 13 14 18 21 22 22 23 22 22 22 21 20 21 20 15 17 21 23 26 26 19 18 16 13 14 15 15 15 14 14 14 13 11 11 10 10 9
14 11 10 9 10 12 14 16 18 21 22 23 23 24 24 25 21 22 23 23 23 23 24 23 23 25 19 20 18 16 15 15 16 16 15 16 16 15 14 13 11 10 9
17 16 13 10 11 12 13 15 18 20 21 23 24 25 25 26 25 23 24 24 24 24 25 21 25 26 20 20 21 19 17 16 17 18 16 17 17 17 16 15 13 12 10
19 20 17 14 13 12 12 14 16 18 21 22 23 25 27 27 26 26 24 26 27 26 24 25 28 29 21 19 23 20 19 18 19 19 18 19 19 19 17 17 16 14 13
22 22 21 18 15 12 12 12 15 17 19 21 24 26 25 26 27 26 27 25 28 25 25 29 32 31 25 22 24 22 21 20 21 20 20 21 21 21 19 19 17 16 15
23 24 23 22 19 15 13 14 15 17 18 20 23 25 28 29 29 28 27 26 28 26 29 28 29 25 26 25 26 23 22 22 23 23 23 22 22 21 20 18 18 17 16
25 23 24 25 23 19 17 16 16 16 18 20 21 26 27 30 32 29 27 26 26 26 23 26 28 27 27 26 26 25 23 23 24 24 23 22 22 22 21 20 20 19 18
30 23 24 27 28 24 21 19 18 18 18 19 21 22 25 29 26 28 24 27 26 22 21 24 33 29 28 26 25 26 25 24 26 25 24 24 24 24 23 22 21 20 20
33 27 22 25 29 29 26 25 22 22 21 20 22 24 25 28 28 32 25 24 28 29 27 25 31 35 30 27 27 27 24 25 26 25 25 25 24 25 25 24 23 23 22
31 32 29 27 29 30 30 30 29 26 24 24 24 23 25 26 28 28 30 21 28 27 27 30 29 36 29 27 27 26 26 28 28 27 27 26 26 25 25 26 25 25 24
35 35 35 31 28 29 33 34 33 31 27 27 26 26 26 25 27 30 29 25 24 29 24 34 30 37 32 28 28 27 28 29 29 29 28 27 27 26 27 27 26 26 26
42 41 33 32 33 33 33 37 35 33 31 30 28 28 27 27 27 27 28 25 26 32 34 25 33 36 34 27 29 28 29 31 31 30 29 28 28 28 28 28 28 28 29
36 38 42 32 31 35 35 33 34 34 33 32 30 29 29 27 26 26 25 28 30 35 35 34 37 40 40 28 27 29 29 28 28 28 29 28 28 28 29 30 30 30 30
39 36 29 32 29 30 32 34 32 32 34 34 31 30 29 27 25 25 26 26 22 27 28 28 39 39 38 37 33 41 31 28 28 28 27 27 28 26 31 32 32 32 30
35 36 37 35 32 31 31 34 35 35 35 35 32 30 29 26 23 23 24 20 22 24 24 30 37 33 36 28 28 29 32 30 29 28 26 29 32 33 38 39 38 38 39
37 37 39 38 39 38 35 35 36 37 37 36 34 31 29 26 24 23 22 23 19 17 23 28 36 30 30 26 26 34 31 32 30 28 29 33 39 42 42 39 39 37 37
41 40 39 42 43 44 39 36 36 36 37 36 34 31 29 27 27 25 22 21 21 21 25 27 34 36 26 26 23 34 32 34 33 36 42 33 28 33 34 35 39 42 41
39 42 46 48 48 45 39 35 35 37 36 37 35 33 30 28 27 27 25 25 21 21 29 30 24 23 24 23 26 31 35 38 36 31 28 29 31 32 35 31 32 33 31
35 35 37 41 46 43 39 35 35 37 37 38 37 34 31 29 27 27 25 25 25 25 26 34 26 27 27 27 30 30 32 34 32 33 27 30 30 29 32 37 31 33 32
29 31 35 38 38 38 38 35 35 37 39 39 37 35 30 27 27 25 27 26 32 24 25 29 29 30 34 33 31 32 33 36 35 36 33 36 35 34 38 28 30 37 38
22 25 31 30 31 36 37 42 38 38 36 39 37 33 28 27 27 26 30 27 25 32 32 30 30 30 28 30 35 36 32 32 37 30 36 34 38 35 34 36 29 34 37
33 31 32 30 32 36 38 33 35 37 38 39 34 31 27 26 26 26 30 32 32 29 33 32 31 33 34 28 29 29 28 33 35 32 29 32 35 33 36 36 34 32 39
27 28 33 34 39 38 28 29 38 33 37 37 34 30 25 22 25 26 29 34 38 40 42 34 40 46 36 37 38 39 35 39 37 39 38 38 40 34 36 36 39 42 38
20 27 24 33 41 44 44 33 34 31 37 37 33 28 25 26 24 27 28 28 30 31 32 32 33 33 35 36 35 35 31 35 36 35 31 30 33 40 42 43 43 42 43
9 13 19 23 28 32 34 37 34 34 32 37 35 34 34 34 30 35 37 35 39 35 36 35 35 35 37 33 32 27 27 30 32 28 33 35 35 36 39 42 42 42 43

GFSMA_700_spd_123.txt.gz
Wind_Speed
6 7 7 8 9 10 11 12 14 16 18 19 20 19 18 17 17 17 17 15 16 16 16 15 19 19 18 16 15 14 15 15 14 14 15 14 14 13 13 13 13 13 12
8 8 8 9 9 10 11 12 14 16 18 20 22 22 20 20 19 19 19 19 19 18 18 17 18 19 20 20 18 17 19 16 15 16 16 17 16 16 15 14 14 13 11
11 10 10 10 10 10 12 13 15 17 18 20 21 22 21 22 22 20 21 21 22 21 22 20 18 18 23 26 25 21 21 18 17 17 18 18 18 18 16 15 14 13 12
16 15 13 11 12 13 12 13 14 17 17 19 21 21 23 24 24 24 23 23 23 23 22 22 23 21 21 25 23 23 22 20 19 19 19 20 20 19 18 17 16 15 13
21 19 18 15 15 15 13 13 13 15 16 17 20 22 23 25 26 26 26 25 25 24 23 23 21 23 23 27 25 24 24 21 21 21 21 21 22 21 20 19 18 16 14
24 24 21 21 19 17 15 14 13 14 15 17 20 22 23 24 25 25 24 26 26 26 25 23 23 22 27 31 29 25 25 23 23 23 22 22 23 22 20 20 18 17 15
23 24 23 25 24 20 17 17 17 15 14 17 20 22 23 26 27 27 27 27 27 26 26 25 28 31 34 35 27 27 25 26 25 24 23 23 23 22 21 21 21 20 19
27 25 24 24 27 25 22 21 19 17 16 17 18 20 22 24 23 25 28 29 28 26 25 26 26 26 33 36 31 28 27 27 26 25 25 24 24 24 24 24 23 22 21
31 32 28 25 27 29 27 24 23 22 19 19 19 20 22 22 21 22 24 24 23 26 25 25 27 22 34 31 30 28 28 30 27 26 25 25 25 25 25 24 24 24 22
35 36 36 31 27 28 31 28 27 26 24 24 22 22 22 23 23 26 23 23 23 21 23 24 25 26 28 29 35 30 29 31 29 27 27 25 25 26 26 26 26 25 24
42 40 39 36 32 28 28 31 31 31 30 28 26 24 25 25 25 27 27 23 24 22 23 27 28 28 30 37 36 31 30 33 31 28 27 25 26 27 27 27 26 26 26
42 44 40 38 40 33 26 26 31 34 35 33 31 29 28 27 27 29 28 26 26 24 22 23 28 27 32 37 40 34 31 32 31 31 29 28 29 30 30 29 28 28 27
42 39 40 39 39 39 34 32 30 32 34 36 36 32 31 30 30 29 30 26 28 28 27 23 24 23 30 38 38 41 32 33 31 32 32 30 31 31 30 29 29 29 29
35 37 39 40 42 44 43 50 39 34 36 38 38 35 33 31 31 31 30 26 28 29 29 27 24 30 28 40 38 33 34 33 32 34 32 31 32 32 32 31 30 30 29
36 36 39 42 39 35 40 35 40 37 36 37 38 35 35 32 31 31 29 28 27 31 30 25 21 23 26 36 37 38 34 32 33 34 34 33 33 32 31 30 31 31 31
34 35 35 36 44 43 36 39 37 35 35 35 37 35 33 33 32 31 29 26 27 28 30 28 24 18 26 37 43 40 34 30 30 31 31 33 32 32 31 31 30 31 32
39 39 38 41 40 41 40 42 41 37 35 35 39 38 34 35 33 31 30 28 27 26 25 26 25 25 20 36 36 35 37 43 40 39 37 33 31 34 30 32 32 32 34
44 41 42 43 42 44 45 45 44 42 40 38 39 40 37 36 35 32 31 29 28 27 27 23 23 19 33 32 37 32 32 31 35 33 35 36 35 32 32 34 36 36 34
37 44 42 42 45 47 47 47 47 46 43 39 41 38 36 37 37 33 31 31 29 27 25 27 24 26 25 34 35 33 30 31 33 35 35 35 36 36 39 34 34 33 32
31 33 36 40 43 44 47 51 50 47 44 42 40 39 38 39 37 34 32 31 34 31 26 24 26 30 27 23 27 30 28 30 35 37 39 38 37 39 33 33 36 38 37
30 34 35 36 38 42 47 49 49 47 43 42 40 40 39 39 38 35 33 32 33 30 28 30 26 34 37 31 27 28 28 31 35 38 40 41 37 36 34 36 35 32 34
22 22 28 36 39 43 45 45 44 44 45 44 41 40 40 39 38 35 33 32 31 32 32 33 28 29 26 31 33 29 33 32 34 33 38 40 41 40 36 38 40 33 38
29 27 31 27 36 29 29 31 45 41 42 43 42 39 37 39 37 34 33 30 29 35 34 32 32 33 30 33 29 29 31 40 41 38 32 31 36 39 38 33 36 37 38
24 26 28 34 37 37 39 27 29 33 40 34 29 38 37 34 36 34 32 30 32 29 34 31 35 32 31 31 32 34 31 29 27 33 39 37 34 38 35 39 37 36 33
11 14 17 25 31 28 30 31 28 33 38 29 37 38 47 39 38 33 34 31 30 33 36 37 43 40 39 35 37 38 41 38 39 38 34 34 34 37 41 42 37 39 37
17 16 15 14 17 25 23 22 26 30 33 38 42 40 43 43 40 31 34 32 27 27 27 30 34 30 31 34 34 36 35 36 41 38 36 41 41 41 37 34 33 37 44

GFSMA_700_spd_129.txt.gz
Wind_Speed
16 14 12 11 11 11 11 11 11 11 13 15 15 16 17 16 16 19 20 15 14 15 15 15 14 15 20 15 15 9 10 13 14 16 17 17 16 17 17 18 18 18 18
17 15 14 12 12 12 11 10 12 12 14 15 15 17 17 18 19 19 21 21 15 16 16 17 16 15 15 13 17 15 15 14 15 17 18 19 18 18 18 19 19 20 18
19 17 15 13 12 11 11 12 12 13 14 15 16 16 17 18 19 21 21 20 22 19 18 18 18 17 15 14 14 21 18 16 17 18 20 20 20 20 21 21 21 20 20
23 20 18 15 13 13 13 13 13 13 14 15 15 17 17 19 20 19 22 21 24 24 22 21 19 19 20 19 18 16 28 22 20 21 22 22 22 22 23 23 22 21 21
26 24 21 19 17 16 15 15 14 14 15 15 15 16 18 19 20 21 22 22 23 25 27 24 23 21 21 22 21 19 19 28 30 25 25 24 24 24 25 24 23 23 23
30 28 26 24 22 20 18 18 16 17 17 17 17 17 17 18 20 20 21 22 22 23 23 25 24 23 24 24 25 23 22 24 29 32 27 27 27 26 26 26 25 25 24
33 32 29 28 27 25 23 22 21 21 21 20 20 19 18 18 18 20 22 22 22 23 21 25 27 26 25 26 28 26 24 25 24 31 30 28 29 28 28 29 28 27 26
38 38 36 34 31 29 28 26 26 25 23 23 23 21 20 20 19 18 18 20 20 20 21 24 29 28 30 29 31 30 30 29 28 33 35 33 31 30 30 31 31 29 28
40 39 36 36 32 31 30 29 28 28 27 26 27 25 25 23 23 22 18 19 20 20 19 22 24 29 29 31 32 31 31 30 31 37 36 36 34 34 32 32 33 31 30
40 37 34 34 32 32 32 31 29 29 30 31 31 30 29 27 27 20 28 24 23 22 21 22 24 27 27 28 32 33 31 32 34 39 36 35 36 32 33 34 34 33 32
40 37 36 34 33 33 33 34 31 32 32 34 34 34 34 32 29 31 31 33 31 27 27 24 25 27 28 29 31 32 33 34 32 40 37 36 33 31 35 34 35 35 33
37 39 37 38 38 37 38 37 36 35 40 33 38 36 37 37 33 35 36 33 34 35 33 30 27 27 29 29 30 33 33 33 35 47 36 37 36 33 35 36 36 36 35
35 40 40 39 41 41 42 42 40 36 39 41 40 45 41 42 48 46 39 37 39 36 38 34 30 30 28 30 32 29 25 29 32 38 41 37 39 36 35 37 37 37 37
37 40 41 40 41 38 39 39 42 41 41 44 44 39 36 40 42 46 41 38 41 40 40 37 33 32 28 31 32 30 29 31 34 38 41 38 35 36 37 38 39 38 38
42 39 39 34 35 34 36 35 37 40 42 43 38 32 36 38 44 51 58 47 45 42 42 39 37 33 26 26 29 30 33 31 35 43 47 39 35 36 38 39 40 39 39
32 31 36 36 35 33 32 39 40 39 42 45 45 46 53 48 42 37 40 46 44 43 43 39 40 36 30 29 29 33 34 33 37 41 45 42 42 39 38 41 41 41 40
35 37 41 42 40 43 35 39 41 41 41 44 45 46 48 53 42 42 43 44 43 43 44 37 41 38 34 29 28 31 33 31 35 40 46 46 48 48 45 43 42 42 41
34 37 38 39 43 46 49 42 46 45 44 44 46 42 49 42 47 45 44 42 42 41 44 43 40 39 35 33 30 33 35 31 33 38 43 44 48 48 43 43 44 43 42
28 37 43 44 40 41 46 46 49 50 49 46 46 47 48 48 51 48 44 45 43 42 46 48 44 42 37 34 33 31 32 30 31 34 33 43 45 40 38 42 43 45 44
23 24 30 30 37 44 46 50 50 49 50 52 51 51 50 51 52 49 48 49 46 45 47 47 46 44 39 35 36 34 35 35 29 30 40 42 41 42 47 50 47 46 46
20 30 38 34 36 38 36 36 37 37 44 48 50 51 49 50 53 51 51 50 49 48 50 52 51 47 41 38 37 34 34 31 28 27 34 43 42 40 37 44 48 52 53
23 20 21 20 33 24 28 29 23 37 33 37 41 48 51 51 54 53 52 51 52 53 52 49 54 49 41 39 37 38 32 31 34 33 32 32 37 35 43 41 37 33 30
9 16 24 26 27 30 29 34 30 39 33 32 41 44 48 49 47 52 52 52 54 52 49 58 56 48 43 41 40 38 36 35 34 34 37 30 34 36 34 39 35 31 38
12 12 12 12 11 14 18 20 23 25 33 38 40 40 45 40 51 55 49 47 54 49 50 51 48 45 45 42 39 37 33 32 31 39 40 37 36 33 32 37 37 43 43
15 14 15 15 15 15 15 17 17 18 19 24 28 34 36 37 46 50 46 48 45 47 50 45 49 44 40 41 33 39 39 38 39 41 37 39 43 37 37 37 40 38 39
18 19 19 19 20 21 22 22 21 21 23 22 22 25 30 35 39 37 34 39 39 46 43 43 47 43 43 39 34 39 41 41 43 42 42 40 36 40 45 42 43 40 40

GFSMA_700_spd_132.txt.gz
Wind_Speed
21 18 17 16 13 13 13 11 12 12 11 12 12 10 13 12 14 12 15 18 13 13 12 14 15 13 12 14 15 16 19 24 22 17 16 16 16 15 15 16 17 18 18
23 22 20 17 15 13 13 12 11 9 11 11 11 13 13 13 14 12 17 16 15 14 14 14 16 15 14 13 13 8 10 16 13 14 14 16 17 17 17 17 19 19 20
27 25 22 19 16 14 14 12 11 9 10 9 10 11 11 13 14 16 17 18 17 18 16 16 16 15 17 13 12 11 15 15 14 14 13 16 18 19 18 19 21 21 21
29 28 25 22 18 17 15 14 12 10 9 10 9 11 12 14 15 16 18 18 18 18 18 17 16 17 17 17 16 17 13 20 23 16 15 16 19 20 21 22 23 23 23
33 32 28 24 21 19 15 14 14 12 11 11 11 11 13 14 14 15 17 18 18 18 18 18 16 18 18 18 19 19 19 18 23 31 24 22 21 22 23 23 24 25 25
36 34 31 27 24 21 19 18 16 15 14 13 14 14 13 14 13 14 14 15 18 18 20 20 18 18 19 19 21 23 23 21 21 27 28 27 25 24 25 26 26 27 27
40 39 34 30 29 26 24 21 20 19 18 17 18 17 15 15 14 14 13 14 15 16 18 21 20 21 21 22 22 23 26 26 25 22 28 25 27 27 27 28 28 29 29
44 41 38 35 33 30 29 27 26 24 23 22 21 20 20 19 18 17 16 15 15 15 15 16 19 18 20 25 25 27 27 28 29 26 25 23 27 30 29 29 31 31 31
46 43 41 40 37 35 33 31 29 28 27 25 25 24 24 23 24 22 20 17 17 17 17 19 19 20 21 22 24 26 28 28 29 29 27 31 35 33 35 33 34 35 33
48 47 46 44 42 39 36 34 33 30 29 27 28 28 27 27 26 28 26 25 25 23 22 22 22 21 23 25 22 25 27 28 30 30 32 31 36 41 38 39 38 35 35
50 52 47 44 42 38 34 34 32 30 29 28 29 29 29 29 30 31 29 31 31 29 29 28 28 27 25 25 26 26 28 29 30 32 31 30 37 36 41 41 36 37 36
52 54 50 42 38 35 33 31 32 32 29 29 31 32 33 36 34 35 33 32 36 38 36 35 32 32 28 27 26 26 27 29 30 31 31 32 34 41 39 39 38 38 37
47 42 57 44 37 35 34 34 35 35 34 34 34 34 35 33 32 33 40 41 47 38 42 37 33 35 32 29 29 28 29 29 32 26 29 33 38 45 43 45 41 35 38
52 71 12 39 34 35 35 34 35 35 38 38 39 37 38 37 35 35 33 34 45 41 44 43 35 36 37 34 29 29 30 30 31 30 29 26 38 45 45 45 37 36 38
41 38 19 22 27 32 34 35 35 33 34 35 38 39 39 38 35 33 31 40 47 40 39 42 39 38 41 38 33 31 32 28 30 31 30 29 39 47 49 42 39 37 38
35 29 24 22 24 29 32 32 32 32 33 34 36 36 39 40 39 38 42 49 45 31 32 30 33 36 40 38 35 35 34 34 30 32 32 30 40 44 43 42 39 39 40
25 27 31 30 28 29 31 33 34 31 32 34 35 35 37 41 44 43 46 47 48 39 37 34 33 33 40 40 39 36 33 36 33 30 29 33 34 46 45 44 40 37 40
19 17 16 21 27 28 30 32 34 34 31 32 32 38 39 42 45 45 46 48 44 37 39 41 39 32 36 40 45 40 34 38 35 33 33 32 34 48 47 45 43 42 41
16 20 20 28 27 27 30 33 34 36 38 40 42 41 42 46 45 48 49 48 44 38 47 50 43 36 36 43 46 44 39 39 37 33 31 33 30 44 51 50 49 48 46
16 20 24 28 29 33 36 35 37 38 41 43 47 48 46 49 50 50 51 47 47 48 48 54 47 38 42 41 46 44 41 40 38 33 33 35 32 36 46 48 48 50 52
11 14 20 29 29 33 32 34 39 43 37 35 42 39 43 49 46 50 51 49 47 50 58 58 47 40 43 45 47 44 43 43 40 36 34 34 34 36 39 42 47 47 42
11 9 16 21 25 28 15 36 25 34 34 28 36 33 38 41 45 48 49 51 51 50 54 51 54 48 49 51 51 46 41 44 44 38 34 32 31 28 32 40 43 39 42
14 13 13 13 14 14 12 13 15 17 20 22 36 37 33 36 41 49 49 48 40 45 49 50 53 47 52 53 53 55 40 46 44 40 36 32 31 29 38 38 43 39 39
14 14 14 14 15 16 16 16 17 18 18 18 18 20 28 33 40 41 43 43 43 42 45 49 48 55 51 45 43 50 42 42 47 39 37 37 35 36 38 34 35 39 41
16 15 16 17 17 18 18 19 21 22 23 24 24 23 20 21 25 30 35 40 44 44 45 49 47 50 54 63 58 58 50 45 51 43 43 38 35 39 38 40 36 34 30
16 16 17 17 18 19 20 20 21 22 25 25 27 28 28 28 26 25 26 28 33 44 46 48 47 48 47 52 50 39 40 46 45 41 40 41 38 40 45 45 45 43 35